[[{"header":{"parameterUnit":"m.s-1","parameterCategory":1,"la1":31.0,"la2":29.5877,"lo1":-88.7671,"lo2":-86.6584,"dy":0.0162,"dx":0.0185,"nx":115,"ny":88,"refTime":"2023-09-19T12:00:00:Z","depth":0,"parameterNumber":2,"parameterNumberName":"U-component_of_WINDS"},"data":[0.0,0.0,0.0,0.0,0.0,0.0,0.0,0.0,0.0,0.0,0.0,0.0,0.0,0.0,0.0,0.0,0.0,0.0,0.0,0.0,0.0,0.0,0.0,0.0,0.0,0.0,0.0,0.0,0.0,0.0,0.0,0.0,0.0,0.0,0.0,0.0,0.0,0.0,0.0,0.0,0.0,0.0,0.0,0.0,0.0,0.0,0.0,0.0,0.0,0.0,0.0,0.0,0.0,0.0,0.0,0.0,0.0,0.0,0.0,0.0,0.0,0.0,0.0,0.0,0.0,0.0,0.0,0.0,0.0,0.0,0.0,0.0,0.0,0.0,0.0,0.0,0.0,0.0,0.0,0.0,0.0,0.0,0.0,0.0,0.0,0.0,0.0,0.0,0.0,0.0,0.0,0.0,0.0,0.0,0.0,0.0,0.0,0.0,0.0,0.0,0.0,0.0,0.0,0.0,0.0,0.0,0.0,0.0,0.0,0.0,0.0,0.0,0.0,0.0,0.0,0.0,0.0,0.0,0.0,0.0,0.0,0.0,0.0,0.0,0.0,0.0,0.0,0.0,0.0,0.0,0.0,0.0,0.0,0.0,0.0,0.0,0.0,0.0,0.0,0.0,0.0,0.0,0.0,0.0,0.0,0.0,0.0,0.0,0.0,0.0,0.0,0.0,0.0,0.0,0.0,0.0,0.0,0.0,0.0,0.0,0.0,0.0,0.0,0.0,0.0,0.0,0.0,0.0,0.0,0.0,0.0,0.0,0.0,0.0,0.0,0.0,0.0,0.0,0.0,0.0,0.0,0.0,0.0,0.0,0.0,0.0,0.0,0.0,0.0,0.0,0.0,0.0,0.0,0.0,0.0,0.0,0.0,0.0,0.0,0.0,0.0,0.0,0.0,0.0,0.0,0.0,0.0,0.0,0.0,0.0,0.0,0.0,0.0,0.0,0.0,0.0,0.0,0.0,0.0,0.0,0.0,0.0,0.0,0.0,0.0,0.0,0.0,0.0,0.0,0.0,0.0,0.0,0.0,0.0,0.0,0.0,0.0,0.0,0.0,0.0,0.0,0.0,0.0,0.0,0.0,0.0,0.0,0.0,0.0,0.0,0.0,0.0,0.0,0.0,0.0,0.0,0.0,0.0,0.0,0.0,0.0,0.0,0.0,0.0,0.0,0.0,0.0,0.0,0.0,0.0,0.0,0.0,0.0,0.0,0.0,0.0,0.0,0.0,0.0,0.0,0.0,0.0,0.0,0.0,0.0,0.0,0.0,0.0,0.0,0.0,0.0,0.0,0.0,0.0,0.0,0.0,0.0,0.0,0.0,0.0,0.0,0.0,0.0,0.0,0.0,0.0,0.0,0.0,0.0,0.0,0.0,0.0,0.0,0.0,0.0,0.0,0.0,0.0,0.0,0.0,0.0,0.0,0.0,0.0,0.0,0.0,0.0,0.0,0.0,0.0,0.0,0.0,0.0,0.0,0.0,0.0,0.0,0.0,0.0,0.0,0.0,0.0,0.0,0.0,0.0,0.0,0.0,0.0,0.0,0.0,0.0,0.0,0.0,0.0,0.0,0.0,0.0,0.0,0.0,0.0,0.0,0.0,0.0,0.0,0.0,0.0,0.0,0.0,0.0,0.0,0.0,0.0,0.0,0.0,0.0,0.0,0.0,0.0,0.0,0.0,0.0,0.0,0.0,0.0,0.0,0.0,0.0,0.0,0.0,0.0,0.0,0.0,0.0,0.0,0.0,0.0,0.0,0.0,0.0,0.0,0.0,0.0,0.0,0.0,0.0,0.0,0.0,0.0,0.0,0.0,0.0,0.0,0.0,0.0,0.0,0.0,0.0,0.0,0.0,0.0,0.0,0.0,0.0,0.0,0.0,0.0,0.0,0.0,0.0,0.0,0.0,0.0,0.0,0.0,0.0,0.0,0.0,0.0,0.0,0.0,0.0,0.0,0.0,0.0,0.0,0.0,0.0,0.0,0.0,0.0,0.0,0.0,0.0,0.0,0.0,0.0,0.0,0.0,0.0,0.0,0.0,0.0,0.0,0.0,0.0,0.0,0.0,0.0,0.0,0.0,0.0,0.0,0.0,0.0,0.0,0.0,0.0,0.0,0.0,0.0,0.0,0.0,0.0,0.0,0.0,0.0,0.0,0.0,0.0,0.0,0.0,0.0,0.0,0.0,0.0,0.0,0.0,0.0,0.0,0.0,0.0,0.0,0.0,0.0,0.0,0.0,0.0,0.0,0.0,0.0,0.0,0.0,0.0,0.0,0.0,0.0,0.0,0.0,0.0,0.0,0.0,0.0,0.0,0.0,0.0,0.0,0.0,0.0,0.0,0.0,0.0,0.0,0.0,0.0,0.0,0.0,0.0,0.0,0.0,0.0,0.0,0.0,0.0,0.0,0.0,0.0,0.0,0.0,0.0,0.0,0.0,0.0,0.0,0.0,0.0,0.0,0.0,0.0,0.0,0.0,0.0,0.0,0.0,0.0,0.0,0.0,0.0,0.0,0.0,0.0,0.0,0.0,0.0,0.0,0.0,0.0,0.0,0.0,0.0,0.0,0.0,0.0,0.0,0.0,0.0,0.0,0.0,0.0,0.0,0.0,0.0,0.0,0.0,0.0,0.0,0.0,0.0,0.0,0.0,0.0,0.0,0.0,0.0,0.0,0.0,0.0,0.0,0.0,0.0,0.0,0.0,0.0,0.0,0.0,0.0,0.0,0.0,0.0,0.0,0.0,0.0,0.0,0.0,0.0,0.0,0.0,0.0,0.0,0.0,0.0,0.0,0.0,0.0,0.0,0.0,0.0,0.0,0.0,0.0,0.0,0.0,0.0,0.0,0.0,0.0,0.0,0.0,0.0,0.0,0.0,0.0,0.0,0.0,0.0,0.0,0.0,0.0,0.0,0.0,0.0,0.0,0.0,0.0,0.0,0.0,0.0,0.0,0.0,0.0,0.0,0.0,0.0,0.0,0.0,0.0,0.0,0.0,0.0,0.0,0.0,0.0,0.0,0.0,0.0,0.0,0.0,0.0,0.0,0.0,0.0,0.0,0.0,0.0,0.0,0.0,0.0,0.0,0.0,0.0,0.0,0.0,0.0,0.0,0.0,0.0,0.0,0.0,0.0,0.0,0.0,0.0,0.0,0.0,0.0,0.0,0.0,0.0,0.0,0.0,0.0,0.0,0.0,0.0,0.0,0.0,0.0,0.0,0.0,0.0,0.0,0.0,0.0,0.0,0.0,0.0,0.0,0.0,0.0,0.0,0.0,0.0,0.0,0.0,0.0,0.0,0.0,0.0,0.0,0.0,0.0,0.0,0.0,0.0,0.0,0.0,0.0,0.0,0.0,0.0,0.0,0.0,0.0,0.0,0.0,0.0,0.0,0.0,0.0,0.0,0.0,0.0,0.0,0.0,0.0,0.0,0.0,0.0,0.0,0.0,0.0,0.0,0.0,0.0,0.0,0.0,0.0,0.0,0.0,0.0,0.0,0.0,0.0,0.0,0.0,0.0,0.0,0.0,0.0,0.0,0.0,0.0,0.0,0.0,0.0,0.0,0.0,0.0,0.0,0.0,0.0,0.0,0.0,0.0,0.0,0.0,0.0,0.0,0.0,0.0,0.0,0.0,0.0,0.0,0.0,0.0,0.0,0.0,0.0,0.0,0.0,0.0,0.0,0.0,0.0,0.0,0.0,0.0,0.0,0.0,0.0,0.0,0.0,0.0,0.0,0.0,0.0,0.0,0.0,0.0,0.0,0.0,0.0,0.0,0.0,0.0,0.0,0.0,0.0,0.0,0.0,0.0,0.0,0.0,0.0,0.0,0.0,0.0,0.0,0.0,0.0,0.0,0.0,0.0,0.0,0.0,0.0,0.0,0.0,0.0,0.0,0.0,0.0,0.0,0.0,0.0,0.0,0.0,0.0,0.0,0.0,0.0,0.0,0.0,0.0,0.0,0.0,0.0,0.0,0.0,0.0,0.0,0.0,0.0,0.0,0.0,0.0,0.0,0.0,0.0,0.0,0.0,0.0,0.0,0.0,0.0,0.0,0.0,0.0,0.0,0.0,0.0,0.0,0.0,0.0,0.0,0.0,0.0,0.0,0.0,0.0,0.0,0.0,0.0,0.0,0.0,0.0,0.0,0.0,0.0,0.0,0.0,0.0,0.0,0.0,0.0,0.0,0.0,0.0,0.0,0.0,0.0,0.0,0.0,0.0,0.0,0.0,0.0,0.0,0.0,0.0,0.0,0.0,0.0,0.0,0.0,0.0,0.2967,0.0,0.0,0.0,0.0,0.0,0.0,0.0,0.0,0.0,0.0,0.0,0.0,0.0,0.0,0.0,0.0,0.0,0.0,0.0,0.0,0.0,0.0,0.0,0.0,0.0,0.0,0.0,0.0,0.0,0.0,0.0,0.0,0.0,0.0,0.0,0.0,0.0,0.0,0.0,0.0,0.0,0.0,0.0,0.0,0.0,0.0,0.0,0.0,0.0,0.0,0.0,0.0,0.0,0.0,0.0,0.0,0.0,0.0,0.0,0.0,0.0,0.0,0.0,0.0,0.0,0.0,0.0,0.0,0.0,0.0,0.0,0.0,0.0,0.0,0.0,0.0,0.0,0.0,0.0,0.0,0.0,0.0,0.0,0.0,0.0,0.0,0.0,0.0,0.0,0.0,0.0,0.0,0.0,0.0,0.0,0.0,0.0,0.0,0.0,0.0,0.0,0.0,0.0,0.0,0.0,0.0,0.0,0.0,0.0,0.0,0.398,0.3816,0.362,0.3404,0.318,0.0,0.0,0.0,0.0,0.0,0.0,0.0,0.0,0.0,0.0,0.0,0.0,0.0,0.0,0.0,0.0,0.0,0.0,0.0,0.0,0.0,0.0,0.0,0.0,0.0,0.0,0.0,0.0,0.0,0.0,0.0,0.0,0.0,0.0,0.0,0.0,0.0,0.0,0.0,0.0,0.0,0.0,0.0,0.0,0.0,0.0,0.0,0.0,0.0,0.0,0.0,0.0,0.0,0.0,0.0,0.0,0.0,0.0,0.0,0.0,0.0,0.0,0.0,0.0,0.0,0.0,0.0,0.0,0.0,0.0,0.0,0.0,0.0,0.0,0.0,0.0,0.0,0.0,0.0,0.0,0.0,0.0,0.0,0.0,0.0,0.0,0.0,0.0,0.0,0.0,0.0,0.0,0.0,0.0,0.0,0.0,0.0,0.0,0.0,0.0,0.0,0.0,0.0,0.0,0.0,0.0,0.0,0.0,0.0,0.0,0.0,0.0,0.3793,0.362,0.3385,0.0,0.0,0.0,0.0,0.0,0.0,0.0,0.0,0.0,0.0,0.0,0.0,0.0,0.0,0.0,0.0,0.0,0.0,0.0,0.0,0.0,0.0,0.0,0.0,0.0,0.0,0.0,0.0,0.0,0.0,0.0,0.0,0.0,0.0,0.0,0.0,0.0,0.0,0.0,0.0,0.0,0.0,0.0,0.0,0.0,0.0,0.0,0.0,0.0,0.0,0.0,0.0,0.0,0.0,0.0,0.0,0.0,0.0,0.0,0.0,0.0,0.0,0.0,0.0,0.0,0.0,0.0,0.0,0.0,0.0,0.0,0.0,0.0,0.0,0.0,0.0,0.0,0.0,0.0,0.0,0.0,0.0,0.0,0.0,0.0,0.0,0.0,0.0,0.0,0.0,0.0,0.0,0.0,0.0,0.0,0.0,0.0,0.0,0.0,0.0,0.0,0.0,0.0,0.0,0.0,0.0,0.0,0.0,0.0,0.0,0.4264,0.3995,0.3862,0.0,0.3338,0.0,0.0,0.0,0.0,0.0,0.0,0.0,0.0,0.0,0.0,0.0,0.0,0.0,0.0,0.0,0.0,0.0,0.0,0.0,0.0,0.0,0.0,0.0,0.0,0.0,0.0,0.0,0.0,0.0,0.0,0.0,0.0,0.0,0.0,0.0,0.0,0.0,0.0,0.0,0.0,0.0,0.0,0.0,0.0,0.0,0.0,0.0,0.0,0.0,0.0,0.0,0.0,0.0,0.0,0.0,0.0,0.0,0.0,0.0,0.0,0.0,0.0,0.0,0.0,0.0,0.0,0.0,0.0,0.0,0.0,0.0,0.0,0.0,0.0,0.0,0.0,0.0,0.0,0.0,0.0,0.0,0.0,0.0,0.0,0.0,0.0,0.0,0.0,0.0,0.0,0.0,0.0,0.0,0.0,0.0,0.0,0.0,0.0,0.0,0.0,0.0,0.0,0.0,0.0,0.0,0.0,0.0,0.0,0.0,0.0,0.4334,0.4178,0.3966,0.3688,0.0,0.0,0.0,0.0,0.0,0.0,0.0,0.0,0.0,0.0,0.0,0.0,0.0,0.0,0.0,0.0,0.0,0.0,0.0,0.0,0.0,0.0,0.0,0.0,0.0,0.0,0.0,0.0,0.0,0.0,0.0,0.0,0.0,0.0,0.0,0.0,0.0,0.0,0.0,0.0,0.0,0.0,0.0,0.0,0.0,0.0,0.0,0.0,0.0,0.0,0.0,0.0,0.0,0.0,0.0,0.0,0.0,0.0,0.0,0.0,0.0,0.0,0.0,0.0,0.0,0.0,0.0,0.0,0.0,0.0,0.0,0.0,0.0,0.0,0.0,0.0,0.0,0.0,0.0,0.0,0.0,0.0,0.0,0.0,0.0,0.0,0.0,0.0,0.0,0.0,0.0,0.0,0.0,0.0,0.0,0.0,0.0,0.0,0.0,0.0,0.0,0.0,0.0,0.0,0.0,0.0,0.0,0.0,0.0,0.0,0.4463,0.4463,0.4324,0.4091,0.3822,0.3528,0.0,0.0,0.0,0.0,0.0,0.0,0.0,0.0,0.0,0.0,0.0,0.0,0.0,0.0,0.0,0.0,0.0,0.0,0.0,0.0,0.0,0.0,0.0,0.0,0.0,0.0,0.0,0.0,0.0,0.0,0.0,0.0,0.0,0.0,0.0,0.0,0.0,0.0,0.0,0.0,0.0,0.0,0.0,0.0,0.0,0.0,0.0,0.0,0.0,0.0,0.0,0.0,0.0,0.0,0.0,0.0,0.0,0.0,0.0,0.0,0.0,0.0,0.0,0.0,0.0,0.0,0.0,0.0,0.0,0.0,0.0,0.0,0.0,0.0,0.0,0.0,0.0,0.0,0.0,0.0,0.0,0.0,0.0,0.0,0.0,0.0,0.0,0.0,0.0,0.0,0.0,0.0,0.0,0.0,0.0,0.0,0.0,0.0,0.0,0.0,0.0,0.0,0.0,0.0,0.0,0.0,0.0,0.0,0.4333,0.4609,0.4652,0.4406,0.4186,0.4089,0.0,0.0,0.0,0.0,0.0,0.0,0.0,0.0,0.0,0.0,0.0,0.0,0.0,0.0,0.0,0.0,0.0,0.0,0.0,0.0,0.0,0.0,0.0,0.0,0.0,0.0,0.0,0.0,0.0,0.0,0.0,0.0,0.0,0.0,0.0,0.0,0.0,0.0,0.0,0.0,0.0,0.0,0.0,0.0,0.0,0.0,0.0,0.0,0.0,0.0,0.0,0.0,0.0,0.0,0.0,0.0,0.0,0.0,0.0,0.0,0.0,0.0,0.0,0.0,0.0,0.0,0.0,0.0,0.0,0.0,0.0,0.0,0.0,0.0,0.0,0.0,0.0,0.0,0.0,0.0,0.0,0.0,0.0,0.0,0.0,0.0,0.0,0.0,0.0,0.0,0.0,0.0,0.0,0.0,0.0,0.0,0.0,0.0,0.0,0.0,0.0,0.0,0.0,0.0,0.0,0.0,0.0,0.0,0.0,0.4615,0.4575,0.4479,0.4342,0.4256,0.4221,0.0,0.0,0.0,0.0,0.0,0.0,0.0,0.0,0.0,0.0,0.0,0.0,0.0,0.0,0.0,0.0,0.0,0.0,0.0,0.0,0.0,0.0,0.0,0.0,0.0,0.0,0.0,0.0,0.0,0.0,0.0,0.0,0.0,0.0,0.0,0.0,0.0,0.0,0.0,0.0,0.0,0.0,0.0,0.0,0.0,0.0,0.0,0.0,0.0,0.0,0.0,0.0,0.0,0.0,0.0,0.0,0.0,0.0,0.0,0.0,0.0,0.0,0.0,0.0,0.0,0.0,0.0,0.0,0.0,0.0,0.0,0.0,0.0,0.0,0.0,0.0,0.0,0.0,0.0,0.0,0.0,0.0,0.0,0.0,0.0,0.0,0.0,0.0,0.0,0.0,0.0,0.0,0.0,0.0,0.0,0.0,0.0,0.0,0.0,0.0,0.0,0.0,0.0,0.0,0.0,0.0,0.0,0.0,0.0,0.4821,0.0,0.445,0.4402,0.4402,0.4357,0.0,0.0,0.0,0.0,0.0,0.0,0.0,0.0,0.0,0.0,0.0,0.0,0.0,0.0,0.0,0.0,0.0,0.0,0.0,0.0,0.0,0.0,0.0,0.0,0.0,0.0,0.0,0.0,0.0,0.0,0.0,0.0,0.0,0.0,0.0,0.0,0.0,0.0,0.0,0.0,0.0,0.0,0.0,0.0,0.0,0.0,0.0,0.0,0.0,0.0,0.0,0.0,0.0,0.0,0.0,0.0,0.0,0.0,0.0,0.0,0.0,0.0,0.0,0.0,0.0,0.0,0.0,0.0,0.0,0.0,0.0,0.0,0.0,0.0,0.0,0.0,0.0,0.0,0.0,0.0,0.0,0.0,0.0,0.0,0.0,0.0,0.0,0.0,0.0,0.0,0.0,0.0,0.0,0.0,0.0,0.0,0.0,0.0,0.0,0.0,0.0,0.0,0.0,0.0,0.0,0.0,0.0,0.0,0.5017,0.489,0.4697,0.4583,0.4603,0.4598,0.4503,0.0,0.0,0.0,0.0,0.0,0.0,0.0,0.0,0.0,0.0,0.0,0.0,0.0,0.0,0.0,0.0,0.0,0.0,0.0,0.0,0.0,0.0,0.0,0.0,0.0,0.0,0.0,0.0,0.0,0.0,0.0,0.0,0.0,0.0,0.0,0.0,0.0,0.0,0.0,0.0,0.0,0.0,0.0,0.0,0.0,0.0,0.0,0.0,0.0,0.0,0.0,0.0,0.0,0.0,0.0,0.0,0.0,0.0,0.0,0.0,0.0,0.0,0.0,0.0,0.0,0.0,0.0,0.0,0.0,0.0,0.0,0.0,0.0,0.0,0.0,0.0,0.0,0.0,0.0,0.0,0.0,0.0,0.0,0.0,0.0,0.0,0.0,0.0,0.0,0.0,0.0,0.0,0.0,0.0,0.0,0.0,0.0,0.0,0.0,0.0,0.0,0.0,0.0,0.0,0.0,0.0,0.0,0.0,0.0,0.4699,0.4642,0.457,0.448,0.4551,0.4522,0.0,0.0,0.0,0.0,0.0,0.0,0.0,0.0,0.0,0.0,0.0,0.0,0.0,0.0,0.0,0.0,0.0,0.0,0.0,0.0,0.0,0.0,0.0,0.0,0.0,0.0,0.0,0.0,0.0,0.0,0.0,0.0,0.0,0.0,0.0,0.0,0.0,0.0,0.0,0.0,0.0,0.0,0.0,0.0,0.0,0.0,0.0,0.0,0.0,0.0,0.0,0.0,0.0,0.0,0.0,0.0,0.0,0.0,0.0,0.0,0.0,0.0,0.0,0.0,0.0,0.0,0.0,0.0,0.0,0.0,0.0,0.0,0.0,0.0,0.0,0.0,0.0,0.0,0.0,0.0,0.0,0.0,0.0,0.0,0.0,0.0,0.0,0.0,0.0,0.0,0.0,0.0,0.0,0.0,0.0,0.0,0.0,0.0,0.0,0.0,0.0,0.0,0.0,0.0,0.0,0.0,0.0,0.0,0.0,0.4443,0.4693,0.4698,0.4435,0.4625,0.4653,0.4504,0.0,0.0,0.0,0.0,0.0,0.0,0.0,0.0,0.0,0.0,0.0,0.0,0.0,0.0,0.0,0.0,0.0,0.0,0.0,0.0,0.0,0.0,0.0,0.0,0.0,0.0,0.0,0.0,0.0,0.0,0.0,0.0,0.0,0.0,0.0,0.0,0.0,0.0,0.0,0.0,0.0,0.0,0.0,0.0,0.0,0.0,0.0,0.0,0.0,0.0,0.0,0.0,0.0,0.0,0.0,0.0,0.0,0.0,0.0,0.0,0.0,0.0,0.0,0.0,0.0,0.0,0.0,0.0,0.0,0.0,0.0,0.0,0.0,0.0,0.0,0.0,0.0,0.0,0.0,0.0,0.0,0.0,0.0,0.0,0.0,0.0,0.0,0.0,0.0,0.0,0.0,0.0,0.0,0.0,0.0,0.0,0.0,0.0,0.0,0.0,0.0,0.0,0.0,0.0,0.0,0.0,0.0,0.0,0.4082,0.4761,0.4894,0.4455,0.4692,0.4807,0.0,0.0,0.0,0.0,0.0,0.0,0.0,0.0,0.0,0.0,0.0,0.0,0.0,0.0,0.0,0.0,0.0,0.0,0.0,0.0,0.0,0.0,0.0,0.0,0.0,0.0,0.0,0.0,0.0,0.0,0.0,0.0,0.0,0.0,0.0,0.0,0.0,0.0,0.0,0.0,0.0,0.0,0.0,0.0,0.0,0.0,0.0,0.0,0.0,0.0,0.0,0.0,0.0,0.0,0.0,0.0,0.0,0.0,0.0,0.0,0.0,0.0,0.0,0.0,0.0,0.0,0.0,0.0,0.0,0.0,0.0,0.0,0.0,0.0,0.0,0.0,0.0,0.0,0.0,0.0,0.0,0.0,0.0,0.0,0.0,0.0,0.0,0.0,0.0,0.0,0.0,0.0,0.0,0.0,0.0,0.0,0.0,0.0,0.0,0.0,0.0,0.0,0.0,0.0,0.0,0.0,0.0,0.0,0.0,0.3836,0.4036,0.4085,0.3929,0.4171,0.4399,0.0,0.0,0.0,0.0,0.0,0.0,0.0,0.0,0.0,0.0,0.0,0.0,0.0,0.0,0.0,0.0,0.0,0.0,0.0,0.0,0.0,0.0,0.0,0.0,0.0,0.0,0.0,0.0,0.0,0.0,0.0,0.0,0.0,0.0,0.0,0.0,0.0,0.0,0.0,0.0,0.0,0.0,0.0,0.0,0.0,0.0,0.0,0.0,0.0,0.0,0.0,0.0,0.0,0.0,0.0,0.0,0.0,0.0,0.0,0.0,0.0,0.0,0.0,0.0,0.0,0.0,0.0,0.0,0.0,0.0,0.0,0.0,0.0,0.0,0.0,0.0,0.0,0.0,0.0,0.0,0.0,0.0,0.0,0.0,0.0,0.0,0.0,0.0,0.0,0.0,0.0,0.0,0.0,0.0,0.0,0.0,0.0,0.0,0.0,0.0,0.0,0.0,0.0,0.0,0.0,0.0,0.0,0.0,0.3778,0.3302,0.3408,0.3397,0.3254,0.38,0.4214,0.0,0.0,0.0,0.0,0.0,0.0,0.0,0.0,0.0,0.0,0.0,0.0,0.0,0.0,0.0,0.0,0.0,0.0,0.0,0.0,0.0,0.0,0.0,0.0,0.0,0.0,0.0,0.0,0.0,0.0,0.0,0.0,0.0,0.0,0.0,0.0,0.0,0.0,0.0,0.0,0.0,0.0,0.0,0.0,0.0,0.0,0.0,0.0,0.0,0.0,0.0,0.0,0.0,0.0,0.0,0.0,0.0,0.0,0.0,0.0,0.0,0.0,0.0,0.0,0.0,0.0,0.0,0.0,0.0,0.0,0.0,0.0,0.0,0.0,0.0,0.0,0.0,0.0,0.0,0.0,0.0,0.0,0.0,0.0,0.0,0.0,0.0,0.0,0.0,0.0,0.0,0.0,0.0,0.0,0.0,0.0,0.0,0.0,0.0,0.0,0.0,0.0,0.0,0.0,0.0,0.0,0.0,0.0,0.3374,0.2697,0.2844,0.2829,0.2626,0.3505,0.4133,0.0,0.0,0.0,0.0,0.0,0.0,0.0,0.0,0.0,0.0,0.0,0.0,0.0,0.0,0.0,0.0,0.0,0.0,0.0,0.0,0.0,0.0,0.0,0.0,0.0,0.0,0.0,0.0,0.0,0.0,0.0,0.0,0.0,0.0,0.0,0.0,0.0,0.0,0.0,0.0,0.0,0.0,0.0,0.0,0.0,0.0,0.0,0.0,0.0,0.0,0.0,0.0,0.0,0.0,0.0,0.0,0.0,0.0,0.0,0.0,0.0,0.0,0.0,0.0,0.0,0.0,0.0,0.0,0.0,0.0,0.0,0.0,0.0,0.0,0.0,0.0,0.0,0.0,0.0,0.0,0.0,0.0,0.0,0.0,0.0,0.0,0.0,0.0,0.0,0.0,0.0,0.0,0.0,0.0,0.0,0.0,0.0,0.0,0.0,0.0,0.0,0.0,0.0,0.0,0.0,0.0,0.0,0.0,0.29,0.2468,0.2517,0.2532,0.2539,0.2987,0.3506,0.0,0.0,0.0,0.0,0.0,0.0,0.0,0.0,0.0,0.0,0.0,0.0,0.0,0.0,0.0,0.0,0.0,0.0,0.0,0.0,0.0,0.0,0.0,0.0,0.0,0.0,0.0,0.0,0.0,0.0,0.0,0.0,0.0,0.0,0.0,0.0,0.0,0.0,0.0,0.0,0.0,0.0,0.0,0.0,0.0,0.0,0.0,0.0,0.9582,0.0,0.0,0.0,0.0,0.0,0.0,0.0,0.0,0.0,0.0,0.0,0.0,0.0,0.0,0.0,0.0,0.0,0.0,0.0,0.0,0.0,0.0,0.0,0.0,0.0,0.0,0.0,0.0,0.0,0.0,0.0,0.0,0.0,0.0,0.0,0.0,0.0,0.0,0.0,0.0,0.0,0.0,0.0,0.0,0.0,0.0,0.0,0.0,0.0,0.0,0.0,0.0,0.0,0.0,0.0,0.0,0.0,0.0,0.0,0.257,0.2176,0.2337,0.2458,0.254,0.2871,0.3287,0.0,0.0,0.0,0.0,0.0,0.0,0.0,0.0,0.0,0.0,0.0,0.0,0.0,0.0,0.0,0.0,0.0,0.0,0.0,0.0,0.0,0.0,0.0,0.0,0.0,0.0,0.0,0.0,0.0,0.0,0.0,0.0,0.0,0.0,0.0,0.0,0.0,0.0,0.0,0.0,0.0,0.0,0.0,0.0,0.0,0.0,0.0,0.0,0.0,0.0,0.0,0.0,0.0,0.0,0.0,0.0,0.0,0.0,0.0,0.0,0.0,0.0,0.0,0.0,0.0,0.0,0.0,0.0,0.0,0.0,0.0,0.0,0.0,0.0,0.0,0.0,0.0,0.0,0.0,0.0,0.0,0.0,0.0,0.0,0.0,0.0,0.0,0.0,0.0,0.0,0.0,0.0,0.0,0.0,0.0,0.0,0.0,0.0,0.0,0.0,0.0,0.0,0.0,0.0,0.0,0.0,0.0,0.2592,0.2314,0.1903,0.2227,0.2465,0.2582,0.2927,0.3254,0.3512,0.0,0.0,0.0,0.0,0.0,0.0,0.0,0.0,0.0,0.0,0.0,0.0,0.0,0.0,0.0,0.0,0.0,0.0,0.0,0.0,0.0,0.0,0.0,0.0,0.0,0.0,0.0,0.0,0.0,0.0,0.0,0.0,0.0,0.0,0.0,0.0,0.0,0.0,0.7586,0.8103,0.0,0.0,0.0,0.0,0.0,0.0,0.0,0.0,0.9537,0.0,0.0,0.0,0.0,0.0,0.0,0.0,0.0,0.0,0.0,0.0,0.0,0.0,0.0,0.0,0.0,0.0,0.0,0.0,0.0,0.0,0.0,0.0,0.0,0.0,0.0,0.0,0.0,0.0,0.0,0.0,0.0,0.0,0.0,0.0,0.0,0.0,0.0,0.0,0.0,0.0,0.0,0.0,0.0,0.0,0.0,0.0,0.0,0.0,0.0,0.0,0.0,0.0,0.0,0.0,0.0,0.2438,0.2334,0.209,0.176,0.2167,0.2419,0.2447,0.3017,0.3436,0.3607,0.0,0.0,0.0,0.0,0.0,0.0,0.0,0.0,0.0,0.0,0.0,0.0,0.0,0.0,0.0,0.0,0.0,0.0,0.0,0.0,0.0,0.0,0.0,0.0,0.0,0.0,0.0,0.0,0.0,0.0,0.0,0.0,0.0,0.0,0.0,0.0,0.0,0.0,0.0,0.8626,0.8974,0.0,0.0,0.0,0.0,0.0,0.0,0.0,0.0,0.9915,0.0,0.0,0.0,0.0,0.0,0.0,0.0,0.0,0.0,0.0,0.0,0.0,0.0,0.0,0.0,0.0,0.0,0.0,0.0,0.0,0.0,0.0,0.0,0.0,0.0,0.0,0.0,0.0,0.0,0.0,0.0,0.0,0.0,0.0,0.0,0.0,0.0,0.0,0.0,0.0,0.0,0.0,0.0,0.0,0.0,0.0,0.0,0.0,0.0,0.0,0.0,0.0,0.0,0.0,0.0,0.19,0.1937,0.1789,0.1527,0.1981,0.234,0.2559,0.3014,0.3463,0.0,0.0,0.0,0.0,0.0,0.0,0.0,0.0,0.0,0.0,0.0,0.0,0.0,0.0,0.0,0.0,0.0,0.0,0.0,0.0,0.0,0.0,0.0,0.0,0.0,0.0,0.0,0.0,0.0,0.0,0.0,0.0,0.0,0.0,0.0,0.0,0.0,0.0,0.0,0.0,0.8614,0.8754,0.8955,0.0,0.0,0.0,0.0,0.0,0.0,0.9672,0.9618,0.0,0.0,0.0,0.0,0.0,0.0,0.0,0.0,0.0,0.0,0.0,0.0,0.0,0.0,0.0,0.0,0.0,0.0,0.0,0.0,0.0,0.0,0.0,0.0,0.0,0.0,0.0,0.0,0.0,0.0,0.0,0.0,0.0,0.0,0.0,0.0,0.0,0.0,0.0,0.0,0.0,0.0,0.0,0.0,0.0,0.0,0.0,0.0,0.0,0.0,0.0,0.0,0.0,0.0,0.0,0.132,0.1476,0.1465,0.1265,0.172,0.2172,0.2566,0.2923,0.3432,0.0,0.0,0.0,0.0,0.0,0.0,0.0,0.0,0.0,0.0,0.0,0.0,0.0,0.0,0.0,0.0,0.0,0.0,0.0,0.0,0.0,0.0,0.0,0.0,0.0,0.0,0.0,0.0,0.0,0.0,0.0,0.0,0.0,0.0,0.0,0.0,0.0,0.0,0.0,0.0,0.0,0.8483,0.8702,0.8494,0.0,0.0,0.0,0.0,0.9342,0.9473,0.0,0.0,0.0,0.0,0.0,0.0,0.0,0.0,0.0,0.0,0.0,0.0,0.0,0.0,0.0,0.0,0.0,0.0,0.0,0.0,0.0,0.0,0.0,0.0,0.0,0.0,0.0,0.0,0.0,0.0,0.0,0.0,0.0,0.0,0.0,0.0,0.0,0.0,0.0,0.0,0.0,0.0,0.0,0.0,0.0,0.0,0.0,0.0,0.0,0.0,0.0,0.0,0.0,0.0,0.0,0.0,0.0973,0.1042,0.1062,0.1063,0.1392,0.176,0.2155,0.2713,0.329,0.0,0.0,0.0,0.0,0.0,0.0,0.0,0.0,0.0,0.0,0.0,0.0,0.0,0.0,0.0,0.0,0.0,0.0,0.0,0.0,0.0,0.0,0.0,0.0,0.0,0.0,0.0,0.0,0.0,0.0,0.0,0.0,0.0,0.0,0.0,0.0,0.0,0.0,0.0,0.0,0.0,0.8564,0.8761,0.8551,0.8614,0.0,0.0,0.929,0.9823,1.0211,0.0,0.0,0.0,0.0,0.0,0.0,0.0,0.0,0.0,0.0,0.0,0.0,0.0,0.0,0.0,0.0,0.0,0.0,0.0,0.0,0.0,0.0,0.0,0.0,0.0,0.0,0.0,0.0,0.0,0.0,0.0,0.0,0.0,0.0,0.0,0.0,0.0,0.0,0.0,0.0,0.0,0.0,0.0,0.0,0.0,0.0,0.0,0.0,0.0,0.0,0.0,0.0,0.0,0.0,0.0,0.0553,0.0386,0.0234,0.0282,0.0602,0.0886,0.1333,0.1903,0.2493,0.3079,0.0,0.0,0.0,0.0,0.0,0.0,0.0,0.0,0.0,0.0,0.0,0.0,0.0,0.0,0.0,0.0,0.0,0.0,0.0,0.0,0.0,0.0,0.0,0.0,0.0,0.0,0.0,0.0,0.0,0.0,0.0,0.0,0.0,0.0,0.0,0.0,0.0,0.0,0.0,0.0,0.0,0.0,0.8363,0.8172,0.0,0.0,0.0,0.8791,0.9384,0.0,0.0,0.0,0.0,0.0,0.0,0.0,0.0,0.0,0.0,0.0,0.0,0.0,0.0,0.0,0.0,0.0,0.0,0.0,0.0,0.0,0.0,0.0,0.0,0.0,0.0,0.0,0.0,0.0,0.0,0.0,0.0,0.0,0.0,0.0,0.0,0.0,0.0,0.0,0.0,0.0,0.0,0.0,0.0,0.0,0.0,0.0,0.0,0.0,0.0,0.0,0.0,0.0,0.0,0.0,0.0,0.0,-0.0406,-0.0603,-0.0469,-0.0015,0.0345,0.0892,0.1628,0.2156,0.0,0.0,0.0,0.0,0.0,0.0,0.0,0.0,0.0,0.0,0.0,0.0,0.0,0.0,0.0,0.0,0.0,0.0,0.0,0.0,0.0,0.0,0.0,0.0,0.0,0.0,0.0,0.6398,0.0,0.0,0.0,0.0,0.0,0.0,0.0,0.0,0.0,0.0,0.0,0.0,0.0,0.0,0.7503,0.7655,0.7408,0.7454,0.0,0.0,0.8191,0.8849,0.9039,0.9227,0.0,0.0,0.0,0.0,0.0,0.0,0.0,0.0,0.0,0.0,0.0,0.0,0.0,0.0,0.0,0.0,0.0,0.0,0.0,0.0,0.0,0.0,0.0,0.0,0.0,0.0,0.0,0.0,0.0,0.0,0.0,0.0,0.0,0.0,0.0,0.0,0.0,0.0,0.0,0.0,0.0,0.0,0.0,0.0,0.0,0.0,0.0,0.0,0.0,0.0,0.0,0.0,0.0,0.0,-0.1243,-0.1481,-0.1331,-0.1114,-0.0825,-0.0247,0.0429,0.1221,0.1757,0.2422,0.0,0.0,0.0,0.0,0.0,0.0,0.0,0.0,0.0,0.0,0.0,0.0,0.0,0.0,0.0,0.0,0.0,0.0,0.0,0.0,0.0,0.0,0.0,0.0,0.0,0.0,0.0,0.0,0.0,0.0,0.0,0.0,0.0,0.0,0.0,0.0,0.0,0.0,0.0,0.0,0.0,0.6487,0.6511,0.6186,0.621,0.0,0.7199,0.7558,0.8402,0.8992,0.9366,0.933,0.0,0.0,0.0,0.0,0.0,0.0,0.0,0.0,0.0,0.0,0.0,0.0,0.0,0.0,0.0,0.0,0.0,0.0,0.0,0.0,0.0,0.0,0.0,0.0,0.0,0.0,0.0,0.0,0.0,0.0,0.0,0.0,0.0,0.0,0.0,0.0,0.0,0.0,0.0,0.0,0.0,0.0,0.0,0.0,0.0,0.0,0.0,0.0,0.0,0.0,0.0,0.0,0.0,-0.207,-0.1975,-0.2256,-0.2125,-0.1528,-0.0971,-0.0332,0.0382,0.1247,0.2071,0.0,0.0,0.0,0.0,0.0,0.0,0.0,0.0,0.0,0.0,0.0,0.0,0.0,0.0,0.0,0.0,0.0,0.0,0.0,0.0,0.0,0.0,0.0,0.0,0.0,0.0,0.0,0.0,0.6127,0.5992,0.5824,0.0,0.0,0.0,0.0,0.0,0.0,0.0,0.0,0.0,0.0,0.5884,0.6165,0.6013,0.0,0.0,0.685,0.717,0.7782,0.8109,0.8393,0.8655,0.8762,0.0,0.0,0.0,0.0,0.0,0.0,0.0,0.0,0.0,0.0,0.0,0.0,0.0,0.0,0.0,0.0,0.0,0.0,0.0,0.0,0.0,0.0,0.0,0.0,0.0,0.0,0.0,0.0,0.0,0.0,0.0,0.0,0.0,0.0,0.0,0.0,0.0,0.0,0.0,0.0,0.0,0.0,0.0,0.0,0.0,0.0,0.0,0.0,0.0,0.0,0.0,0.0,-0.2895,-0.274,-0.3036,-0.2868,-0.2177,-0.1603,-0.0956,-0.0313,0.064,0.1554,0.0,0.0,0.0,0.0,0.0,0.0,0.0,0.0,0.0,0.0,0.0,0.0,0.0,0.0,0.0,0.0,0.0,0.0,0.0,0.0,0.0,0.0,0.0,0.0,0.0,0.0,0.0,0.0,0.5585,0.5362,0.5059,0.0,0.0,0.0,0.0,0.0,0.0,0.0,0.0,0.0,0.0,0.4829,0.5369,0.5294,0.5344,0.5887,0.6182,0.6585,0.7125,0.7325,0.7585,0.8105,0.0,0.0,0.0,0.0,0.0,0.0,0.0,0.0,0.0,0.0,0.0,0.0,0.0,0.0,0.0,0.0,0.0,0.0,0.0,0.0,0.0,0.0,0.0,0.0,0.0,0.0,0.0,0.1008,0.0,0.0,0.0811,0.0,0.0,0.0,0.0,0.0,0.0,0.0,0.0,0.0,0.0,0.0,0.0,0.0,0.0,0.0,0.0,0.0,0.0,0.0,0.0,0.0,0.0,-0.3701,-0.3943,-0.3602,-0.3205,-0.2778,-0.2065,-0.1407,-0.0799,-0.0015,0.0833,0.1719,0.0,0.0,0.0,0.0,0.0,0.0,0.0,0.0,0.0,0.0,0.0,0.0,0.0,0.0,0.0,0.0,0.0,0.0,0.0,0.0,0.0,0.0,0.0,0.0,0.0,0.0,0.4762,0.4485,0.4229,0.0,0.0,0.0,0.0,0.0,0.0,0.0,0.0,0.0,0.3773,0.3282,0.3117,0.3852,0.3677,0.3812,0.4646,0.514,0.5688,0.6395,0.6792,0.7211,0.0,0.0,0.0,0.0,0.0,0.0,0.0,0.0,0.0,0.0,0.0,0.0,0.0,0.0,0.0,0.0,0.0,0.0,0.0,0.0,0.0,0.0,0.0,0.0,0.0,0.0,0.0,0.0173,0.0295,0.0,0.0,0.0,0.0,0.0,0.0,0.0,0.0,0.0,0.0,0.0,-0.2726,-0.2846,0.0,0.0,0.0,0.0,0.0,0.0,0.0,0.0,0.0,0.0,0.0,0.0,-0.4507,-0.4478,-0.4519,-0.4186,-0.347,-0.2865,-0.2226,-0.154,-0.0634,0.0531,0.1924,0.0,0.0,0.0,0.0,0.0,0.0,0.0,0.0,0.0,0.0,0.0,0.0,0.0,0.0,0.0,0.0,0.0,0.0,0.0,0.0,0.0,0.0,0.0,0.0,0.0,0.4331,0.0,0.0,0.0,0.0,0.0,0.0,0.0,0.0,0.0,0.0,0.0,0.2426,0.2525,0.2381,0.2568,0.3333,0.3274,0.3391,0.0,0.0,0.0,0.0,0.0,0.0,0.0,0.0,0.0,0.0,0.0,0.0,0.0,0.0,0.8768,0.9363,0.9567,0.9761,1.0031,0.0,0.0,0.0,0.0,0.0,0.0,0.0,0.0,0.0,0.0,0.0,0.0,0.0,0.0,-0.0848,-0.0691,-0.0552,0.0,0.0,0.0,0.0,0.0,0.0,0.0,0.0,-0.3276,-0.3726,-0.4118,-0.4262,-0.4498,0.0,-0.5153,-0.4944,0.0,0.0,0.0,0.0,0.0,0.0,0.0,0.0,-0.5316,-0.5126,-0.5259,-0.4951,-0.4198,-0.3617,-0.3049,-0.245,-0.1209,0.021,0.1774,0.2246,0.2686,0.0,0.0,0.0,0.0,0.0,0.0,0.0,0.0,0.0,0.0,0.0,0.0,0.0,0.0,0.0,0.0,0.0,0.0,0.0,0.0,0.0,0.0,0.0,0.3524,0.0,0.0,0.0,0.0,0.0,0.0,0.0,0.0,0.0,0.1556,0.1357,0.127,0.1517,0.142,0.1652,0.2552,0.0,0.0,0.0,0.0,0.0,0.0,0.0,0.5432,0.5654,0.5788,0.5898,0.6014,0.6375,0.6783,0.7185,0.0,0.0,0.8997,0.9276,0.9383,0.9661,0.9445,0.9284,0.9482,0.9124,0.8715,0.0,0.0,0.0,0.0,0.0,0.0,0.0,0.0,-0.2359,-0.2154,0.0,-0.1985,0.0,0.0,0.0,0.0,-0.2876,-0.3357,0.0,0.0,-0.4622,-0.5063,-0.5415,-0.5748,-0.6171,-0.6682,-0.6831,-0.6926,-0.6932,-0.5627,0.0,0.0,0.0,0.0,0.0,0.0,-0.6133,-0.5935,-0.5811,-0.5482,-0.4922,-0.4268,-0.377,-0.343,-0.1761,-0.0201,0.1138,0.1356,0.1868,0.2877,0.2412,0.0,0.0,0.0,0.0,0.0,0.0,0.0,0.0,0.0,0.0,0.0,0.0,0.0,0.0,0.0,0.0,0.0,0.0,0.0,0.0,0.287,0.0,0.0,0.0,0.0,0.0,0.0,0.0,0.0,0.0,0.0365,0.0929,0.0224,-0.0088,0.0737,0.0,0.0,0.0,0.0,0.2005,0.284,0.3307,0.3743,0.4274,0.4414,0.4683,0.5333,0.0,0.0,0.5889,0.6058,0.6203,0.6596,0.6506,0.6917,0.8372,0.8607,0.8697,0.8745,0.8285,0.7947,0.8076,0.7739,0.7344,-0.6401,0.0,0.0,0.0,0.0,-0.4293,-0.4047,-0.384,-0.3458,-0.3291,-0.3282,-0.3081,0.0,0.0,0.0,0.0,0.0,0.0,-0.5326,-0.544,-0.6314,-0.7018,-0.7521,-0.7742,-0.8175,-0.8722,-0.8701,-0.8511,-0.8217,-0.808,-0.7366,-0.6113,0.0,0.0,0.0,0.0,-0.681,-0.6613,-0.6475,-0.6086,-0.5427,-0.4729,-0.3992,-0.3173,-0.2133,-0.121,-0.0436,0.0617,0.1283,0.1497,0.1981,0.0,0.0,0.0,0.0,0.0,0.0,0.0,0.0,0.0,0.0,0.0,0.0,0.0,0.0,0.0,0.0,0.0,0.0,0.0,0.2213,0.1696,0.1308,0.0,0.0,0.0,0.0,0.0,0.0,0.0,0.0,0.0,-0.0522,-0.0372,-0.027,0.0,0.0,0.0204,0.0778,0.1083,0.1458,0.1987,0.2364,0.0,0.3193,0.3472,0.3782,0.4143,0.4012,0.4003,0.4401,0.4317,0.4294,0.456,0.4861,0.5325,0.5985,0.6647,0.7186,0.7653,0.7205,0.6775,0.709,0.7023,0.6861,-0.8757,-0.7735,-0.7003,-0.6458,-0.6089,-0.5905,-0.5672,-0.5396,-0.5078,-0.494,-0.4946,-0.468,-0.4842,-0.5314,-0.5152,0.0,0.0,0.0,-0.692,-0.7344,-0.8084,-0.8706,-0.9197,-0.9484,-0.9836,-1.0231,-1.0231,-1.0123,-0.9929,-1.004,-0.9582,-0.8613,0.0,-0.7736,-0.7992,-0.8057,-0.7908,-0.7627,-0.7532,-0.706,-0.6182,-0.5265,-0.4309,-0.3339,-0.2723,-0.2051,-0.1328,-0.0454,0.025,0.0721,0.1248,0.1605,0.0,0.0,0.0,0.0,0.0,0.0,0.0,0.0,0.0,0.0,0.0,0.3152,0.2904,0.0,0.0,0.0,0.1703,0.138,0.1081,0.0508,0.0,0.0,0.0,0.0,0.0,0.0,0.0,-0.1371,-0.1517,-0.1572,-0.1396,-0.098,-0.0671,-0.0566,-0.0369,-0.0149,0.0112,0.0,0.1073,0.1239,0.173,0.2161,0.2406,0.2471,0.258,0.2764,0.2884,0.3002,0.3171,0.3101,0.31,0.3222,0.3472,0.3803,0.4107,0.4476,0.5158,0.6397,0.6072,0.5631,0.5907,0.5844,0.5739,-1.0915,-1.0678,-0.8948,-0.7945,-0.752,-0.7579,-0.7369,-0.7006,-0.6957,-0.6884,-0.6745,-0.6515,-0.6439,-0.6482,-0.6554,0.0,-0.7523,-0.7854,-0.8514,-0.943,-0.9847,-1.0238,-1.0541,-1.0933,-1.1205,-1.1389,-1.1517,-1.1686,-1.1853,-1.1546,-1.1453,-1.1482,-1.0028,-0.9389,-0.9584,-0.9507,-0.9229,-0.8742,-0.871,-0.8109,-0.6945,-0.578,-0.4731,-0.3875,-0.3458,-0.2755,-0.1814,-0.1631,-0.0991,0.0252,0.0378,0.0776,0.1577,0.0,0.0,0.0,0.0,0.0,0.0,0.0,0.0,0.0,0.0,0.0,0.0,0.0,0.0,0.0,0.0408,0.0,-0.0246,-0.0668,0.0,0.0,0.0,-0.1863,-0.2183,-0.2218,-0.2245,-0.2231,0.0,0.0,-0.1913,-0.1632,-0.1263,-0.0816,-0.0701,-0.0607,-0.044,0.0225,0.0704,0.0494,0.1161,0.1706,0.1667,0.1484,0.1378,0.1464,0.1833,0.214,0.217,0.2215,0.2315,0.234,0.234,0.2396,0.2535,0.2473,0.2833,0.48,0.4764,0.4455,0.4536,0.437,0.4332,-1.1807,-1.1872,-1.127,-1.0359,-0.9275,-0.9298,-0.912,-0.8759,-0.8403,-0.8205,-0.809,-0.7596,-0.7593,-0.7977,-0.811,-0.8541,-0.9225,-0.9612,-0.9999,-1.0398,-1.1038,-1.1494,-1.1775,-1.2028,-1.2441,-1.2895,-1.2586,-1.2455,-1.2546,-1.2479,-1.2204,-1.1748,-1.1745,-1.13,-1.043,-1.0155,-0.9725,-0.914,-0.8848,-0.7963,-0.643,-0.5799,-0.5146,-0.4428,-0.3773,-0.332,-0.3052,-0.1964,-0.1294,-0.1076,-0.0201,0.033,0.0355,0.0541,0.0,0.0,0.0,0.0,0.0,0.0,0.0,0.0,0.0,0.1331,0.1035,0.0,0.0757,0.0,-0.0644,-0.1342,-0.1665,-0.2064,0.0,0.0,-0.2734,-0.2994,-0.3225,-0.3379,-0.3471,-0.3478,-0.3288,-0.3074,-0.29,-0.2622,-0.2351,-0.208,-0.1566,-0.1126,-0.0816,-0.0689,-0.0536,-0.0489,-0.0059,0.0276,0.0454,0.0676,0.0844,0.0938,0.1017,0.11,0.117,0.0995,0.0932,0.1078,0.0993,0.1062,0.1421,0.1425,0.1666,0.2496,0.2848,0.3072,0.3287,0.3534,0.3718,-1.247,-1.2569,-1.2434,-1.1947,-1.1218,-1.0827,-1.0429,-1.0048,-0.9793,-0.9708,-0.9729,-0.9261,-0.9118,-0.9277,-0.9394,-0.9883,-1.0652,-1.0979,-1.1357,-1.1826,-1.2242,-1.254,-1.2774,-1.2996,-1.3262,-1.3619,-1.3327,-1.3257,-1.3374,-1.3196,-1.2982,-1.2702,-1.2962,-1.2629,-1.1693,-1.1119,-1.0592,-1.0099,-0.9083,-0.8084,-0.7115,-0.6284,-0.5655,-0.519,-0.4551,-0.4023,-0.3656,-0.2751,-0.2098,-0.1732,-0.0891,-0.0418,-0.0411,-0.0266,-0.0316,0.0,0.0,0.0,0.0,0.0,0.0,0.0,0.0,0.0,0.0,0.0,-0.0701,-0.1254,-0.1968,-0.2488,-0.2716,-0.3113,-0.344,-0.3596,-0.3773,-0.3964,-0.4169,-0.4185,-0.4216,-0.4214,-0.3845,-0.357,-0.346,-0.3087,-0.2741,-0.2548,-0.2288,-0.2063,-0.1754,-0.1339,-0.1091,-0.1319,-0.0837,-0.044,-0.0404,-0.0205,-0.0041,-0.0021,0.0042,0.0107,0.015,0.0022,-0.0022,0.0177,0.0134,0.0179,0.0538,0.0718,0.0897,0.1234,0.1682,0.2131,0.2511,0.2871,0.3072,-1.2948,-1.2991,-1.2955,-1.2936,-1.2849,-1.2085,-1.1512,-1.1127,-1.1054,-1.1091,-1.1179,-1.0912,-1.0606,-1.041,-1.0448,-1.0969,-1.1862,-1.2015,-1.2544,-1.3316,-1.3287,-1.3404,-1.3649,-1.375,-1.3834,-1.3863,-1.379,-1.3873,-1.4137,-1.3784,-1.3729,-1.3854,-1.3823,-1.3567,-1.3056,-1.2197,-1.1521,-1.1012,-0.936,-0.8406,-0.8235,-0.701,-0.6231,-0.5987,-0.543,-0.4806,-0.4066,-0.3744,-0.317,-0.2242,-0.1732,-0.1393,-0.1137,-0.1146,-0.1248,0.0,-0.1705,0.0,0.0,0.0,0.0,0.0,0.0,0.0,0.0,-0.1996,-0.2426,-0.2989,-0.3365,-0.356,-0.3589,-0.3951,-0.4329,-0.4613,-0.4666,-0.4741,-0.4946,-0.4806,-0.4695,-0.4704,-0.4136,-0.3798,-0.3892,-0.3369,-0.2928,-0.2888,-0.3033,-0.3139,-0.2985,-0.2097,-0.1561,-0.2044,-0.1374,-0.095,-0.1007,-0.1025,-0.1045,-0.1064,-0.0883,-0.0759,-0.0656,-0.0688,-0.0654,-0.0372,-0.031,-0.0292,-0.0067,0.0202,0.0404,0.0605,0.1009,0.1505,0.2028,0.237,0.2524,-1.3229,-1.3364,-1.3193,-1.3046,-1.2874,-1.2727,-1.2501,-1.2245,-1.1891,-1.1517,-1.1198,-1.1126,-1.1217,-1.1364,-1.0999,-1.1495,-1.2661,-1.2603,-1.3118,-1.4082,-1.3818,-1.3932,-1.4353,-1.3983,-1.3971,-1.4235,-1.3801,-1.3837,-1.4343,-1.4384,-1.4328,-1.4209,-1.4405,-1.4306,-1.3932,0.0,0.0,0.0,-0.9653,-0.8903,-0.8428,-0.7564,-0.6861,-0.6393,-0.581,0.0,-0.5246,-0.4509,-0.3973,-0.3759,-0.2976,0.0,0.0,0.0,0.0,0.0,0.0,0.0,0.0,0.0,0.0,0.0,-0.4377,-0.3941,-0.3328,-0.3528,-0.3868,-0.4295,-0.4397,-0.4467,-0.4517,-0.4708,-0.487,-0.4911,-0.4933,-0.5042,-0.5344,-0.5208,-0.5135,-0.5289,-0.4886,-0.4573,-0.4546,-0.4202,-0.399,-0.4029,-0.3945,-0.397,-0.4262,-0.3376,-0.2766,-0.2639,-0.2194,-0.1859,-0.173,-0.1572,-0.1569,-0.1639,-0.1455,-0.1268,-0.1181,-0.1081,-0.0875,-0.0488,-0.0403,-0.0314,-0.0067,0.0045,0.009,0.0112,0.0516,0.1037,0.1719,0.207,0.2289,-1.3499,-1.3492,-1.3499,-1.3444,0.0,-1.3145,-1.3046,-1.2996,-1.2369,-1.212,-1.2159,-1.2385,-1.265,-1.29,-1.2513,-1.2775,-1.3499,-1.3556,-1.3713,-1.3945,-1.3925,-1.4089,-1.4445,-1.4175,-1.4278,-1.4684,-1.443,-1.4381,-1.4539,-1.4755,-1.4744,-1.4568,-1.4856,-1.4722,-1.4184,-1.3169,-1.2088,-1.0943,-1.0255,-0.967,-0.9177,-0.8407,-0.7686,-0.7072,-0.6655,0.0,0.0,0.0,0.0,0.0,0.0,0.0,0.0,-0.3772,0.0,-0.4075,-0.4029,-0.4075,-0.4286,-0.4471,-0.4814,-0.5344,-0.5619,-0.5399,-0.4603,-0.5005,-0.5246,-0.5157,-0.5319,-0.541,-0.5346,-0.5229,-0.5199,-0.5313,-0.5252,-0.5311,-0.5526,-0.5513,-0.5459,-0.5443,-0.5098,-0.4841,-0.4796,-0.4599,-0.4468,-0.4495,-0.445,-0.444,-0.4517,-0.4009,-0.3447,-0.3149,-0.294,-0.2666,-0.2302,-0.2263,-0.2135,-0.2016,-0.1925,-0.179,-0.1535,-0.1574,-0.1418,-0.0839,-0.0601,-0.0471,-0.0247,-0.018,-0.0135,-0.0022,0.0179,0.0565,0.1173,0.1584,0.1811,-1.3699,-1.3619,-1.3699,-1.3736,-1.3725,-1.3364,-1.3327,-1.3495,-1.2829,0.0,0.0,-1.3681,-1.3991,-1.4191,-1.3942,-1.3915,-1.4111,-1.4289,-1.4183,-1.3877,-1.4015,-1.4238,-1.4486,-1.4468,-1.466,-1.5057,-1.5053,-1.4983,-1.4835,-1.5055,-1.5078,-1.4913,-1.5173,-1.4953,-1.4191,-1.3318,-1.2523,-1.1771,-1.101,-1.0443,-1.0099,-0.9339,-0.8596,-0.7916,-0.7629,-0.7168,-0.6437,-0.6041,-0.5659,-0.531,-0.5058,-0.493,-0.4969,-0.5064,-0.5084,-0.4998,-0.5032,-0.501,-0.499,-0.524,-0.5589,-0.6057,-0.6491,-0.6414,-0.5664,-0.6156,-0.6294,-0.5792,-0.6026,-0.6107,-0.5879,-0.5545,-0.5419,-0.5632,-0.5567,-0.5544,-0.5667,-0.5725,-0.5676,-0.5502,-0.5255,-0.5026,-0.4937,-0.4906,-0.4825,-0.4716,-0.4774,-0.4799,-0.4576,-0.4212,-0.3802,-0.3581,-0.3468,-0.3272,-0.2909,-0.2785,-0.271,-0.2331,-0.2348,-0.2295,-0.1957,-0.1964,-0.1812,-0.1185,-0.091,-0.0694,-0.0448,-0.0381,-0.0314,-0.0112,-0.0022,0.0135,0.062,0.1024,0.1338,-1.3736,-1.3992,-1.3674,-1.3528,-1.351,-1.3309,-1.3394,-1.3686,-1.3617,-1.361,-1.3651,-1.405,-1.4216,-1.4184,-1.3988,-1.4,-1.4169,-1.3923,-1.4203,-1.4865,-1.4623,-1.4785,-1.5223,-1.5069,-1.5111,-1.5304,-1.5014,-1.4995,-1.5293,-1.5449,-1.54,-1.519,-1.5297,-1.501,-1.4345,-1.4302,-1.3939,-1.3216,-1.1752,-1.0981,-1.0925,-1.0142,-0.953,-0.9067,-0.8533,-0.7938,-0.7331,-0.6923,-0.6603,-0.64,-0.6489,-0.6638,-0.6805,-0.6973,-0.6935,-0.6597,-0.6433,-0.6231,-0.6012,-0.5899,-0.6073,-0.6718,-0.7081,-0.7014,-0.6413,-0.6447,-0.6455,-0.6303,-0.6262,-0.6049,-0.5767,-0.5595,-0.5517,-0.5554,-0.5715,-0.5752,-0.5575,-0.5724,-0.5741,-0.5454,-0.5634,-0.5579,-0.5283,-0.5407,-0.5482,-0.533,-0.5146,-0.4978,-0.4874,-0.4433,-0.4095,-0.3984,-0.386,-0.3724,-0.3559,-0.3279,-0.307,-0.2888,-0.2769,-0.2603,-0.2223,-0.2219,-0.2049,-0.1451,-0.1185,-0.0896,-0.0516,-0.0404,-0.0381,-0.0314,-0.0179,0.009,0.0415,0.0707,0.1076,-1.4051,-1.3885,-1.3774,-1.3708,-1.3681,-1.3684,-1.3759,-1.3864,-1.3943,-1.4132,-1.4427,-1.4627,-1.4796,-1.483,-1.4775,-1.4767,-1.4861,-1.4943,-1.508,-1.5213,-1.5167,-1.5214,-1.532,-1.5268,-1.526,-1.5393,-1.5481,-1.5541,-1.5589,-1.5875,-1.5904,-1.5695,-1.5493,-1.5183,-1.4744,-1.4431,-1.4054,-1.3541,-1.2687,-1.2011,-1.1544,-1.1068,-1.0521,-0.9874,-0.9229,-0.8669,-0.8203,-0.7571,-0.723,-0.7249,-0.7249,-0.7303,-0.7529,-0.7717,-0.7606,-0.7099,-0.708,-0.6942,-0.661,-0.6806,-0.7148,-0.7669,-0.7853,-0.7755,-0.7292,-0.7151,-0.6937,-0.6622,-0.6681,-0.6674,-0.6378,-0.6073,-0.5883,-0.5922,-0.5891,-0.5835,-0.5777,-0.577,-0.5718,-0.5509,-0.5585,-0.562,-0.5422,-0.5736,-0.589,-0.5705,-0.5458,-0.5323,-0.5326,-0.4993,-0.4662,-0.4448,-0.4331,-0.4239,-0.4099,-0.389,-0.3664,-0.3504,-0.3423,-0.3145,-0.2719,-0.2645,-0.2467,-0.1952,-0.1548,-0.1166,-0.0807,-0.065,-0.0561,-0.0404,-0.0314,-0.0068,0.0299,0.0792,0.1353,-1.4778,-1.438,-1.4234,-1.4119,-1.4005,-1.4149,-1.4259,-1.4315,-1.4409,-1.4716,-1.5124,-1.5107,-1.5215,-1.541,-1.5409,-1.5401,-1.5456,-1.5749,-1.5726,-1.5411,-1.5576,-1.5603,-1.5443,-1.5524,-1.5535,-1.5609,-1.5963,-1.6038,-1.5865,-1.6154,-1.6196,-1.595,-1.5649,-1.5384,-1.5173,-1.4621,-1.4152,-1.3721,-1.3541,-1.3002,-1.2066,-1.1859,-1.1392,-1.0636,-1.0069,-0.953,-0.9102,-0.8377,-0.8005,-0.802,-0.7904,-0.7897,-0.8089,-0.8318,-0.8184,-0.7695,-0.7714,-0.7577,-0.72,-0.7667,-0.8118,-0.8349,-0.8319,-0.818,-0.7932,-0.7601,-0.7268,-0.6894,-0.6978,-0.703,-0.6792,-0.6403,-0.618,-0.6229,-0.6053,-0.5898,-0.5873,-0.5788,-0.5674,-0.5563,-0.5634,-0.5752,-0.5824,-0.6153,-0.6319,-0.5991,-0.5754,-0.566,-0.5598,-0.5423,-0.5168,-0.4957,-0.4817,-0.4728,-0.4527,-0.438,-0.4196,-0.4015,-0.3819,-0.3461,-0.305,-0.3005,-0.2893,-0.2333,-0.1907,-0.148,-0.1166,-0.0874,-0.0605,-0.0381,-0.0247,-0.0113,0.0438,0.1001,0.1535,-1.6125,-1.626,-1.541,-1.4867,-1.4524,-1.4541,-1.4789,-1.5184,-1.5393,-1.5511,-1.5563,-1.5263,-1.5215,-1.5389,-1.5402,-1.5423,-1.5422,-1.5381,-1.5481,-1.5611,-1.576,-1.5868,-1.587,-1.6138,-1.6206,-1.6066,-1.6265,-1.6245,-1.6066,-1.6108,-1.5893,-1.5551,-1.5723,-1.5666,-1.5398,-1.5389,-1.4972,-1.4063,-1.4225,-1.3687,-1.2519,-1.2308,-1.199,-1.1504,-1.1241,-1.076,-0.9999,-0.9652,-0.9242,-0.8772,-0.8807,-0.8875,-0.8913,-0.9241,-0.926,-0.8837,-0.8665,-0.8341,-0.783,-0.8288,-0.8564,-0.8385,-0.8166,-0.7978,-0.7881,-0.7287,-0.6946,-0.6965,-0.681,-0.6714,-0.668,-0.6304,-0.6065,-0.6142,-0.619,-0.6085,-0.5711,-0.5753,-0.5819,-0.5615,-0.6082,-0.6427,-0.6499,-0.6854,-0.6942,-0.6392,-0.61,-0.5882,-0.5739,-0.5523,-0.5349,-0.5255,-0.5193,-0.5147,-0.5046,-0.4835,-0.4543,-0.417,-0.3801,-0.3448,-0.3121,-0.2941,-0.2806,-0.2513,-0.2288,-0.1906,-0.1301,-0.0897,-0.0583,-0.0202,-0.0023,0.0136,0.0624,0.1053,0.1371,-1.6384,-1.6007,-1.5483,-1.487,-1.4316,-1.4539,-1.4738,-1.4884,-1.5081,-1.532,-1.5498,-1.5361,-1.5319,-1.541,-1.552,-1.5582,-1.5596,-1.5845,-1.5988,-1.609,-1.6265,-1.6313,-1.6215,-1.6216,-1.617,-1.6115,-1.6183,-1.6245,-1.6265,-1.617,-1.5922,-1.559,-1.5604,-1.5534,-1.5383,-1.519,-1.4817,-1.4293,-1.4237,-1.376,-1.2957,-1.2752,-1.2542,-1.2178,-1.1627,-1.1135,-1.0697,-1.0207,-0.9817,-0.9552,-0.9567,-0.9582,-0.9592,-0.976,-0.9591,-0.9067,-0.8931,-0.8774,-0.853,-0.8968,-0.9018,-0.8551,-0.8644,-0.8446,-0.7726,-0.7369,-0.7139,-0.6915,-0.6649,-0.6499,-0.6501,-0.6285,-0.6132,-0.6164,-0.6139,-0.6034,-0.5838,-0.6031,-0.6166,-0.6142,-0.6644,-0.6991,-0.6948,-0.7125,-0.719,-0.6916,-0.6654,-0.6374,-0.625,-0.595,-0.5732,-0.5644,-0.5479,-0.5328,-0.5298,-0.5142,-0.4889,-0.4649,-0.4264,-0.3827,-0.3261,-0.3251,-0.3163,-0.2627,-0.2579,-0.2242,-0.1436,-0.1099,-0.0763,-0.0248,0.0323,0.0562,0.0764,0.1127,0.1444,-1.6997,-1.6241,-1.5699,-1.5142,-1.4664,-1.4847,-1.4943,-1.4988,-1.5207,-1.5409,-1.5582,-1.5506,-1.5486,-1.5499,-1.5637,-1.5692,-1.5754,-1.6188,-1.6386,-1.6414,-1.6607,-1.6628,-1.6476,-1.6278,-1.6183,-1.6183,-1.619,-1.6224,-1.6299,-1.6183,-1.5942,-1.5659,-1.5662,-1.5579,-1.5408,-1.5085,-1.4774,-1.4358,-1.4171,-1.3743,-1.3105,-1.3075,-1.2968,-1.2611,-1.2034,-1.161,-1.1447,-1.0868,-1.0438,-1.0264,-1.0172,-1.006,-1.0004,-0.995,-0.9665,-0.9168,-0.9121,-0.9138,-0.909,-0.9416,-0.9376,-0.888,-0.897,-0.8706,-0.8021,-0.7577,-0.736,-0.7253,-0.6896,-0.6703,-0.6524,-0.6272,-0.6184,-0.6294,-0.6149,-0.6034,-0.6087,-0.6301,-0.6457,-0.6671,-0.708,-0.7414,-0.7358,-0.7362,-0.7361,-0.733,-0.7076,-0.683,-0.6658,-0.6283,-0.5977,-0.6019,-0.5729,-0.5468,-0.5362,-0.5252,-0.514,-0.49,-0.453,-0.4067,-0.3494,-0.3585,-0.3564,-0.3074,-0.3004,-0.2667,-0.195,-0.1501,-0.0856,-0.0159,0.0395,0.0766,0.0803,0.1196,0.146,-1.8333,-1.7664,-1.6441,-1.5968,-1.6136,-1.5732,-1.5765,-1.5968,-1.6187,-1.6201,-1.6004,-1.579,-1.5692,-1.5699,-1.5741,-1.5713,-1.5754,-1.6188,-1.6386,-1.6414,-1.6607,-1.6689,-1.6689,-1.6484,-1.6394,-1.6381,-1.6353,-1.6278,-1.617,-1.6108,-1.5859,-1.5473,-1.5979,-1.6046,-1.5583,-1.5545,-1.5147,-1.4349,-1.4138,-1.368,-1.2939,-1.316,-1.3142,-1.2744,-1.2647,-1.249,-1.2268,-1.1874,-1.1404,-1.0972,-1.0557,-1.0213,-1.0029,-0.9837,-0.9582,-0.9325,-0.946,-0.9495,-0.9338,-0.9512,-0.9499,-0.9205,-0.8715,-0.842,-0.8574,-0.7801,-0.7514,-0.8047,-0.7625,-0.7242,-0.6922,-0.6467,-0.6291,-0.663,-0.6312,-0.6219,-0.6407,-0.6533,-0.6722,-0.7207,-0.7454,-0.7662,-0.7904,-0.7794,-0.7598,-0.7445,-0.7223,-0.7016,-0.6739,-0.6289,-0.6127,-0.6174,-0.5981,-0.5608,-0.531,-0.5365,-0.5184,-0.4954,-0.4738,-0.4231,-0.3963,-0.3741,-0.3631,-0.343,-0.3138,-0.2801,-0.2397,-0.1755,-0.0885,-0.0161,0.0421,0.0744,0.0787,0.1024,0.1313,-1.8072,-1.7367,-1.6697,-1.6201,-1.585,-1.5888,-1.5903,-1.5834,-1.6078,-1.617,-1.6087,-1.5984,-1.5955,-1.5955,-1.6092,-1.5982,-1.5747,-1.6188,-1.6386,-1.6414,-1.6607,-1.6689,-1.6689,-1.6504,-1.6476,-1.6566,-1.6484,-1.636,-1.6278,-1.6162,-1.5942,-1.5683,-1.5919,-1.5856,-1.5518,-1.5389,-1.5087,-1.4568,-1.4249,-1.3786,-1.3228,-1.3313,-1.3239,-1.2968,-1.2795,-1.2513,-1.2166,-1.1989,-1.1682,-1.1214,-1.1027,-1.0773,-1.043,-0.9931,-0.9519,-0.9373,-0.9643,-0.9756,-0.9585,-0.9852,-0.9753,-0.9126,-0.899,-0.8732,-0.8446,-0.8069,-0.7933,-0.8087,-0.7801,-0.7523,-0.7625,-0.7232,-0.7056,-0.7271,-0.7146,-0.7004,-0.7252,-0.7408,-0.7639,-0.7967,-0.8108,-0.8276,-0.8311,-0.8151,-0.7846,-0.7732,-0.7541,-0.7289,-0.6996,-0.665,-0.642,-0.6248,-0.6126,-0.5922,-0.5453,-0.5663,-0.5684,-0.5381,-0.506,-0.4514,-0.4141,-0.403,-0.392,-0.3232,-0.2984,-0.2659,-0.2168,-0.1404,-0.0617,-0.0211,0.0382,0.0678,0.0795,0.1032,0.1323,-1.785,-1.7208,-1.6935,-1.6493,-1.5984,-1.6049,-1.606,-1.5977,-1.6124,-1.6224,-1.6273,-1.6224,-1.6203,-1.6203,-1.6353,-1.6229,-1.5982,-1.6332,-1.6497,-1.6497,-1.662,-1.6669,-1.6587,-1.6463,-1.6463,-1.6566,-1.6484,-1.6381,-1.6278,-1.6079,-1.5831,-1.5625,-1.5795,-1.5805,-1.5575,-1.5333,-1.5076,-1.4828,-1.4373,-1.3952,-1.3683,-1.3654,-1.3557,-1.338,-1.317,-1.2863,-1.2386,-1.2132,-1.1871,-1.157,-1.1392,-1.1074,-1.0556,-1.0106,-0.9691,-0.9478,-0.984,-0.9977,-0.9805,-1.0091,-0.9941,-0.9222,-0.9139,-0.8968,-0.8636,-0.85,-0.8526,-0.8614,-0.8438,-0.8346,-0.8588,-0.8412,-0.8127,-0.7951,-0.7599,-0.7531,-0.7859,-0.7934,-0.8114,-0.8382,-0.8529,-0.8664,-0.8682,-0.8315,-0.8066,-0.7921,-0.7704,-0.7436,-0.716,-0.6891,-0.672,-0.648,-0.6413,-0.6315,-0.6084,-0.6186,-0.6024,-0.5695,-0.5351,-0.4805,-0.434,-0.4275,-0.3898,-0.3165,-0.2639,-0.2315,-0.1778,-0.1028,-0.0559,-0.0191,0.0217,0.0586,0.0773,0.0989,0.1204,-1.7797,-1.7412,-1.72,-1.7009,-1.665,-1.6373,-1.6368,-1.6617,-1.6468,-1.6484,-1.6594,-1.6484,-1.6422,-1.6422,-1.6482,-1.6425,-1.6469,-1.6681,-1.6732,-1.6705,-1.6669,-1.6587,-1.6456,-1.6414,-1.6414,-1.6422,-1.6394,-1.6278,-1.6079,-1.5873,-1.5645,-1.551,-1.576,-1.5908,-1.597,-1.5459,-1.5227,-1.5071,-1.4486,-1.4109,-1.4187,-1.4102,-1.3997,-1.3859,-1.3808,-1.3562,-1.3101,-1.2415,-1.2023,-1.1893,-1.1548,-1.1005,-1.0513,-1.0279,-1.0089,-0.9795,-1.0043,-1.0161,-1.0045,-1.0176,-1.0098,-0.9619,-0.9227,-0.9213,-0.942,-0.9192,-0.9213,-0.9661,-0.9612,-0.9594,-0.9716,-0.9537,-0.9074,-0.8328,-0.7801,-0.7702,-0.8033,-0.8003,-0.8033,-0.8536,-0.8743,-0.8735,-0.8585,-0.8348,-0.8096,-0.7874,-0.7661,-0.7408,-0.7151,-0.6883,-0.6797,-0.6867,-0.6782,-0.663,-0.6667,-0.6684,-0.6324,-0.5956,-0.5571,-0.5124,-0.4587,-0.4342,-0.3807,-0.3121,-0.2459,-0.211,-0.1563,-0.089,-0.0664,-0.0315,0.0098,0.0443,0.0626,0.0789,0.0904,-1.8362,-1.7858,-1.8109,-1.789,-1.7375,-1.7106,-1.7066,-1.7127,-1.6771,-1.6628,-1.6669,-1.6628,-1.6607,-1.6678,-1.688,-1.702,-1.7064,-1.7297,-1.7199,-1.6748,-1.6574,-1.6561,-1.6582,-1.6484,-1.6386,-1.6373,-1.6257,-1.6072,-1.5865,-1.5741,-1.5603,-1.5489,-1.5739,-1.5907,-1.5922,-1.5454,-1.5222,-1.5142,-1.4496,-1.4029,-1.3889,-1.3859,-1.3876,-1.3875,-1.3725,-1.3591,-1.3622,-1.2947,-1.2319,-1.1845,-1.1656,-1.1338,-1.0838,-1.0481,-1.033,-1.0345,-1.0298,-1.0294,-1.0229,-1.0255,-1.0195,-0.9907,-0.9707,-0.9812,-1.0034,-0.9941,-0.9936,-1.0168,-0.9968,-0.9815,-0.9704,-0.9519,-0.931,-0.9165,-0.8841,-0.8557,-0.872,-0.8715,-0.884,-0.9032,-0.8942,-0.874,-0.8529,-0.8316,-0.8025,-0.7702,-0.7525,-0.7393,-0.7151,-0.7007,-0.6832,-0.6787,-0.6812,-0.6863,-0.6802,-0.6713,-0.6439,-0.6046,-0.5673,-0.5216,-0.4746,-0.4097,-0.3585,-0.2968,-0.2343,-0.1844,-0.1305,-0.0913,-0.0704,-0.0342,0.0098,0.0298,0.0403,0.0512,0.065,-1.8342,-1.7728,-1.8141,-1.7931,-1.7375,-1.7282,-1.7229,-1.7123,-1.7005,-1.6937,-1.694,-1.7072,-1.7119,-1.7146,-1.7387,-1.7474,-1.7528,-1.7705,-1.7497,-1.702,-1.6846,-1.6784,-1.6734,-1.6428,-1.6278,-1.6237,-1.6059,-1.5865,-1.5692,-1.5616,-1.5527,-1.5474,-1.5622,-1.5791,-1.5864,-1.5461,-1.5194,-1.5162,-1.4705,-1.4366,-1.4256,-1.4291,-1.433,-1.4322,-1.4195,-1.4026,-1.3899,-1.3331,-1.2725,-1.2062,-1.1711,-1.1375,-1.1008,-1.0651,-1.0467,-1.0482,-1.0477,-1.0348,-1.0231,-1.0333,-1.0285,-1.0079,-1.0016,-1.0089,-1.0238,-1.0322,-1.0322,-1.0272,-1.0155,-0.9964,-0.9789,-0.9733,-0.9645,-0.954,-0.9257,-0.9103,-0.9026,-0.8999,-0.8989,-0.8997,-0.8916,-0.8691,-0.8442,-0.8205,-0.794,-0.7569,-0.7415,-0.7323,-0.7143,-0.7117,-0.6962,-0.686,-0.694,-0.6943,-0.6838,-0.6681,-0.6517,-0.6135,-0.5739,-0.5216,-0.4703,-0.3853,-0.3163,-0.2463,-0.1803,-0.1769,-0.1313,-0.0979,-0.0715,-0.0297,0.0025,0.015,0.0228,0.0285,0.0422,-1.789,-1.7212,-1.7558,-1.7416,-1.6922,-1.7098,-1.711,-1.6924,-1.7172,-1.7323,-1.7379,-1.757,-1.7729,-1.7761,-1.7777,-1.7832,-1.784,-1.7912,-1.778,-1.7505,-1.7394,-1.721,-1.675,-1.6394,-1.6188,-1.6025,-1.5869,-1.5708,-1.5637,-1.5506,-1.541,-1.5424,-1.544,-1.5611,-1.5812,-1.5487,-1.5254,-1.5332,-1.5093,-1.4926,-1.4939,-1.515,-1.5199,-1.5003,-1.4919,-1.4619,-1.4088,-1.3642,-1.3123,-1.2403,-1.1734,-1.1326,-1.1045,-1.0829,-1.0594,-1.0479,-1.0541,-1.0362,-1.0218,-1.0339,-1.0371,-1.004,-1.0054,-1.0104,-1.0322,-1.0412,-1.0413,-1.0426,-1.0367,-1.0263,-1.0143,-1.0106,-0.998,-0.9525,-0.9113,-0.8824,-0.8667,-0.8735,-0.8726,-0.8702,-0.8696,-0.8612,-0.8221,-0.7996,-0.7746,-0.7503,-0.7279,-0.7165,-0.7117,-0.7117,-0.7117,-0.7092,-0.7063,-0.7027,-0.6947,-0.6759,-0.6567,-0.6213,-0.5725,-0.5102,-0.4582,-0.3712,-0.2887,-0.217,-0.1645,-0.1583,-0.141,-0.1069,-0.0799,-0.0501,-0.0276,-0.0101,0.0051,0.0156,0.0344,-1.789,-1.7578,-1.7829,-1.7749,-1.7478,-1.7623,-1.7642,-1.7587,-1.7635,-1.7641,-1.7719,-1.7767,-1.7832,-1.7816,-1.8057,-1.816,-1.8208,-1.8414,-1.8278,-1.7889,-1.7879,-1.7286,-1.663,-1.6506,-1.6261,-1.5902,-1.5861,-1.5721,-1.5472,-1.5431,-1.5417,-1.541,-1.5418,-1.5603,-1.5855,-1.548,-1.54,-1.5563,-1.5215,-1.5028,-1.5035,-1.5102,-1.5074,-1.503,-1.4878,-1.4683,-1.4408,-1.3872,-1.3109,-1.2198,-1.2009,-1.1671,-1.1261,-1.1034,-1.0925,-1.0933,-1.0605,-1.0437,-1.0417,-1.0401,-1.0262,-1.0069,-1.0142,-1.0299,-1.0498,-1.0664,-1.0712,-1.0754,-1.0749,-1.065,-1.0461,-1.0319,-0.9953,-0.9361,-0.8939,-0.8673,-0.8686,-0.8514,-0.8423,-0.8659,-0.8526,-0.8277,-0.8007,-0.7768,-0.7525,-0.7301,-0.7165,-0.7117,-0.7117,-0.7117,-0.7117,-0.7117,-0.7092,-0.7095,-0.7025,-0.6849,-0.659,-0.6232,-0.5655,-0.4899,-0.4346,-0.3676,-0.2912,-0.2201,-0.1876,-0.1742,-0.1469,-0.1157,-0.0909,-0.0707,-0.0455,-0.0227,-0.0051,0.0078,0.037,-1.7566,-1.731,-1.7672,-1.7618,-1.736,-1.7642,-1.7735,-1.7681,-1.7771,-1.7888,-1.8015,-1.8168,-1.8238,-1.8247,-1.843,-1.8495,-1.8527,-1.8709,-1.8502,-1.8048,-1.7682,-1.7153,-1.6647,-1.6557,-1.6311,-1.6047,-1.5941,-1.5775,-1.5614,-1.5483,-1.5417,-1.5425,-1.5436,-1.5584,-1.5785,-1.562,-1.5457,-1.5574,-1.5416,-1.53,-1.5186,-1.5408,-1.5427,-1.5365,-1.5157,-1.4986,-1.4555,-1.3998,-1.3251,-1.2398,-1.2115,-1.1865,-1.137,-1.1101,-1.1066,-1.1143,-1.0772,-1.0582,-1.0577,-1.0486,-1.0388,-1.0284,-1.0304,-1.0441,-1.0669,-1.0834,-1.0896,-1.0882,-1.0896,-1.0787,-1.0599,-1.0342,-1.0011,-0.9638,-0.9071,-0.8756,-0.8799,-0.8488,-0.8431,-0.8526,-0.8403,-0.8069,-0.7794,-0.7595,-0.737,-0.7187,-0.7139,-0.7117,-0.7117,-0.7117,-0.7117,-0.7117,-0.7117,-0.7117,-0.7054,-0.6877,-0.6567,-0.621,-0.593,-0.5091,-0.4226,-0.3656,-0.31,-0.2521,-0.2181,-0.1849,-0.16,-0.1338,-0.1111,-0.0884,-0.0606,-0.038,-0.023,0.0,0.0318,-1.7057,-1.6741,-1.7342,-1.7244,-1.6875,-1.7351,-1.7576,-1.7448,-1.7765,-1.806,-1.8322,-1.8631,-1.867,-1.8766,-1.8694,-1.8788,-1.8734,-1.864,-1.8317,-1.7789,-1.722,-1.6735,-1.6846,-1.6543,-1.6388,-1.6308,-1.6111,-1.603,-1.5914,-1.5644,-1.5477,-1.548,-1.5483,-1.5502,-1.5605,-1.5629,-1.5598,-1.5567,-1.5658,-1.5648,-1.5604,-1.5865,-1.5974,-1.59,-1.5772,-1.5261,-1.4614,-1.4082,-1.3532,-1.2523,-1.2333,-1.202,-1.1521,-1.1206,-1.1101,-1.102,-1.0891,-1.0726,-1.0634,-1.0588,-1.0579,-1.0531,-1.0432,-1.0508,-1.0797,-1.092,-1.0986,-1.0962,-1.0905,-1.0749,-1.0476,-1.0223,-0.9984,-0.9715,-0.9272,-0.8969,-0.8758,-0.8537,-0.8386,-0.8453,-0.8305,-0.7915,-0.768,-0.7484,-0.737,-0.7165,-0.7117,-0.7117,-0.7117,-0.7117,-0.7117,-0.7117,-0.7117,-0.7117,-0.7032,-0.6925,-0.6545,-0.6197,-0.6113,-0.5479,-0.4301,-0.368,-0.3278,-0.2865,-0.2519,-0.2161,-0.1859,-0.1616,-0.134,-0.1061,-0.0783,-0.0581,-0.038,-0.0104,0.0187,-1.6538,-1.6507,-1.7098,-1.7106,-1.6871,-1.748,-1.776,-1.7721,-1.8147,-1.833,-1.8502,-1.8711,-1.8689,-1.8574,-1.872,-1.8712,-1.8542,-1.8285,-1.7778,-1.7048,-1.6418,-1.6462,-1.6771,-1.6743,-1.6632,-1.6514,-1.6616,-1.6528,-1.6279,-1.5987,-1.5756,-1.5569,-1.5559,-1.5506,-1.543,-1.5611,-1.571,-1.5728,-1.5781,-1.5863,-1.5944,-1.6085,-1.6265,-1.6329,-1.6197,-1.5609,-1.484,-1.4567,-1.4046,-1.3321,-1.307,-1.2755,-1.2025,-1.1811,-1.1648,-1.1286,-1.091,-1.07,-1.0626,-1.0621,-1.0602,-1.064,-1.0711,-1.082,-1.0891,-1.1067,-1.1133,-1.1103,-1.0933,-1.0692,-1.0303,-0.9999,-0.9769,-0.9453,-0.92,-0.8949,-0.8711,-0.8406,-0.8351,-0.8388,-0.8074,-0.7683,-0.7768,-0.7367,-0.7231,-0.7139,-0.7117,-0.7117,-0.7117,-0.7117,-0.7117,-0.7117,-0.7117,-0.7098,-0.702,-0.6831,-0.642,-0.6077,-0.5996,-0.5808,-0.4642,-0.4032,-0.3757,-0.3323,-0.2848,-0.2507,-0.2127,-0.1799,-0.1522,-0.1241,-0.0936,-0.0708,-0.0485,-0.021,0.016,-1.6446,-1.6453,-1.6812,-1.6862,-1.683,-1.7407,-1.7755,-1.7832,-1.8081,-1.8333,-1.8458,-1.8512,-1.8489,-1.8512,-1.8612,-1.8589,-1.8372,-1.7865,-1.7234,-1.6652,-1.6249,-1.6353,-1.6617,-1.6844,-1.6844,-1.6814,-1.6859,-1.6718,-1.6436,-1.6166,-1.5854,-1.5644,-1.5631,-1.5604,-1.5506,-1.5652,-1.5671,-1.5625,-1.5741,-1.5826,-1.5829,-1.6085,-1.6312,-1.6541,-1.641,-1.5961,-1.5129,-1.4921,-1.4397,-1.3832,-1.3713,-1.3348,-1.2421,-1.2206,-1.2008,-1.1649,-1.1283,-1.1089,-1.1057,-1.0882,-1.0797,-1.0872,-1.0901,-1.0948,-1.1014,-1.1146,-1.1135,-1.1047,-1.0973,-1.0801,-1.0408,-1.0049,-0.9754,-0.9555,-0.9356,-0.918,-0.891,-0.8586,-0.8406,-0.8431,-0.8071,-0.7786,-0.7591,-0.7323,-0.7187,-0.7117,-0.7117,-0.7117,-0.7117,-0.7117,-0.7117,-0.7117,-0.7117,-0.708,-0.7005,-0.6719,-0.6259,-0.5943,-0.5735,-0.5568,-0.4969,-0.4622,-0.4383,-0.3811,-0.3166,-0.2707,-0.2347,-0.204,-0.1712,-0.1487,-0.1204,-0.0867,-0.0512,-0.0157,0.0265,-1.6448,-1.6301,-1.6509,-1.6624,-1.6728,-1.7206,-1.7555,-1.7717,-1.7756,-1.7963,-1.8288,-1.8149,-1.8234,-1.8404,-1.8418,-1.8372,-1.7949,-1.7478,-1.675,-1.629,-1.633,-1.6441,-1.6624,-1.6858,-1.7085,-1.7258,-1.7045,-1.6792,-1.656,-1.6237,-1.5913,-1.5692,-1.5684,-1.5604,-1.5612,-1.5738,-1.5678,-1.5504,-1.5675,-1.5775,-1.5668,-1.5974,-1.6211,-1.6353,-1.6346,-1.5961,-1.5302,-1.501,-1.4666,-1.3996,-1.4106,-1.3631,-1.2956,-1.2514,-1.231,-1.2031,-1.1698,-1.1534,-1.1413,-1.1207,-1.1048,-1.1214,-1.1081,-1.1009,-1.1073,-1.1062,-1.0968,-1.0875,-1.0781,-1.0752,-1.0609,-1.017,-0.9903,-0.9784,-0.9645,-0.9445,-0.9135,-0.8886,-0.8768,-0.8468,-0.8124,-0.7804,-0.7569,-0.7341,-0.7209,-0.7121,-0.7121,-0.7124,-0.7127,-0.7121,-0.7102,-0.7117,-0.7117,-0.6958,-0.6869,-0.6677,-0.62,-0.5811,-0.5575,-0.5443,-0.5212,-0.4901,-0.4532,-0.4028,-0.3476,-0.2944,-0.2464,-0.206,-0.1809,-0.1662,-0.1323,-0.0877,-0.0467,-0.0079,0.0344,-1.6082,-1.5867,-1.6361,-1.6561,-1.6526,-1.6954,-1.7275,-1.743,-1.7316,-1.7454,-1.7825,-1.7949,-1.8018,-1.8134,-1.8116,-1.7594,-1.6957,-1.6581,-1.6331,-1.6066,-1.6228,-1.6484,-1.6762,-1.6971,-1.7206,-1.7233,-1.7035,-1.6858,-1.6748,-1.6439,-1.6008,-1.58,-1.5734,-1.5571,-1.5383,-1.5498,-1.5558,-1.5325,-1.5558,-1.5765,-1.5765,-1.5829,-1.5879,-1.5991,-1.5991,-1.5642,-1.5064,-1.4783,-1.4502,-1.3968,-1.3956,-1.3843,-1.3528,-1.3166,-1.2734,-1.2231,-1.1906,-1.1762,-1.1691,-1.1431,-1.1341,-1.1419,-1.1293,-1.1039,-1.0964,-1.0904,-1.085,-1.058,-1.0335,-1.0138,-0.9821,-0.9772,-0.9579,-0.9455,-0.9488,-0.9473,-0.918,-0.9132,-0.9044,-0.8695,-0.8227,-0.7817,-0.7686,-0.7479,-0.7288,-0.7181,-0.7151,-0.7158,-0.7168,-0.7129,-0.7112,-0.7105,-0.7117,-0.6914,-0.6723,-0.6504,-0.6175,-0.5745,-0.5526,-0.551,-0.5282,-0.5003,-0.4608,-0.4019,-0.3476,-0.2924,-0.2491,-0.2128,-0.1914,-0.1797,-0.1314,-0.0835,-0.05,-0.0159,0.0375,-1.6133,-1.5916,-1.5977,-1.6094,-1.629,-1.6563,-1.6784,-1.6958,-1.6974,-1.7116,-1.7371,-1.7477,-1.7614,-1.7764,-1.7703,-1.7071,-1.6345,-1.6059,-1.5841,-1.5683,-1.6027,-1.6411,-1.6688,-1.6884,-1.7023,-1.6988,-1.6807,-1.669,-1.6737,-1.64,-1.6011,-1.5682,-1.5527,-1.5282,-1.5061,-1.5087,-1.5061,-1.4958,-1.5279,-1.5451,-1.5295,-1.535,-1.5568,-1.5605,-1.5689,-1.5482,-1.5053,-1.4909,-1.4646,-1.4232,-1.4118,-1.4027,-1.3835,-1.3606,-1.3223,-1.2638,-1.2251,-1.2059,-1.1992,-1.1703,-1.1492,-1.1536,-1.1365,-1.1169,-1.1047,-1.0998,-1.085,-1.058,-1.0216,-0.9969,-0.9871,-0.9677,-0.9529,-0.9455,-0.9533,-0.9493,-0.94,-0.9411,-0.9228,-0.8906,-0.8466,-0.8133,-0.7952,-0.7715,-0.7421,-0.7278,-0.7208,-0.7225,-0.7266,-0.7213,-0.721,-0.7183,-0.7145,-0.6763,-0.6526,-0.6282,-0.5957,-0.5567,-0.5412,-0.5397,-0.5182,-0.4803,-0.4387,-0.3883,-0.3355,-0.2897,-0.2654,-0.2377,-0.2157,-0.1879,-0.1447,-0.1016,-0.0668,-0.0242,0.0352,-1.6158,-1.5922,-1.5576,-1.5639,-1.6008,-1.6138,-1.6325,-1.6508,-1.6619,-1.6862,-1.7078,-1.6965,-1.712,-1.7424,-1.7226,-1.6645,-1.5788,-1.5663,-1.5591,-1.5527,-1.5878,-1.6241,-1.6472,-1.6591,-1.673,-1.6831,-1.6501,-1.6312,-1.6423,-1.617,-1.5832,-1.5552,-1.5244,-1.4985,-1.4835,-1.4848,-1.4478,-1.4519,-1.4914,-1.491,-1.4568,-1.475,-1.5051,-1.5027,-1.5237,-1.507,-1.4676,-1.4598,-1.4382,-1.4088,-1.3968,-1.3895,-1.3708,-1.366,-1.3467,-1.308,-1.271,-1.2565,-1.236,-1.2063,-1.178,-1.1731,-1.1512,-1.134,-1.1071,-1.0924,-1.085,-1.0609,-1.029,-0.9945,-0.9821,-0.9698,-0.9624,-0.9591,-0.9611,-0.9668,-0.9655,-0.9636,-0.9529,-0.9185,-0.8738,-0.8455,-0.8262,-0.7962,-0.7655,-0.7614,-0.757,-0.7553,-0.7563,-0.7428,-0.7382,-0.7339,-0.7146,-0.6664,-0.6336,-0.6032,-0.5635,-0.5167,-0.5135,-0.5161,-0.4836,-0.4477,-0.4116,-0.3851,-0.3371,-0.2966,-0.2776,-0.2575,-0.2273,-0.1934,-0.1585,-0.1121,-0.0519,-0.0054,0.0464,-1.576,-1.5472,-1.5431,-1.5541,-1.5748,-1.578,-1.5951,-1.6212,-1.6221,-1.6521,-1.6823,-1.6609,-1.6725,-1.7028,-1.6736,-1.5916,-1.5329,-1.5354,-1.5539,-1.5486,-1.5857,-1.6172,-1.6507,-1.6593,-1.6494,-1.6478,-1.6265,-1.6224,-1.6123,-1.5784,-1.5588,-1.5419,-1.5134,-1.4873,-1.4464,-1.4646,-1.4735,-1.441,-1.4767,-1.4802,-1.435,-1.4196,-1.4046,-1.3919,-1.3871,-1.3919,-1.3901,-1.3877,-1.3678,-1.3389,-1.3316,-1.3171,-1.2977,-1.2934,-1.291,-1.2886,-1.2905,-1.2929,-1.271,-1.2419,-1.2175,-1.2054,-1.1932,-1.1536,-1.1169,-1.0806,-1.0609,-1.0142,-1.0056,-0.9974,-0.9834,-0.9702,-0.9636,-0.9705,-0.9799,-0.9851,-0.9875,-0.9856,-0.9744,-0.959,-0.9179,-0.8812,-0.8535,-0.8212,-0.7949,-0.7942,-0.7929,-0.7891,-0.7819,-0.7674,-0.7441,-0.7371,-0.7217,-0.6769,-0.6285,-0.5964,-0.5538,-0.4972,-0.4951,-0.5004,-0.4777,-0.4501,-0.4238,-0.3912,-0.3433,-0.3024,-0.2808,-0.2569,-0.2311,-0.1986,-0.1602,-0.0943,-0.0195,0.0222,0.0523,-1.559,-1.5561,-1.5451,-1.5451,-1.552,-1.552,-1.5594,-1.569,-1.5635,-1.5798,-1.6038,-1.5849,-1.592,-1.6118,-1.5772,-1.5253,-1.4794,-1.4977,-1.5079,-1.5231,-1.5541,-1.5832,-1.5896,-1.5961,-1.5967,-1.5896,-1.5713,-1.5536,-1.5512,-1.5547,-1.5445,-1.5205,-1.4877,-1.4529,-1.4187,-1.4341,-1.4155,-1.3927,-1.3933,-1.4088,-1.4136,-1.3913,-1.363,-1.3515,-1.3467,-1.3497,-1.3497,-1.3497,-1.337,-1.3171,-1.3219,-1.3225,-1.3104,-1.3104,-1.3128,-1.2824,-1.3139,-1.3133,-1.2835,-1.2727,-1.2572,-1.2435,-1.2259,-1.1927,-1.1394,-1.1139,-1.0869,-1.0507,-1.0572,-1.04,-1.0109,-1.01,-1.0039,-1.0034,-0.9981,-1.0075,-1.0096,-1.0023,-0.9937,-0.9789,-0.9599,-0.9176,-0.8755,-0.8367,-0.8118,-0.8098,-0.8047,-0.7958,-0.7954,-0.7885,-0.7637,-0.7357,-0.7178,-0.6903,-0.6398,-0.5953,-0.5644,-0.519,-0.5034,-0.5036,-0.4908,-0.4669,-0.4374,-0.4014,-0.3546,-0.3184,-0.287,-0.2539,-0.2206,-0.1912,-0.1617,-0.0922,-0.0224,0.0028,0.0418,-1.5478,-1.5603,-1.5465,-1.541,-1.541,-1.541,-1.5368,-1.5313,-1.5302,-1.5354,-1.5404,-1.5334,-1.5241,-1.5034,-1.4879,-1.4653,-1.4485,-1.4508,-1.4542,-1.4756,-1.5076,-1.5378,-1.5421,-1.5421,-1.5397,-1.532,-1.5291,-1.5202,-1.5177,-1.5119,-1.5008,-1.4886,-1.4561,-1.421,-1.407,-1.4082,-1.4018,-1.3868,-1.3519,-1.364,-1.3889,-1.3711,-1.3469,-1.3368,-1.337,-1.3443,-1.3497,-1.3497,-1.337,-1.3413,-1.3292,-1.3225,-1.3055,-1.3001,-1.2886,-1.2686,-1.2893,-1.3122,-1.3027,-1.301,-1.2907,-1.2666,-1.2393,-1.1954,-1.1653,-1.1639,-1.1406,-1.0746,-1.0878,-1.0684,-1.045,-1.0363,-1.0298,-1.0205,-1.0215,-1.0306,-1.0381,-1.031,-1.0108,-0.9849,-0.9645,-0.9385,-0.8952,-0.8534,-0.8303,-0.825,-0.8153,-0.8076,-0.8041,-0.8027,-0.7651,-0.7305,-0.7017,-0.6842,-0.66,-0.6138,-0.576,-0.545,-0.5288,-0.5112,-0.5014,-0.4775,-0.4484,-0.407,-0.3645,-0.3232,-0.2897,-0.2494,-0.2098,-0.1863,-0.151,-0.0924,-0.0393,-0.0056,0.048,-1.541,-1.5423,-1.541,-1.541,-1.541,-1.541,-1.5277,-1.5174,-1.5426,-1.5354,-1.5187,-1.5246,-1.484,-1.4418,-1.4346,-1.4302,-1.4239,-1.4215,-1.4363,-1.4646,-1.4911,-1.5016,-1.5022,-1.5029,-1.5056,-1.5019,-1.4949,-1.4999,-1.4965,-1.4575,-1.4453,-1.4316,-1.4257,-1.3958,-1.3876,-1.3979,-1.4159,-1.3998,-1.3689,-1.353,-1.3658,-1.3515,-1.3327,-1.3016,-1.308,-1.3249,-1.3472,-1.3497,-1.3588,-1.3691,-1.3389,-1.3123,-1.2953,-1.2759,-1.2516,-1.2393,-1.2661,-1.295,-1.3075,-1.3373,-1.3209,-1.2556,-1.2072,-1.1926,-1.1677,-1.1616,-1.1311,-1.0886,-1.0972,-1.0802,-1.046,-1.0246,-1.0407,-1.0369,-1.039,-1.0424,-1.0517,-1.0586,-1.0354,-0.9966,-0.9691,-0.947,-0.9167,-0.8735,-0.8512,-0.8452,-0.8378,-0.8282,-0.8153,-0.8061,-0.7588,-0.7182,-0.6827,-0.6697,-0.6805,-0.6454,-0.6009,-0.5715,-0.5526,-0.5305,-0.5139,-0.4886,-0.4618,-0.4252,-0.3816,-0.3344,-0.2886,-0.2483,-0.2116,-0.1817,-0.1402,-0.0785,-0.0085,0.0426,0.0941,-1.541,-1.5389,-1.5277,-1.5285,-1.541,-1.541,-1.5277,-1.5125,-1.5064,-1.4838,-1.4538,-1.4555,-1.4347,-1.4058,-1.4104,-1.4112,-1.4057,-1.4165,-1.4251,-1.4333,-1.4486,-1.4482,-1.4461,-1.4487,-1.4453,-1.4311,-1.4406,-1.4382,-1.4064,-1.4067,-1.3819,-1.375,-1.3946,-1.3947,-1.389,-1.3939,-1.4109,-1.4195,-1.3981,-1.3802,-1.3916,-1.3616,-1.3317,-1.3029,-1.288,-1.3152,-1.3424,-1.3472,-1.3654,-1.3697,-1.3389,-1.3147,-1.2905,-1.2589,-1.2273,-1.2124,-1.2549,-1.2927,-1.3167,-1.3583,-1.3632,-1.3331,-1.27,-1.2131,-1.1755,-1.1648,-1.1341,-1.1087,-1.1006,-1.0874,-1.0675,-1.0687,-1.076,-1.0621,-1.0561,-1.0582,-1.0611,-1.068,-1.0468,-1.004,-0.9816,-0.9633,-0.9305,-0.8955,-0.878,-0.8642,-0.8578,-0.8463,-0.8297,-0.8042,-0.7546,-0.719,-0.6874,-0.6723,-0.6836,-0.656,-0.6208,-0.6039,-0.5818,-0.5578,-0.5364,-0.5004,-0.4722,-0.437,-0.3953,-0.3388,-0.2893,-0.2469,-0.2019,-0.1542,-0.1093,-0.0589,0.0113,0.0774,0.1211,-1.5187,-1.5166,-1.5041,-1.5145,-1.5368,-1.5257,-1.5069,-1.4873,-1.4629,-1.4286,-1.389,-1.3916,-1.3849,-1.3809,-1.3764,-1.3849,-1.3806,-1.389,-1.395,-1.4022,-1.4051,-1.3961,-1.3954,-1.3996,-1.4068,-1.3755,-1.39,-1.3977,-1.3783,-1.3761,-1.3621,-1.3548,-1.3646,-1.3821,-1.3771,-1.3884,-1.4018,-1.4174,-1.3977,-1.3861,-1.3948,-1.3711,-1.3366,-1.3167,-1.3141,-1.3509,-1.3847,-1.4046,-1.4118,-1.401,-1.3697,-1.3286,-1.2977,-1.2638,-1.2219,-1.2295,-1.2601,-1.3064,-1.3301,-1.3527,-1.3853,-1.3646,-1.2939,-1.2294,-1.1822,-1.1573,-1.1283,-1.0945,-1.1008,-1.1044,-1.0775,-1.0808,-1.0799,-1.0642,-1.0756,-1.0801,-1.0724,-1.0745,-1.0445,-1.0103,-0.9903,-0.9647,-0.9317,-0.8999,-0.8941,-0.8763,-0.8603,-0.8436,-0.8201,-0.7913,-0.7526,-0.7205,-0.6961,-0.6919,-0.6871,-0.6601,-0.6388,-0.6626,-0.6353,-0.5925,-0.5622,-0.525,-0.4828,-0.4474,-0.4002,-0.3402,-0.2897,-0.2444,-0.1795,-0.1093,-0.0701,-0.0337,0.0057,0.069,0.1077,-1.472,-1.4713,-1.472,-1.495,-1.5277,-1.4915,-1.4629,-1.444,-1.4201,-1.3864,-1.3515,-1.3532,-1.3564,-1.3507,-1.3464,-1.3497,-1.3583,-1.3612,-1.3616,-1.3668,-1.3731,-1.3707,-1.3703,-1.3733,-1.3789,-1.3876,-1.3859,-1.3823,-1.3815,-1.3618,-1.3474,-1.3471,-1.3597,-1.3729,-1.3553,-1.3767,-1.4027,-1.4171,-1.3768,-1.3701,-1.3666,-1.3627,-1.3437,-1.3305,-1.3455,-1.3817,-1.4106,-1.4406,-1.44,-1.4202,-1.3787,-1.3383,-1.3026,-1.2467,-1.2137,-1.2149,-1.2749,-1.3223,-1.3507,-1.3657,-1.3874,-1.3915,-1.3237,-1.2302,-1.1674,-1.1358,-1.1199,-1.0873,-1.082,-1.0776,-1.0726,-1.0707,-1.0715,-1.0756,-1.0862,-1.0894,-1.0802,-1.0822,-1.0556,-1.0244,-0.9925,-0.9607,-0.9272,-0.9032,-0.9045,-0.8921,-0.867,-0.8414,-0.8187,-0.7975,-0.7696,-0.7508,-0.7315,-0.7284,-0.7202,-0.673,-0.6601,-0.6897,-0.6776,-0.6226,-0.5792,-0.5423,-0.5006,-0.4592,-0.4175,-0.3692,-0.3053,-0.2418,-0.175,-0.1105,-0.0479,-0.0085,0.0257,0.0578,0.0998,-1.4377,-1.4482,-1.4349,-1.4538,-1.4887,-1.4783,-1.451,-1.4159,-1.38,-1.3525,-1.3427,-1.3467,-1.3498,-1.3497,-1.3529,-1.3509,-1.3489,-1.3717,-1.3726,-1.3492,-1.3442,-1.3465,-1.3454,-1.3427,-1.3486,-1.357,-1.3538,-1.358,-1.3622,-1.346,-1.331,-1.3277,-1.3415,-1.3408,-1.3535,-1.3746,-1.3987,-1.4028,-1.3996,-1.4028,-1.3973,-1.3823,-1.3594,-1.3339,-1.3575,-1.3751,-1.3986,-1.428,-1.4202,-1.3908,-1.342,-1.3069,-1.2813,-1.2332,-1.2326,-1.254,-1.3086,-1.3631,-1.4093,-1.4432,-1.4588,-1.4212,-1.3444,-1.2528,-1.2114,-1.1458,-1.1122,-1.0864,-1.0803,-1.077,-1.0715,-1.0715,-1.0728,-1.076,-1.0825,-1.0842,-1.0806,-1.0891,-1.0807,-1.0416,-1.0063,-0.9664,-0.9283,-0.9191,-0.9193,-0.9128,-0.8917,-0.8615,-0.8357,-0.8309,-0.8119,-0.7957,-0.7795,-0.7752,-0.7598,-0.7255,-0.7075,-0.7288,-0.6888,-0.6209,-0.5844,-0.5571,-0.505,-0.4581,-0.4297,-0.3985,-0.3141,-0.2337,-0.1776,-0.1148,-0.0687,-0.0171,0.0172,0.0526,0.0925,-1.3935,-1.404,-1.399,-1.4054,-1.423,-1.4314,-1.411,-1.3722,-1.3328,-1.3158,-1.3153,-1.3136,-1.3156,-1.323,-1.331,-1.3395,-1.325,-1.3487,-1.3474,-1.325,-1.3194,-1.3171,-1.3137,-1.3163,-1.3329,-1.34,-1.3418,-1.3441,-1.3671,-1.3436,-1.3321,-1.3292,-1.3214,-1.3303,-1.3431,-1.3567,-1.3739,-1.3762,-1.3754,-1.379,-1.3774,-1.3677,-1.3475,-1.3445,-1.3462,-1.3413,-1.3546,-1.3595,-1.3546,-1.3136,-1.2832,-1.2521,-1.241,-1.2268,-1.235,-1.2741,-1.3443,-1.4085,-1.4756,-1.4852,-1.4863,-1.4675,-1.3581,-1.2767,-1.2332,-1.1746,-1.1423,-1.1177,-1.0994,-1.092,-1.0892,-1.0865,-1.0851,-1.0888,-1.0882,-1.0907,-1.0956,-1.1045,-1.0988,-1.0613,-1.0245,-0.9827,-0.9386,-0.9384,-0.936,-0.9296,-0.9196,-0.8878,-0.8625,-0.8559,-0.8509,-0.8315,-0.8224,-0.8212,-0.8126,-0.793,-0.7786,-0.7741,-0.7091,-0.6319,-0.61,-0.5871,-0.5201,-0.4598,-0.4362,-0.3918,-0.3008,-0.2286,-0.1891,-0.1519,-0.1083,-0.0554,0.0,0.0413,0.0782,-1.3398,-1.344,-1.3603,-1.3589,-1.3476,-1.3646,-1.3455,-1.31,-1.2833,-1.2705,-1.2695,-1.2509,-1.2598,-1.268,-1.2545,-1.2582,-1.2758,-1.2981,-1.2923,-1.2846,-1.2898,-1.2905,-1.2972,-1.3008,-1.3292,-1.3425,-1.343,-1.3379,-1.3807,-1.3571,-1.3452,-1.3425,-1.3298,-1.324,-1.3231,-1.3283,-1.3456,-1.3436,-1.3471,-1.3495,-1.3484,-1.3212,-1.3221,-1.3259,-1.3269,-1.3254,-1.3322,-1.3376,-1.3008,-1.2661,-1.2379,-1.2065,-1.1801,-1.159,-1.2109,-1.281,-1.3744,-1.4509,-1.4984,-1.4928,-1.4692,-1.4337,-1.3554,-1.274,-1.2278,-1.2001,-1.1678,-1.1514,-1.1381,-1.1285,-1.1215,-1.1151,-1.1115,-1.1095,-1.1065,-1.1102,-1.1126,-1.115,-1.1088,-1.0828,-1.0537,-1.0109,-0.9583,-0.946,-0.9515,-0.9469,-0.942,-0.9347,-0.9095,-0.8903,-0.8807,-0.8559,-0.8563,-0.868,-0.8572,-0.8363,-0.8254,-0.8094,-0.7232,-0.6528,-0.6337,-0.5983,-0.5351,-0.4772,-0.4483,-0.3911,-0.3142,-0.2589,-0.2216,-0.1839,-0.1518,-0.0921,-0.0355,0.0119,0.0482,-1.3088,-1.3398,-1.3307,-1.3392,-1.3546,-1.3152,-1.2918,-1.2811,-1.2705,-1.254,-1.2203,-1.2347,-1.2392,-1.2474,-1.2422,-1.2434,-1.249,-1.2535,-1.2543,-1.2565,-1.2661,-1.2915,-1.3025,-1.3033,-1.3374,-1.3453,-1.3403,-1.3303,-1.3848,-1.3711,-1.3376,-1.3231,-1.3128,-1.2983,-1.2953,-1.2983,-1.3109,-1.3215,-1.3261,-1.3303,-1.3262,-1.3111,-1.3161,-1.3212,-1.3117,-1.3049,-1.2938,-1.2902,-1.248,-1.1954,-1.2108,-1.1991,-1.1594,-1.1974,-1.2613,-1.3164,-1.3842,-1.4357,-1.4541,-1.4498,-1.4229,-1.3856,-1.3315,-1.3098,-1.2663,-1.225,-1.1919,-1.1814,-1.1714,-1.1622,-1.1544,-1.1503,-1.1466,-1.1431,-1.138,-1.1298,-1.1342,-1.1317,-1.1253,-1.1049,-1.0723,-1.0295,-0.9762,-0.9606,-0.9647,-0.963,-0.9603,-0.9597,-0.955,-0.9314,-0.9152,-0.8933,-0.8972,-0.913,-0.8882,-0.8668,-0.8594,-0.8353,-0.7438,-0.6614,-0.6185,-0.5764,-0.533,-0.4853,-0.4369,-0.3912,-0.3374,-0.2936,-0.2618,-0.2291,-0.1934,-0.1328,-0.0754,-0.0272,0.0091,-1.2854,-1.3115,-1.3115,-1.3249,-1.3349,-1.2854,-1.2513,-1.2433,-1.2433,-1.2246,-1.2043,-1.2102,-1.2147,-1.2203,-1.2152,-1.2163,-1.2242,-1.2255,-1.2298,-1.2461,-1.2473,-1.2786,-1.294,-1.303,-1.3243,-1.3339,-1.34,-1.3385,-1.3825,-1.3724,-1.3355,-1.2994,-1.2837,-1.2813,-1.2835,-1.2918,-1.2943,-1.3073,-1.3163,-1.3262,-1.3287,-1.3246,-1.3285,-1.3213,-1.3066,-1.2695,-1.2456,-1.2359,-1.1874,-1.1546,-1.187,-1.1853,-1.1735,-1.2318,-1.2849,-1.3354,-1.3708,-1.3965,-1.4045,-1.391,-1.3586,-1.3288,-1.3125,-1.2935,-1.2713,-1.2359,-1.2141,-1.201,-1.1973,-1.1932,-1.1924,-1.1893,-1.1861,-1.1823,-1.167,-1.1541,-1.1523,-1.1501,-1.1355,-1.1181,-1.0827,-1.0392,-1.0093,-0.9926,-0.9788,-0.9734,-0.9721,-0.9721,-0.9717,-0.9637,-0.9516,-0.9336,-0.9456,-0.9576,-0.9284,-0.8962,-0.8793,-0.8381,-0.7494,-0.6733,-0.6131,-0.5561,-0.5095,-0.4621,-0.4151,-0.378,-0.353,-0.3322,-0.3034,-0.2695,-0.2292,-0.1801,-0.119,-0.0581,-0.0307,-1.2726,-1.2769,-1.3009,-1.3079,-1.2966,-1.2561,-1.2246,-1.2,-1.1979,-1.1936,-1.1893,-1.1785,-1.1837,-1.1877,-1.1789,-1.1778,-1.1866,-1.1902,-1.2073,-1.2381,-1.2478,-1.2693,-1.2888,-1.2967,-1.3184,-1.3251,-1.327,-1.3306,-1.3607,-1.3562,-1.3281,-1.2826,-1.2783,-1.2759,-1.2732,-1.2825,-1.279,-1.2707,-1.2973,-1.3206,-1.337,-1.3452,-1.3519,-1.3434,-1.2919,-1.2299,-1.2093,-1.1759,-1.1335,-1.1452,-1.1638,-1.1751,-1.2058,-1.2434,-1.2916,-1.3123,-1.3344,-1.3494,-1.3532,-1.345,-1.3261,-1.3044,-1.2908,-1.2745,-1.255,-1.2414,-1.225,-1.2223,-1.2183,-1.2307,-1.2348,-1.2255,-1.2208,-1.2174,-1.206,-1.1968,-1.1959,-1.1852,-1.1622,-1.1379,-1.0948,-1.0514,-1.0124,-0.994,-0.9788,-0.9788,-0.9788,-0.9788,-0.9822,-0.9822,-0.9717,-0.964,-0.9711,-0.9721,-0.9505,-0.9185,-0.8921,-0.8385,-0.7564,-0.6924,-0.6407,-0.5657,-0.4877,-0.4619,-0.4424,-0.4051,-0.3779,-0.3593,-0.333,-0.2833,-0.2491,-0.2219,-0.1666,-0.1018,-0.0586,-1.2811,-1.3009,-1.3073,-1.2924,-1.2534,-1.2246,-1.2059,-1.1957,-1.1607,-1.1483,-1.1499,-1.1618,-1.1619,-1.1516,-1.1462,-1.1478,-1.1489,-1.1647,-1.1759,-1.2024,-1.2263,-1.264,-1.2853,-1.2922,-1.3145,-1.3375,-1.3366,-1.3199,-1.34,-1.3429,-1.335,-1.3037,-1.2877,-1.271,-1.254,-1.2627,-1.2517,-1.2348,-1.2712,-1.3021,-1.3215,-1.3179,-1.3135,-1.2915,-1.2415,-1.2167,-1.2,-1.1808,-1.1671,-1.174,-1.206,-1.2197,-1.2268,-1.2472,-1.2542,-1.2622,-1.2767,-1.293,-1.3044,-1.3044,-1.2935,-1.2908,-1.2827,-1.2659,-1.2523,-1.2441,-1.2382,-1.2382,-1.2467,-1.2627,-1.2725,-1.2629,-1.2557,-1.2482,-1.2413,-1.2414,-1.2414,-1.2123,-1.1861,-1.1457,-1.1057,-1.0668,-1.0243,-1.0001,-0.9849,-0.9788,-0.9788,-0.9822,-0.9852,-0.9852,-0.9761,-0.9687,-0.9751,-0.9727,-0.9579,-0.9423,-0.918,-0.8601,-0.7808,-0.7232,-0.6622,-0.5786,-0.495,-0.495,-0.479,-0.4383,-0.4075,-0.3937,-0.3609,-0.3085,-0.2745,-0.2499,-0.2099,-0.1512,-0.1019,-1.256,-1.2769,-1.2647,-1.246,-1.2198,-1.1973,-1.1871,-1.178,-1.1462,-1.1289,-1.1311,-1.144,-1.144,-1.1289,-1.1289,-1.1289,-1.131,-1.1456,-1.1712,-1.1953,-1.2242,-1.2604,-1.2779,-1.2886,-1.3102,-1.3344,-1.3326,-1.3247,-1.3295,-1.3243,-1.3209,-1.3052,-1.2815,-1.254,-1.237,-1.2297,-1.2151,-1.202,-1.2454,-1.2717,-1.2985,-1.3117,-1.3067,-1.2802,-1.2399,-1.2151,-1.2005,-1.1873,-1.1742,-1.1862,-1.2164,-1.2307,-1.2344,-1.2413,-1.24,-1.2409,-1.2468,-1.2468,-1.2631,-1.2686,-1.2691,-1.2686,-1.2691,-1.25,-1.2468,-1.2382,-1.2382,-1.2396,-1.2597,-1.2749,-1.2871,-1.2842,-1.2817,-1.2784,-1.2754,-1.2727,-1.2509,-1.2169,-1.1826,-1.1412,-1.1061,-1.0789,-1.0456,-1.0243,-1.0152,-1.0274,-1.0213,-1.0031,-1.0031,-1.0035,-0.9883,-0.9852,-1.0001,-0.9879,-0.9697,-0.9606,-0.9484,-0.8784,-0.8055,-0.6985,-0.6129,-0.5579,-0.5116,-0.5114,-0.4959,-0.465,-0.4376,-0.4225,-0.3857,-0.3362,-0.3054,-0.2808,-0.2376,-0.1975,-0.1544,-1.214,-1.2266,-1.2139,-1.2022,-1.1936,-1.1764,-1.1699,-1.1656,-1.1413,-1.1289,-1.1289,-1.1311,-1.1289,-1.1289,-1.1289,-1.1289,-1.1365,-1.1538,-1.1773,-1.2026,-1.245,-1.2585,-1.2746,-1.2936,-1.3035,-1.3216,-1.3346,-1.3363,-1.3398,-1.3273,-1.3116,-1.2982,-1.2669,-1.2322,-1.2278,-1.2102,-1.1883,-1.1854,-1.2073,-1.2313,-1.274,-1.32,-1.3164,-1.2854,-1.247,-1.2178,-1.2107,-1.2005,-1.1785,-1.1943,-1.2224,-1.2311,-1.2382,-1.2382,-1.2382,-1.2382,-1.2382,-1.2414,-1.2441,-1.2468,-1.2441,-1.2414,-1.2423,-1.2447,-1.2456,-1.2494,-1.2494,-1.2569,-1.2739,-1.2838,-1.2965,-1.3079,-1.3063,-1.3074,-1.3083,-1.2964,-1.2599,-1.2268,-1.1877,-1.1454,-1.1182,-1.091,-1.0759,-1.0547,-1.0516,-1.0668,-1.0637,-1.0486,-1.0365,-1.0365,-1.0308,-1.0334,-1.0456,-1.0274,-1.0001,-0.9849,-0.9788,-0.915,-0.8327,-0.686,-0.5761,-0.5577,-0.5394,-0.521,-0.5025,-0.487,-0.4653,-0.4501,-0.407,-0.3639,-0.3363,-0.3086,-0.2715,-0.2315,-0.2037,-1.193,-1.1866,-1.2176,-1.209,-1.178,-1.1721,-1.1699,-1.1656,-1.1419,-1.1289,-1.1289,-1.1289,-1.1289,-1.1289,-1.1289,-1.1332,-1.1451,-1.1636,-1.169,-1.1832,-1.2271,-1.2427,-1.2557,-1.2781,-1.2805,-1.3055,-1.3337,-1.3346,-1.319,-1.3105,-1.2958,-1.2749,-1.2332,-1.2088,-1.2039,-1.1844,-1.1649,-1.1614,-1.1687,-1.1909,-1.1949,-1.244,-1.3018,-1.294,-1.2875,-1.2583,-1.2399,-1.2362,-1.2393,-1.244,-1.2393,-1.2403,-1.2382,-1.2382,-1.2382,-1.2382,-1.2382,-1.2382,-1.2382,-1.2382,-1.2382,-1.2428,-1.2484,-1.2658,-1.2715,-1.2828,-1.2847,-1.289,-1.3018,-1.3046,-1.3126,-1.3268,-1.3316,-1.3373,-1.338,-1.3054,-1.2694,-1.2419,-1.2118,-1.1756,-1.1454,-1.1303,-1.1182,-1.097,-1.0789,-1.0849,-1.0849,-1.0728,-1.0694,-1.0698,-1.0702,-1.0789,-1.088,-1.0849,-1.0668,-1.0274,-1.0061,-0.942,-0.8599,-0.7286,-0.6342,-0.5945,-0.5763,-0.5517,-0.5394,-0.527,-0.5053,-0.4745,-0.4346,-0.3915,-0.3639,-0.3332,-0.2962,-0.2689,-0.2415]},{"header":{"parameterUnit":"m.s-1","parameterCategory":1,"la1":31.0,"la2":29.5877,"lo1":-88.7671,"lo2":-86.6584,"dy":0.0162,"dx":0.0185,"nx":115,"ny":88,"refTime":"2023-09-19T12:00:00:Z","depth":0,"parameterNumber":3,"parameterNumberName":"V-component_of_WINDS"},"data":[0.0,0.0,0.0,0.0,0.0,0.0,0.0,0.0,0.0,0.0,0.0,0.0,0.0,0.0,0.0,0.0,0.0,0.0,0.0,0.0,0.0,0.0,0.0,0.0,0.0,0.0,0.0,0.0,0.0,0.0,0.0,0.0,0.0,0.0,0.0,0.0,0.0,0.0,0.0,0.0,0.0,0.0,0.0,0.0,0.0,0.0,0.0,0.0,0.0,0.0,0.0,0.0,0.0,0.0,0.0,0.0,0.0,0.0,0.0,0.0,0.0,0.0,0.0,0.0,0.0,0.0,0.0,0.0,0.0,0.0,0.0,0.0,0.0,0.0,0.0,0.0,0.0,0.0,0.0,0.0,0.0,0.0,0.0,0.0,0.0,0.0,0.0,0.0,0.0,0.0,0.0,0.0,0.0,0.0,0.0,0.0,0.0,0.0,0.0,0.0,0.0,0.0,0.0,0.0,0.0,0.0,0.0,0.0,0.0,0.0,0.0,0.0,0.0,0.0,0.0,0.0,0.0,0.0,0.0,0.0,0.0,0.0,0.0,0.0,0.0,0.0,0.0,0.0,0.0,0.0,0.0,0.0,0.0,0.0,0.0,0.0,0.0,0.0,0.0,0.0,0.0,0.0,0.0,0.0,0.0,0.0,0.0,0.0,0.0,0.0,0.0,0.0,0.0,0.0,0.0,0.0,0.0,0.0,0.0,0.0,0.0,0.0,0.0,0.0,0.0,0.0,0.0,0.0,0.0,0.0,0.0,0.0,0.0,0.0,0.0,0.0,0.0,0.0,0.0,0.0,0.0,0.0,0.0,0.0,0.0,0.0,0.0,0.0,0.0,0.0,0.0,0.0,0.0,0.0,0.0,0.0,0.0,0.0,0.0,0.0,0.0,0.0,0.0,0.0,0.0,0.0,0.0,0.0,0.0,0.0,0.0,0.0,0.0,0.0,0.0,0.0,0.0,0.0,0.0,0.0,0.0,0.0,0.0,0.0,0.0,0.0,0.0,0.0,0.0,0.0,0.0,0.0,0.0,0.0,0.0,0.0,0.0,0.0,0.0,0.0,0.0,0.0,0.0,0.0,0.0,0.0,0.0,0.0,0.0,0.0,0.0,0.0,0.0,0.0,0.0,0.0,0.0,0.0,0.0,0.0,0.0,0.0,0.0,0.0,0.0,0.0,0.0,0.0,0.0,0.0,0.0,0.0,0.0,0.0,0.0,0.0,0.0,0.0,0.0,0.0,0.0,0.0,0.0,0.0,0.0,0.0,0.0,0.0,0.0,0.0,0.0,0.0,0.0,0.0,0.0,0.0,0.0,0.0,0.0,0.0,0.0,0.0,0.0,0.0,0.0,0.0,0.0,0.0,0.0,0.0,0.0,0.0,0.0,0.0,0.0,0.0,0.0,0.0,0.0,0.0,0.0,0.0,0.0,0.0,0.0,0.0,0.0,0.0,0.0,0.0,0.0,0.0,0.0,0.0,0.0,0.0,0.0,0.0,0.0,0.0,0.0,0.0,0.0,0.0,0.0,0.0,0.0,0.0,0.0,0.0,0.0,0.0,0.0,0.0,0.0,0.0,0.0,0.0,0.0,0.0,0.0,0.0,0.0,0.0,0.0,0.0,0.0,0.0,0.0,0.0,0.0,0.0,0.0,0.0,0.0,0.0,0.0,0.0,0.0,0.0,0.0,0.0,0.0,0.0,0.0,0.0,0.0,0.0,0.0,0.0,0.0,0.0,0.0,0.0,0.0,0.0,0.0,0.0,0.0,0.0,0.0,0.0,0.0,0.0,0.0,0.0,0.0,0.0,0.0,0.0,0.0,0.0,0.0,0.0,0.0,0.0,0.0,0.0,0.0,0.0,0.0,0.0,0.0,0.0,0.0,0.0,0.0,0.0,0.0,0.0,0.0,0.0,0.0,0.0,0.0,0.0,0.0,0.0,0.0,0.0,0.0,0.0,0.0,0.0,0.0,0.0,0.0,0.0,0.0,0.0,0.0,0.0,0.0,0.0,0.0,0.0,0.0,0.0,0.0,0.0,0.0,0.0,0.0,0.0,0.0,0.0,0.0,0.0,0.0,0.0,0.0,0.0,0.0,0.0,0.0,0.0,0.0,0.0,0.0,0.0,0.0,0.0,0.0,0.0,0.0,0.0,0.0,0.0,0.0,0.0,0.0,0.0,0.0,0.0,0.0,0.0,0.0,0.0,0.0,0.0,0.0,0.0,0.0,0.0,0.0,0.0,0.0,0.0,0.0,0.0,0.0,0.0,0.0,0.0,0.0,0.0,0.0,0.0,0.0,0.0,0.0,0.0,0.0,0.0,0.0,0.0,0.0,0.0,0.0,0.0,0.0,0.0,0.0,0.0,0.0,0.0,0.0,0.0,0.0,0.0,0.0,0.0,0.0,0.0,0.0,0.0,0.0,0.0,0.0,0.0,0.0,0.0,0.0,0.0,0.0,0.0,0.0,0.0,0.0,0.0,0.0,0.0,0.0,0.0,0.0,0.0,0.0,0.0,0.0,0.0,0.0,0.0,0.0,0.0,0.0,0.0,0.0,0.0,0.0,0.0,0.0,0.0,0.0,0.0,0.0,0.0,0.0,0.0,0.0,0.0,0.0,0.0,0.0,0.0,0.0,0.0,0.0,0.0,0.0,0.0,0.0,0.0,0.0,0.0,0.0,0.0,0.0,0.0,0.0,0.0,0.0,0.0,0.0,0.0,0.0,0.0,0.0,0.0,0.0,0.0,0.0,0.0,0.0,0.0,0.0,0.0,0.0,0.0,0.0,0.0,0.0,0.0,0.0,0.0,0.0,0.0,0.0,0.0,0.0,0.0,0.0,0.0,0.0,0.0,0.0,0.0,0.0,0.0,0.0,0.0,0.0,0.0,0.0,0.0,0.0,0.0,0.0,0.0,0.0,0.0,0.0,0.0,0.0,0.0,0.0,0.0,0.0,0.0,0.0,0.0,0.0,0.0,0.0,0.0,0.0,0.0,0.0,0.0,0.0,0.0,0.0,0.0,0.0,0.0,0.0,0.0,0.0,0.0,0.0,0.0,0.0,0.0,0.0,0.0,0.0,0.0,0.0,0.0,0.0,0.0,0.0,0.0,0.0,0.0,0.0,0.0,0.0,0.0,0.0,0.0,0.0,0.0,0.0,0.0,0.0,0.0,0.0,0.0,0.0,0.0,0.0,0.0,0.0,0.0,0.0,0.0,0.0,0.0,0.0,0.0,0.0,0.0,0.0,0.0,0.0,0.0,0.0,0.0,0.0,0.0,0.0,0.0,0.0,0.0,0.0,0.0,0.0,0.0,0.0,0.0,0.0,0.0,0.0,0.0,0.0,0.0,0.0,0.0,0.0,0.0,0.0,0.0,0.0,0.0,0.0,0.0,0.0,0.0,0.0,0.0,0.0,0.0,0.0,0.0,0.0,0.0,0.0,0.0,0.0,0.0,0.0,0.0,0.0,0.0,0.0,0.0,0.0,0.0,0.0,0.0,0.0,0.0,0.0,0.0,0.0,0.0,0.0,0.0,0.0,0.0,0.0,0.0,0.0,0.0,0.0,0.0,0.0,0.0,0.0,0.0,0.0,0.0,0.0,0.0,0.0,0.0,0.0,0.0,0.0,0.0,0.0,0.0,0.0,0.0,0.0,0.0,0.0,0.0,0.0,0.0,0.0,0.0,0.0,0.0,0.0,0.0,0.0,0.0,0.0,0.0,0.0,0.0,0.0,0.0,0.0,0.0,0.0,0.0,0.0,0.0,0.0,0.0,0.0,0.0,0.0,0.0,0.0,0.0,0.0,0.0,0.0,0.0,0.0,0.0,0.0,0.0,0.0,0.0,0.0,0.0,0.0,0.0,0.0,0.0,0.0,0.0,0.0,0.0,0.0,0.0,0.0,0.0,0.0,0.0,0.0,0.0,0.0,0.0,0.0,0.0,0.0,0.0,0.0,0.0,0.0,0.0,0.0,0.0,0.0,0.0,0.0,0.0,0.0,0.0,0.0,0.0,0.0,0.0,0.0,0.0,0.0,0.0,0.0,0.0,0.0,0.0,0.0,0.0,0.0,0.0,0.0,0.0,0.0,0.0,0.0,0.0,0.0,0.0,0.0,0.0,0.0,0.0,0.0,0.0,0.0,0.0,0.0,0.0,0.0,0.0,0.0,0.0,0.0,0.0,0.0,0.0,0.0,0.0,0.0,0.0,0.0,0.0,0.0,0.0,0.0,0.0,0.0,0.0,0.0,0.0,0.0,0.0,0.0,0.0,0.0,0.0,0.9877,0.0,0.0,0.0,0.0,0.0,0.0,0.0,0.0,0.0,0.0,0.0,0.0,0.0,0.0,0.0,0.0,0.0,0.0,0.0,0.0,0.0,0.0,0.0,0.0,0.0,0.0,0.0,0.0,0.0,0.0,0.0,0.0,0.0,0.0,0.0,0.0,0.0,0.0,0.0,0.0,0.0,0.0,0.0,0.0,0.0,0.0,0.0,0.0,0.0,0.0,0.0,0.0,0.0,0.0,0.0,0.0,0.0,0.0,0.0,0.0,0.0,0.0,0.0,0.0,0.0,0.0,0.0,0.0,0.0,0.0,0.0,0.0,0.0,0.0,0.0,0.0,0.0,0.0,0.0,0.0,0.0,0.0,0.0,0.0,0.0,0.0,0.0,0.0,0.0,0.0,0.0,0.0,0.0,0.0,0.0,0.0,0.0,0.0,0.0,0.0,0.0,0.0,0.0,0.0,0.0,0.0,0.0,0.0,0.0,0.0,1.0251,1.0292,1.0383,1.0456,1.0546,0.0,0.0,0.0,0.0,0.0,0.0,0.0,0.0,0.0,0.0,0.0,0.0,0.0,0.0,0.0,0.0,0.0,0.0,0.0,0.0,0.0,0.0,0.0,0.0,0.0,0.0,0.0,0.0,0.0,0.0,0.0,0.0,0.0,0.0,0.0,0.0,0.0,0.0,0.0,0.0,0.0,0.0,0.0,0.0,0.0,0.0,0.0,0.0,0.0,0.0,0.0,0.0,0.0,0.0,0.0,0.0,0.0,0.0,0.0,0.0,0.0,0.0,0.0,0.0,0.0,0.0,0.0,0.0,0.0,0.0,0.0,0.0,0.0,0.0,0.0,0.0,0.0,0.0,0.0,0.0,0.0,0.0,0.0,0.0,0.0,0.0,0.0,0.0,0.0,0.0,0.0,0.0,0.0,0.0,0.0,0.0,0.0,0.0,0.0,0.0,0.0,0.0,0.0,0.0,0.0,0.0,0.0,0.0,0.0,0.0,0.0,0.0,1.1253,1.133,1.1382,0.0,0.0,0.0,0.0,0.0,0.0,0.0,0.0,0.0,0.0,0.0,0.0,0.0,0.0,0.0,0.0,0.0,0.0,0.0,0.0,0.0,0.0,0.0,0.0,0.0,0.0,0.0,0.0,0.0,0.0,0.0,0.0,0.0,0.0,0.0,0.0,0.0,0.0,0.0,0.0,0.0,0.0,0.0,0.0,0.0,0.0,0.0,0.0,0.0,0.0,0.0,0.0,0.0,0.0,0.0,0.0,0.0,0.0,0.0,0.0,0.0,0.0,0.0,0.0,0.0,0.0,0.0,0.0,0.0,0.0,0.0,0.0,0.0,0.0,0.0,0.0,0.0,0.0,0.0,0.0,0.0,0.0,0.0,0.0,0.0,0.0,0.0,0.0,0.0,0.0,0.0,0.0,0.0,0.0,0.0,0.0,0.0,0.0,0.0,0.0,0.0,0.0,0.0,0.0,0.0,0.0,0.0,0.0,0.0,0.0,1.202,1.2071,1.2134,0.0,1.2269,0.0,0.0,0.0,0.0,0.0,0.0,0.0,0.0,0.0,0.0,0.0,0.0,0.0,0.0,0.0,0.0,0.0,0.0,0.0,0.0,0.0,0.0,0.0,0.0,0.0,0.0,0.0,0.0,0.0,0.0,0.0,0.0,0.0,0.0,0.0,0.0,0.0,0.0,0.0,0.0,0.0,0.0,0.0,0.0,0.0,0.0,0.0,0.0,0.0,0.0,0.0,0.0,0.0,0.0,0.0,0.0,0.0,0.0,0.0,0.0,0.0,0.0,0.0,0.0,0.0,0.0,0.0,0.0,0.0,0.0,0.0,0.0,0.0,0.0,0.0,0.0,0.0,0.0,0.0,0.0,0.0,0.0,0.0,0.0,0.0,0.0,0.0,0.0,0.0,0.0,0.0,0.0,0.0,0.0,0.0,0.0,0.0,0.0,0.0,0.0,0.0,0.0,0.0,0.0,0.0,0.0,0.0,0.0,0.0,0.0,1.2905,1.2956,1.3023,1.2861,0.0,0.0,0.0,0.0,0.0,0.0,0.0,0.0,0.0,0.0,0.0,0.0,0.0,0.0,0.0,0.0,0.0,0.0,0.0,0.0,0.0,0.0,0.0,0.0,0.0,0.0,0.0,0.0,0.0,0.0,0.0,0.0,0.0,0.0,0.0,0.0,0.0,0.0,0.0,0.0,0.0,0.0,0.0,0.0,0.0,0.0,0.0,0.0,0.0,0.0,0.0,0.0,0.0,0.0,0.0,0.0,0.0,0.0,0.0,0.0,0.0,0.0,0.0,0.0,0.0,0.0,0.0,0.0,0.0,0.0,0.0,0.0,0.0,0.0,0.0,0.0,0.0,0.0,0.0,0.0,0.0,0.0,0.0,0.0,0.0,0.0,0.0,0.0,0.0,0.0,0.0,0.0,0.0,0.0,0.0,0.0,0.0,0.0,0.0,0.0,0.0,0.0,0.0,0.0,0.0,0.0,0.0,0.0,0.0,0.0,1.3315,1.3788,1.3873,1.3923,1.3695,1.3108,0.0,0.0,0.0,0.0,0.0,0.0,0.0,0.0,0.0,0.0,0.0,0.0,0.0,0.0,0.0,0.0,0.0,0.0,0.0,0.0,0.0,0.0,0.0,0.0,0.0,0.0,0.0,0.0,0.0,0.0,0.0,0.0,0.0,0.0,0.0,0.0,0.0,0.0,0.0,0.0,0.0,0.0,0.0,0.0,0.0,0.0,0.0,0.0,0.0,0.0,0.0,0.0,0.0,0.0,0.0,0.0,0.0,0.0,0.0,0.0,0.0,0.0,0.0,0.0,0.0,0.0,0.0,0.0,0.0,0.0,0.0,0.0,0.0,0.0,0.0,0.0,0.0,0.0,0.0,0.0,0.0,0.0,0.0,0.0,0.0,0.0,0.0,0.0,0.0,0.0,0.0,0.0,0.0,0.0,0.0,0.0,0.0,0.0,0.0,0.0,0.0,0.0,0.0,0.0,0.0,0.0,0.0,0.0,1.346,1.4213,1.4671,1.4726,1.481,1.4838,0.0,0.0,0.0,0.0,0.0,0.0,0.0,0.0,0.0,0.0,0.0,0.0,0.0,0.0,0.0,0.0,0.0,0.0,0.0,0.0,0.0,0.0,0.0,0.0,0.0,0.0,0.0,0.0,0.0,0.0,0.0,0.0,0.0,0.0,0.0,0.0,0.0,0.0,0.0,0.0,0.0,0.0,0.0,0.0,0.0,0.0,0.0,0.0,0.0,0.0,0.0,0.0,0.0,0.0,0.0,0.0,0.0,0.0,0.0,0.0,0.0,0.0,0.0,0.0,0.0,0.0,0.0,0.0,0.0,0.0,0.0,0.0,0.0,0.0,0.0,0.0,0.0,0.0,0.0,0.0,0.0,0.0,0.0,0.0,0.0,0.0,0.0,0.0,0.0,0.0,0.0,0.0,0.0,0.0,0.0,0.0,0.0,0.0,0.0,0.0,0.0,0.0,0.0,0.0,0.0,0.0,0.0,0.0,0.0,1.4231,1.4593,1.4765,1.4806,1.4811,1.4841,0.0,0.0,0.0,0.0,0.0,0.0,0.0,0.0,0.0,0.0,0.0,0.0,0.0,0.0,0.0,0.0,0.0,0.0,0.0,0.0,0.0,0.0,0.0,0.0,0.0,0.0,0.0,0.0,0.0,0.0,0.0,0.0,0.0,0.0,0.0,0.0,0.0,0.0,0.0,0.0,0.0,0.0,0.0,0.0,0.0,0.0,0.0,0.0,0.0,0.0,0.0,0.0,0.0,0.0,0.0,0.0,0.0,0.0,0.0,0.0,0.0,0.0,0.0,0.0,0.0,0.0,0.0,0.0,0.0,0.0,0.0,0.0,0.0,0.0,0.0,0.0,0.0,0.0,0.0,0.0,0.0,0.0,0.0,0.0,0.0,0.0,0.0,0.0,0.0,0.0,0.0,0.0,0.0,0.0,0.0,0.0,0.0,0.0,0.0,0.0,0.0,0.0,0.0,0.0,0.0,0.0,0.0,0.0,0.0,1.5498,0.0,1.5649,1.5642,1.5642,1.5513,0.0,0.0,0.0,0.0,0.0,0.0,0.0,0.0,0.0,0.0,0.0,0.0,0.0,0.0,0.0,0.0,0.0,0.0,0.0,0.0,0.0,0.0,0.0,0.0,0.0,0.0,0.0,0.0,0.0,0.0,0.0,0.0,0.0,0.0,0.0,0.0,0.0,0.0,0.0,0.0,0.0,0.0,0.0,0.0,0.0,0.0,0.0,0.0,0.0,0.0,0.0,0.0,0.0,0.0,0.0,0.0,0.0,0.0,0.0,0.0,0.0,0.0,0.0,0.0,0.0,0.0,0.0,0.0,0.0,0.0,0.0,0.0,0.0,0.0,0.0,0.0,0.0,0.0,0.0,0.0,0.0,0.0,0.0,0.0,0.0,0.0,0.0,0.0,0.0,0.0,0.0,0.0,0.0,0.0,0.0,0.0,0.0,0.0,0.0,0.0,0.0,0.0,0.0,0.0,0.0,0.0,0.0,0.0,1.6378,1.723,1.7303,1.7294,1.7369,1.731,1.6991,0.0,0.0,0.0,0.0,0.0,0.0,0.0,0.0,0.0,0.0,0.0,0.0,0.0,0.0,0.0,0.0,0.0,0.0,0.0,0.0,0.0,0.0,0.0,0.0,0.0,0.0,0.0,0.0,0.0,0.0,0.0,0.0,0.0,0.0,0.0,0.0,0.0,0.0,0.0,0.0,0.0,0.0,0.0,0.0,0.0,0.0,0.0,0.0,0.0,0.0,0.0,0.0,0.0,0.0,0.0,0.0,0.0,0.0,0.0,0.0,0.0,0.0,0.0,0.0,0.0,0.0,0.0,0.0,0.0,0.0,0.0,0.0,0.0,0.0,0.0,0.0,0.0,0.0,0.0,0.0,0.0,0.0,0.0,0.0,0.0,0.0,0.0,0.0,0.0,0.0,0.0,0.0,0.0,0.0,0.0,0.0,0.0,0.0,0.0,0.0,0.0,0.0,0.0,0.0,0.0,0.0,0.0,0.0,0.0,1.7384,1.7399,1.7398,1.7401,1.7403,1.729,0.0,0.0,0.0,0.0,0.0,0.0,0.0,0.0,0.0,0.0,0.0,0.0,0.0,0.0,0.0,0.0,0.0,0.0,0.0,0.0,0.0,0.0,0.0,0.0,0.0,0.0,0.0,0.0,0.0,0.0,0.0,0.0,0.0,0.0,0.0,0.0,0.0,0.0,0.0,0.0,0.0,0.0,0.0,0.0,0.0,0.0,0.0,0.0,0.0,0.0,0.0,0.0,0.0,0.0,0.0,0.0,0.0,0.0,0.0,0.0,0.0,0.0,0.0,0.0,0.0,0.0,0.0,0.0,0.0,0.0,0.0,0.0,0.0,0.0,0.0,0.0,0.0,0.0,0.0,0.0,0.0,0.0,0.0,0.0,0.0,0.0,0.0,0.0,0.0,0.0,0.0,0.0,0.0,0.0,0.0,0.0,0.0,0.0,0.0,0.0,0.0,0.0,0.0,0.0,0.0,0.0,0.0,0.0,0.0,1.944,1.9361,1.9199,1.8881,1.8855,1.8707,1.8362,0.0,0.0,0.0,0.0,0.0,0.0,0.0,0.0,0.0,0.0,0.0,0.0,0.0,0.0,0.0,0.0,0.0,0.0,0.0,0.0,0.0,0.0,0.0,0.0,0.0,0.0,0.0,0.0,0.0,0.0,0.0,0.0,0.0,0.0,0.0,0.0,0.0,0.0,0.0,0.0,0.0,0.0,0.0,0.0,0.0,0.0,0.0,0.0,0.0,0.0,0.0,0.0,0.0,0.0,0.0,0.0,0.0,0.0,0.0,0.0,0.0,0.0,0.0,0.0,0.0,0.0,0.0,0.0,0.0,0.0,0.0,0.0,0.0,0.0,0.0,0.0,0.0,0.0,0.0,0.0,0.0,0.0,0.0,0.0,0.0,0.0,0.0,0.0,0.0,0.0,0.0,0.0,0.0,0.0,0.0,0.0,0.0,0.0,0.0,0.0,0.0,0.0,0.0,0.0,0.0,0.0,0.0,0.0,2.2861,2.2889,2.2421,2.1476,2.1386,2.098,0.0,0.0,0.0,0.0,0.0,0.0,0.0,0.0,0.0,0.0,0.0,0.0,0.0,0.0,0.0,0.0,0.0,0.0,0.0,0.0,0.0,0.0,0.0,0.0,0.0,0.0,0.0,0.0,0.0,0.0,0.0,0.0,0.0,0.0,0.0,0.0,0.0,0.0,0.0,0.0,0.0,0.0,0.0,0.0,0.0,0.0,0.0,0.0,0.0,0.0,0.0,0.0,0.0,0.0,0.0,0.0,0.0,0.0,0.0,0.0,0.0,0.0,0.0,0.0,0.0,0.0,0.0,0.0,0.0,0.0,0.0,0.0,0.0,0.0,0.0,0.0,0.0,0.0,0.0,0.0,0.0,0.0,0.0,0.0,0.0,0.0,0.0,0.0,0.0,0.0,0.0,0.0,0.0,0.0,0.0,0.0,0.0,0.0,0.0,0.0,0.0,0.0,0.0,0.0,0.0,0.0,0.0,0.0,0.0,2.4743,2.5938,2.5258,2.2571,2.2368,2.1926,0.0,0.0,0.0,0.0,0.0,0.0,0.0,0.0,0.0,0.0,0.0,0.0,0.0,0.0,0.0,0.0,0.0,0.0,0.0,0.0,0.0,0.0,0.0,0.0,0.0,0.0,0.0,0.0,0.0,0.0,0.0,0.0,0.0,0.0,0.0,0.0,0.0,0.0,0.0,0.0,0.0,0.0,0.0,0.0,0.0,0.0,0.0,0.0,0.0,0.0,0.0,0.0,0.0,0.0,0.0,0.0,0.0,0.0,0.0,0.0,0.0,0.0,0.0,0.0,0.0,0.0,0.0,0.0,0.0,0.0,0.0,0.0,0.0,0.0,0.0,0.0,0.0,0.0,0.0,0.0,0.0,0.0,0.0,0.0,0.0,0.0,0.0,0.0,0.0,0.0,0.0,0.0,0.0,0.0,0.0,0.0,0.0,0.0,0.0,0.0,0.0,0.0,0.0,0.0,0.0,0.0,0.0,0.0,2.576,2.551,2.7878,2.7663,2.461,2.4077,2.3234,0.0,0.0,0.0,0.0,0.0,0.0,0.0,0.0,0.0,0.0,0.0,0.0,0.0,0.0,0.0,0.0,0.0,0.0,0.0,0.0,0.0,0.0,0.0,0.0,0.0,0.0,0.0,0.0,0.0,0.0,0.0,0.0,0.0,0.0,0.0,0.0,0.0,0.0,0.0,0.0,0.0,0.0,0.0,0.0,0.0,0.0,0.0,0.0,0.0,0.0,0.0,0.0,0.0,0.0,0.0,0.0,0.0,0.0,0.0,0.0,0.0,0.0,0.0,0.0,0.0,0.0,0.0,0.0,0.0,0.0,0.0,0.0,0.0,0.0,0.0,0.0,0.0,0.0,0.0,0.0,0.0,0.0,0.0,0.0,0.0,0.0,0.0,0.0,0.0,0.0,0.0,0.0,0.0,0.0,0.0,0.0,0.0,0.0,0.0,0.0,0.0,0.0,0.0,0.0,0.0,0.0,0.0,0.0,2.6524,2.5934,2.9041,2.9552,2.7119,2.6074,2.4696,0.0,0.0,0.0,0.0,0.0,0.0,0.0,0.0,0.0,0.0,0.0,0.0,0.0,0.0,0.0,0.0,0.0,0.0,0.0,0.0,0.0,0.0,0.0,0.0,0.0,0.0,0.0,0.0,0.0,0.0,0.0,0.0,0.0,0.0,0.0,0.0,0.0,0.0,0.0,0.0,0.0,0.0,0.0,0.0,0.0,0.0,0.0,0.0,0.0,0.0,0.0,0.0,0.0,0.0,0.0,0.0,0.0,0.0,0.0,0.0,0.0,0.0,0.0,0.0,0.0,0.0,0.0,0.0,0.0,0.0,0.0,0.0,0.0,0.0,0.0,0.0,0.0,0.0,0.0,0.0,0.0,0.0,0.0,0.0,0.0,0.0,0.0,0.0,0.0,0.0,0.0,0.0,0.0,0.0,0.0,0.0,0.0,0.0,0.0,0.0,0.0,0.0,0.0,0.0,0.0,0.0,0.0,0.0,2.7739,2.7683,2.9698,2.9873,2.7971,2.7003,2.566,0.0,0.0,0.0,0.0,0.0,0.0,0.0,0.0,0.0,0.0,0.0,0.0,0.0,0.0,0.0,0.0,0.0,0.0,0.0,0.0,0.0,0.0,0.0,0.0,0.0,0.0,0.0,0.0,0.0,0.0,0.0,0.0,0.0,0.0,0.0,0.0,0.0,0.0,0.0,0.0,0.0,0.0,0.0,0.0,0.0,0.0,0.0,0.0,1.7511,0.0,0.0,0.0,0.0,0.0,0.0,0.0,0.0,0.0,0.0,0.0,0.0,0.0,0.0,0.0,0.0,0.0,0.0,0.0,0.0,0.0,0.0,0.0,0.0,0.0,0.0,0.0,0.0,0.0,0.0,0.0,0.0,0.0,0.0,0.0,0.0,0.0,0.0,0.0,0.0,0.0,0.0,0.0,0.0,0.0,0.0,0.0,0.0,0.0,0.0,0.0,0.0,0.0,0.0,0.0,0.0,0.0,0.0,0.0,2.7968,2.7649,2.9693,3.0173,2.8853,2.7899,2.6181,0.0,0.0,0.0,0.0,0.0,0.0,0.0,0.0,0.0,0.0,0.0,0.0,0.0,0.0,0.0,0.0,0.0,0.0,0.0,0.0,0.0,0.0,0.0,0.0,0.0,0.0,0.0,0.0,0.0,0.0,0.0,0.0,0.0,0.0,0.0,0.0,0.0,0.0,0.0,0.0,0.0,0.0,0.0,0.0,0.0,0.0,0.0,0.0,0.0,0.0,0.0,0.0,0.0,0.0,0.0,0.0,0.0,0.0,0.0,0.0,0.0,0.0,0.0,0.0,0.0,0.0,0.0,0.0,0.0,0.0,0.0,0.0,0.0,0.0,0.0,0.0,0.0,0.0,0.0,0.0,0.0,0.0,0.0,0.0,0.0,0.0,0.0,0.0,0.0,0.0,0.0,0.0,0.0,0.0,0.0,0.0,0.0,0.0,0.0,0.0,0.0,0.0,0.0,0.0,0.0,0.0,0.0,2.6612,2.7853,2.7219,2.9525,3.0271,2.9144,2.8443,2.65,2.3153,0.0,0.0,0.0,0.0,0.0,0.0,0.0,0.0,0.0,0.0,0.0,0.0,0.0,0.0,0.0,0.0,0.0,0.0,0.0,0.0,0.0,0.0,0.0,0.0,0.0,0.0,0.0,0.0,0.0,0.0,0.0,0.0,0.0,0.0,0.0,0.0,0.0,0.0,1.5532,1.68,0.0,0.0,0.0,0.0,0.0,0.0,0.0,0.0,1.8617,0.0,0.0,0.0,0.0,0.0,0.0,0.0,0.0,0.0,0.0,0.0,0.0,0.0,0.0,0.0,0.0,0.0,0.0,0.0,0.0,0.0,0.0,0.0,0.0,0.0,0.0,0.0,0.0,0.0,0.0,0.0,0.0,0.0,0.0,0.0,0.0,0.0,0.0,0.0,0.0,0.0,0.0,0.0,0.0,0.0,0.0,0.0,0.0,0.0,0.0,0.0,0.0,0.0,0.0,0.0,0.0,2.6215,2.7538,2.8126,2.8031,2.9824,2.9706,2.745,2.7825,2.6773,2.4047,0.0,0.0,0.0,0.0,0.0,0.0,0.0,0.0,0.0,0.0,0.0,0.0,0.0,0.0,0.0,0.0,0.0,0.0,0.0,0.0,0.0,0.0,0.0,0.0,0.0,0.0,0.0,0.0,0.0,0.0,0.0,0.0,0.0,0.0,0.0,0.0,0.0,0.0,0.0,1.8928,1.9778,0.0,0.0,0.0,0.0,0.0,0.0,0.0,0.0,1.9805,0.0,0.0,0.0,0.0,0.0,0.0,0.0,0.0,0.0,0.0,0.0,0.0,0.0,0.0,0.0,0.0,0.0,0.0,0.0,0.0,0.0,0.0,0.0,0.0,0.0,0.0,0.0,0.0,0.0,0.0,0.0,0.0,0.0,0.0,0.0,0.0,0.0,0.0,0.0,0.0,0.0,0.0,0.0,0.0,0.0,0.0,0.0,0.0,0.0,0.0,0.0,0.0,0.0,0.0,0.0,2.5574,2.6864,2.7755,2.8259,2.9484,2.9732,2.8891,2.8376,2.7458,0.0,0.0,0.0,0.0,0.0,0.0,0.0,0.0,0.0,0.0,0.0,0.0,0.0,0.0,0.0,0.0,0.0,0.0,0.0,0.0,0.0,0.0,0.0,0.0,0.0,0.0,0.0,0.0,0.0,0.0,0.0,0.0,0.0,0.0,0.0,0.0,0.0,0.0,0.0,0.0,1.981,2.0345,2.1193,0.0,0.0,0.0,0.0,0.0,0.0,2.0919,2.0686,0.0,0.0,0.0,0.0,0.0,0.0,0.0,0.0,0.0,0.0,0.0,0.0,0.0,0.0,0.0,0.0,0.0,0.0,0.0,0.0,0.0,0.0,0.0,0.0,0.0,0.0,0.0,0.0,0.0,0.0,0.0,0.0,0.0,0.0,0.0,0.0,0.0,0.0,0.0,0.0,0.0,0.0,0.0,0.0,0.0,0.0,0.0,0.0,0.0,0.0,0.0,0.0,0.0,0.0,0.0,2.4926,2.6248,2.7383,2.8272,2.8894,2.9451,2.989,2.8562,2.7698,0.0,0.0,0.0,0.0,0.0,0.0,0.0,0.0,0.0,0.0,0.0,0.0,0.0,0.0,0.0,0.0,0.0,0.0,0.0,0.0,0.0,0.0,0.0,0.0,0.0,0.0,0.0,0.0,0.0,0.0,0.0,0.0,0.0,0.0,0.0,0.0,0.0,0.0,0.0,0.0,0.0,2.1029,2.1846,2.1256,0.0,0.0,0.0,0.0,2.1942,2.1949,0.0,0.0,0.0,0.0,0.0,0.0,0.0,0.0,0.0,0.0,0.0,0.0,0.0,0.0,0.0,0.0,0.0,0.0,0.0,0.0,0.0,0.0,0.0,0.0,0.0,0.0,0.0,0.0,0.0,0.0,0.0,0.0,0.0,0.0,0.0,0.0,0.0,0.0,0.0,0.0,0.0,0.0,0.0,0.0,0.0,0.0,0.0,0.0,0.0,0.0,0.0,0.0,0.0,0.0,0.0,0.0,2.6603,2.6894,2.7421,2.8242,2.8325,2.8031,2.7376,2.7091,2.6555,0.0,0.0,0.0,0.0,0.0,0.0,0.0,0.0,0.0,0.0,0.0,0.0,0.0,0.0,0.0,0.0,0.0,0.0,0.0,0.0,0.0,0.0,0.0,0.0,0.0,0.0,0.0,0.0,0.0,0.0,0.0,0.0,0.0,0.0,0.0,0.0,0.0,0.0,0.0,0.0,0.0,2.2905,2.3748,2.3139,2.3115,0.0,0.0,2.2957,2.4427,2.45,0.0,0.0,0.0,0.0,0.0,0.0,0.0,0.0,0.0,0.0,0.0,0.0,0.0,0.0,0.0,0.0,0.0,0.0,0.0,0.0,0.0,0.0,0.0,0.0,0.0,0.0,0.0,0.0,0.0,0.0,0.0,0.0,0.0,0.0,0.0,0.0,0.0,0.0,0.0,0.0,0.0,0.0,0.0,0.0,0.0,0.0,0.0,0.0,0.0,0.0,0.0,0.0,0.0,0.0,0.0,2.4134,2.6189,2.6757,2.7166,2.7571,2.8013,2.8074,2.7649,2.7132,2.6639,0.0,0.0,0.0,0.0,0.0,0.0,0.0,0.0,0.0,0.0,0.0,0.0,0.0,0.0,0.0,0.0,0.0,0.0,0.0,0.0,0.0,0.0,0.0,0.0,0.0,0.0,0.0,0.0,0.0,0.0,0.0,0.0,0.0,0.0,0.0,0.0,0.0,0.0,0.0,0.0,0.0,0.0,2.5643,2.5151,0.0,0.0,0.0,2.4568,2.5183,0.0,0.0,0.0,0.0,0.0,0.0,0.0,0.0,0.0,0.0,0.0,0.0,0.0,0.0,0.0,0.0,0.0,0.0,0.0,0.0,0.0,0.0,0.0,0.0,0.0,0.0,0.0,0.0,0.0,0.0,0.0,0.0,0.0,0.0,0.0,0.0,0.0,0.0,0.0,0.0,0.0,0.0,0.0,0.0,0.0,0.0,0.0,0.0,0.0,0.0,0.0,0.0,0.0,0.0,0.0,0.0,0.0,2.5661,2.6321,2.6871,2.7285,2.7517,2.772,2.7863,2.7023,0.0,0.0,0.0,0.0,0.0,0.0,0.0,0.0,0.0,0.0,0.0,0.0,0.0,0.0,0.0,0.0,0.0,0.0,0.0,0.0,0.0,0.0,0.0,0.0,0.0,0.0,0.0,1.6372,0.0,0.0,0.0,0.0,0.0,0.0,0.0,0.0,0.0,0.0,0.0,0.0,0.0,0.0,2.5379,2.6697,2.5996,2.5678,0.0,0.0,2.5781,2.579,2.5392,2.5179,0.0,0.0,0.0,0.0,0.0,0.0,0.0,0.0,0.0,0.0,0.0,0.0,0.0,0.0,0.0,0.0,0.0,0.0,0.0,0.0,0.0,0.0,0.0,0.0,0.0,0.0,0.0,0.0,0.0,0.0,0.0,0.0,0.0,0.0,0.0,0.0,0.0,0.0,0.0,0.0,0.0,0.0,0.0,0.0,0.0,0.0,0.0,0.0,0.0,0.0,0.0,0.0,0.0,0.0,2.4754,2.5582,2.5669,2.652,2.7996,2.6639,2.6227,2.6945,2.6152,2.5294,0.0,0.0,0.0,0.0,0.0,0.0,0.0,0.0,0.0,0.0,0.0,0.0,0.0,0.0,0.0,0.0,0.0,0.0,0.0,0.0,0.0,0.0,0.0,0.0,0.0,0.0,0.0,0.0,0.0,0.0,0.0,0.0,0.0,0.0,0.0,0.0,0.0,0.0,0.0,0.0,0.0,2.6141,2.6235,2.4867,2.4398,0.0,2.6014,2.6197,2.68,2.7369,2.7491,2.6718,0.0,0.0,0.0,0.0,0.0,0.0,0.0,0.0,0.0,0.0,0.0,0.0,0.0,0.0,0.0,0.0,0.0,0.0,0.0,0.0,0.0,0.0,0.0,0.0,0.0,0.0,0.0,0.0,0.0,0.0,0.0,0.0,0.0,0.0,0.0,0.0,0.0,0.0,0.0,0.0,0.0,0.0,0.0,0.0,0.0,0.0,0.0,0.0,0.0,0.0,0.0,0.0,0.0,2.5247,2.5627,2.7152,2.777,2.7438,2.7815,2.7674,2.6911,2.6572,2.5953,0.0,0.0,0.0,0.0,0.0,0.0,0.0,0.0,0.0,0.0,0.0,0.0,0.0,0.0,0.0,0.0,0.0,0.0,0.0,0.0,0.0,0.0,0.0,0.0,0.0,0.0,0.0,0.0,2.102,2.1606,2.2521,0.0,0.0,0.0,0.0,0.0,0.0,0.0,0.0,0.0,0.0,2.8919,2.9399,2.9391,0.0,0.0,2.9669,2.9372,2.9559,2.8396,2.7559,2.7662,2.6767,0.0,0.0,0.0,0.0,0.0,0.0,0.0,0.0,0.0,0.0,0.0,0.0,0.0,0.0,0.0,0.0,0.0,0.0,0.0,0.0,0.0,0.0,0.0,0.0,0.0,0.0,0.0,0.0,0.0,0.0,0.0,0.0,0.0,0.0,0.0,0.0,0.0,0.0,0.0,0.0,0.0,0.0,0.0,0.0,0.0,0.0,0.0,0.0,0.0,0.0,0.0,0.0,2.5913,2.593,2.7725,2.8175,2.7277,2.8236,2.8265,2.7342,2.7278,2.685,0.0,0.0,0.0,0.0,0.0,0.0,0.0,0.0,0.0,0.0,0.0,0.0,0.0,0.0,0.0,0.0,0.0,0.0,0.0,0.0,0.0,0.0,0.0,0.0,0.0,0.0,0.0,0.0,2.2823,2.3457,2.4124,0.0,0.0,0.0,0.0,0.0,0.0,0.0,0.0,0.0,0.0,3.0598,3.1142,3.1531,3.1721,3.1664,3.1349,3.1147,3.1249,2.9655,2.8682,2.9411,0.0,0.0,0.0,0.0,0.0,0.0,0.0,0.0,0.0,0.0,0.0,0.0,0.0,0.0,0.0,0.0,0.0,0.0,0.0,0.0,0.0,0.0,0.0,0.0,0.0,0.0,0.0,1.2714,0.0,0.0,1.2806,0.0,0.0,0.0,0.0,0.0,0.0,0.0,0.0,0.0,0.0,0.0,0.0,0.0,0.0,0.0,0.0,0.0,0.0,0.0,0.0,0.0,0.0,2.6757,2.6683,2.6908,2.7332,2.8046,2.7383,2.7425,2.8153,2.8164,2.7761,2.6898,0.0,0.0,0.0,0.0,0.0,0.0,0.0,0.0,0.0,0.0,0.0,0.0,0.0,0.0,0.0,0.0,0.0,0.0,0.0,0.0,0.0,0.0,0.0,0.0,0.0,0.0,2.2709,2.4197,2.5274,0.0,0.0,0.0,0.0,0.0,0.0,0.0,0.0,0.0,3.0451,3.0586,3.0623,3.0677,2.9951,2.958,2.944,3.0012,3.0688,3.1346,3.1283,3.1469,0.0,0.0,0.0,0.0,0.0,0.0,0.0,0.0,0.0,0.0,0.0,0.0,0.0,0.0,0.0,0.0,0.0,0.0,0.0,0.0,0.0,0.0,0.0,0.0,0.0,0.0,0.0,1.5116,1.5427,0.0,0.0,0.0,0.0,0.0,0.0,0.0,0.0,0.0,0.0,0.0,2.3357,2.3933,0.0,0.0,0.0,0.0,0.0,0.0,0.0,0.0,0.0,0.0,0.0,0.0,2.8058,2.7588,2.863,2.9095,2.8914,2.9254,2.931,2.908,2.9056,2.8647,2.7726,0.0,0.0,0.0,0.0,0.0,0.0,0.0,0.0,0.0,0.0,0.0,0.0,0.0,0.0,0.0,0.0,0.0,0.0,0.0,0.0,0.0,0.0,0.0,0.0,0.0,2.488,0.0,0.0,0.0,0.0,0.0,0.0,0.0,0.0,0.0,0.0,0.0,3.0607,3.1422,3.204,3.2398,3.2388,3.2158,3.193,0.0,0.0,0.0,0.0,0.0,0.0,0.0,0.0,0.0,0.0,0.0,0.0,0.0,0.0,2.9363,2.8604,2.8907,2.944,2.9926,0.0,0.0,0.0,0.0,0.0,0.0,0.0,0.0,0.0,0.0,0.0,0.0,0.0,0.0,1.7264,1.7584,1.8077,0.0,0.0,0.0,0.0,0.0,0.0,0.0,0.0,2.3976,2.5116,2.5371,2.5902,2.5842,0.0,2.6356,2.6039,0.0,0.0,0.0,0.0,0.0,0.0,0.0,0.0,2.8771,2.8349,2.9357,2.9688,2.929,2.986,3.0119,2.988,2.9936,2.9667,2.9008,2.874,2.8055,0.0,0.0,0.0,0.0,0.0,0.0,0.0,0.0,0.0,0.0,0.0,0.0,0.0,0.0,0.0,0.0,0.0,0.0,0.0,0.0,0.0,0.0,0.0,2.6879,0.0,0.0,0.0,0.0,0.0,0.0,0.0,0.0,0.0,2.9999,3.0693,3.1459,3.1956,3.2528,3.2888,3.2889,0.0,0.0,0.0,0.0,0.0,0.0,0.0,3.3468,3.3451,3.2933,3.2417,3.2058,3.1689,3.1405,3.1355,0.0,0.0,3.0131,3.0638,3.1361,3.1848,3.2015,3.2245,3.2797,3.3466,3.416,0.0,0.0,0.0,0.0,0.0,0.0,0.0,0.0,1.8069,1.8547,0.0,1.9293,0.0,0.0,0.0,0.0,1.9318,2.1734,0.0,0.0,2.58,2.699,2.7698,2.7711,2.762,2.7501,2.7524,2.746,2.7358,2.7656,0.0,0.0,0.0,0.0,0.0,0.0,2.9007,2.9088,2.9133,2.9137,2.9217,2.932,2.9762,3.055,3.0711,3.0722,3.0662,2.993,2.9492,2.9371,2.7061,0.0,0.0,0.0,0.0,0.0,0.0,0.0,0.0,0.0,0.0,0.0,0.0,0.0,0.0,0.0,0.0,0.0,0.0,0.0,0.0,2.7743,0.0,0.0,0.0,0.0,0.0,0.0,0.0,0.0,0.0,3.1853,3.0943,3.1601,3.2148,3.2159,0.0,0.0,0.0,0.0,3.3377,3.3297,3.396,3.4701,3.5446,3.6275,3.6813,3.6783,0.0,0.0,3.5551,3.469,3.4089,3.4035,3.3376,3.2455,3.1383,3.1845,3.2388,3.2496,3.2697,3.3183,3.4637,3.5274,3.5897,2.5377,0.0,0.0,0.0,0.0,2.1768,2.2312,2.3101,2.2549,2.2436,2.2634,2.2012,0.0,0.0,0.0,0.0,0.0,0.0,2.4466,2.4861,2.6946,2.8343,2.9082,2.967,2.9858,2.9683,2.973,2.9439,2.8893,2.8891,2.8416,2.7573,0.0,0.0,0.0,0.0,3.0639,3.0702,3.0711,3.0771,3.0874,3.0396,3.0324,3.0676,3.0746,3.0796,3.0759,3.056,3.0129,2.9493,2.8779,0.0,0.0,0.0,0.0,0.0,0.0,0.0,0.0,0.0,0.0,0.0,0.0,0.0,0.0,0.0,0.0,0.0,0.0,0.0,3.0447,3.138,3.1965,0.0,0.0,0.0,0.0,0.0,0.0,0.0,0.0,0.0,3.1929,3.2478,3.3026,0.0,0.0,3.3964,3.3975,3.3654,3.3386,3.3378,3.355,0.0,3.3932,3.467,3.5424,3.6012,3.6636,3.6736,3.5844,3.548,3.5287,3.5233,3.543,3.5501,3.5178,3.4701,3.4833,3.5812,3.6224,3.6446,3.6903,3.7552,3.8177,2.904,2.6756,2.5521,2.4858,2.471,2.5076,2.539,2.559,2.5097,2.4905,2.4864,2.4359,2.4068,2.3969,2.4044,0.0,0.0,0.0,2.611,2.6765,2.8484,2.9687,3.0438,3.0901,3.1078,3.0971,3.0971,3.0698,3.0166,3.017,2.9765,2.8961,0.0,2.9188,2.9503,3.0537,3.1281,3.1693,3.1756,3.1684,3.1528,3.0843,3.0537,3.0639,3.0739,3.0772,3.0792,3.0797,3.0546,3.003,2.97,2.8822,0.0,0.0,0.0,0.0,0.0,0.0,0.0,0.0,0.0,0.0,0.0,2.4997,2.5735,0.0,0.0,0.0,2.9991,3.161,3.301,3.3277,0.0,0.0,0.0,0.0,0.0,0.0,0.0,3.2627,3.3481,3.3889,3.3232,3.3892,3.4173,3.3491,3.3846,3.4199,3.4179,0.0,3.3909,3.3903,3.4449,3.4718,3.4408,3.5617,3.6902,3.775,3.7702,3.7615,3.7424,3.7077,3.6823,3.6832,3.7123,3.7562,3.7883,3.7468,3.7143,3.7723,3.7935,3.8102,3.8376,3.8959,3.9428,3.1812,3.1625,2.8818,2.7203,2.6553,2.7328,2.7264,2.6552,2.6424,2.6382,2.6378,2.6315,2.6313,2.6363,2.6285,0.0,2.6289,2.6945,2.8012,2.9404,3.0193,3.0989,3.1733,3.1641,3.1587,3.1666,3.1537,3.1412,3.1287,3.1402,3.1415,3.128,3.0133,2.9949,3.0748,3.0854,3.1345,3.2274,3.2364,3.2077,3.1409,3.081,3.0514,3.0595,3.0645,3.0716,3.0767,3.0797,3.0785,3.0761,3.0095,2.9638,2.947,0.0,0.0,0.0,0.0,0.0,0.0,0.0,0.0,0.0,0.0,0.0,0.0,0.0,0.0,0.0,3.2517,0.0,3.4706,3.4017,0.0,0.0,0.0,3.3131,3.2485,3.3011,3.3421,3.348,0.0,0.0,3.4693,3.5607,3.5603,3.4014,3.3801,3.3744,3.361,3.4394,3.4876,3.4821,3.6075,3.6777,3.5938,3.7764,3.9468,4.0051,3.9508,3.8808,3.9354,3.9,3.8544,3.8601,3.8601,3.8832,3.9665,3.9728,3.9586,3.857,3.8456,3.8729,3.9427,3.9702,3.9961,3.3342,3.3236,3.2558,3.1587,3.0516,3.0713,3.0726,3.0485,2.9246,2.8734,2.8686,2.7506,2.7263,2.7763,2.7053,2.735,2.8444,2.8521,2.9091,3.009,3.0796,3.1525,3.2295,3.2223,3.2463,3.2895,3.2365,3.2081,3.2004,3.1379,3.1131,3.1264,3.0848,3.0889,3.1399,3.2206,3.2767,3.3097,3.3237,3.2697,3.1519,3.1383,3.1061,3.054,3.0588,3.0621,3.0649,3.0738,3.0793,3.0801,3.0663,3.0291,2.9607,2.9194,0.0,0.0,0.0,0.0,0.0,0.0,0.0,0.0,0.0,2.9032,3.0099,0.0,3.1553,0.0,3.3724,3.4642,3.5469,3.533,0.0,0.0,3.4736,3.4656,3.5734,3.4895,3.4474,3.5121,3.5787,3.6041,3.5605,3.6919,3.7759,3.7344,3.7272,3.6838,3.5635,3.6068,3.6402,3.5856,3.6055,3.621,3.6208,3.7552,3.8682,3.8192,3.8834,3.9535,3.9729,3.9655,3.9735,4.0318,4.0456,4.0552,4.0698,4.0795,4.0708,4.045,4.0407,4.045,4.0629,4.0647,4.0709,3.3746,3.373,3.376,3.3334,3.2638,3.2358,3.2098,3.1749,3.0825,3.0443,3.0395,2.9539,2.942,2.9821,2.9292,2.9646,3.0663,3.0631,3.0992,3.1735,3.21,3.2509,3.29,3.2834,3.298,3.3341,3.2933,3.2709,3.264,3.2206,3.2082,3.2194,3.249,3.2579,3.2512,3.2816,3.3215,3.3756,3.3679,3.327,3.2512,3.1867,3.1369,3.1014,3.068,3.0557,3.0603,3.0678,3.0729,3.0791,3.0827,3.0622,3.0173,3.0507,3.0487,0.0,0.0,0.0,0.0,0.0,0.0,0.0,0.0,0.0,0.0,0.0,3.2961,3.3805,3.4651,3.5303,3.5756,3.5802,3.5929,3.6307,3.5896,3.6013,3.6953,3.6204,3.5788,3.6279,3.6772,3.7075,3.6987,3.8157,3.8888,3.8549,3.88,3.8558,3.7361,3.7183,3.7035,3.6617,3.6533,3.6696,3.7048,3.7558,3.7949,3.793,3.8613,3.9258,3.9277,3.9629,4.0058,4.0488,4.0859,4.1113,4.1129,4.1107,4.1103,4.1114,4.1098,4.1097,4.1056,4.1052,4.1037,3.3566,3.357,3.3584,3.3591,3.3583,3.3035,3.2452,3.1863,3.1764,3.1648,3.1513,3.169,3.1814,3.192,3.1743,3.2083,3.27,3.2623,3.2947,3.359,3.3517,3.3491,3.3519,3.3351,3.3295,3.3262,3.3292,3.3236,3.3104,3.3379,3.3507,3.3498,3.4375,3.4498,3.3901,3.3285,3.3401,3.4209,3.3968,3.3794,3.3655,3.2455,3.1778,3.1725,3.1092,3.0779,3.0886,3.0907,3.0971,3.1091,3.1104,3.1121,3.1112,3.1835,3.2222,0.0,3.2885,0.0,0.0,0.0,0.0,0.0,0.0,0.0,0.0,3.3534,3.3898,3.4598,3.5348,3.5741,3.564,3.572,3.6069,3.6743,3.6835,3.6943,3.7251,3.7132,3.7067,3.7302,3.7389,3.7719,3.8436,3.925,3.9403,3.8858,3.9082,3.9073,3.8458,3.7656,3.7155,3.7072,3.7025,3.7058,3.7682,3.7584,3.7564,3.8227,3.8525,3.8625,3.8822,3.9408,3.9936,4.0135,4.0663,4.1112,4.1191,4.1152,4.1111,4.1109,4.1101,4.1164,4.1278,4.1338,4.127,3.3477,3.3444,3.3491,3.3549,3.3594,3.3483,3.338,3.3246,3.2669,3.2077,3.1569,3.2256,3.2576,3.2484,3.1887,3.2292,3.3362,3.2673,3.3038,3.4207,3.3619,3.3635,3.4073,3.355,3.3216,3.3083,3.3266,3.3251,3.3036,3.3784,3.4168,3.4303,3.5046,3.5465,3.5425,0.0,0.0,0.0,3.4515,3.4272,3.3648,3.3512,3.3165,3.2602,3.2532,0.0,3.2549,3.26,3.265,3.2675,3.2775,0.0,0.0,0.0,0.0,0.0,0.0,0.0,0.0,0.0,0.0,0.0,3.3819,3.3775,3.4174,3.4841,3.5316,3.5463,3.5648,3.5422,3.4747,3.5312,3.5783,3.5935,3.5952,3.6745,3.8636,3.7807,3.7423,3.886,3.909,3.9187,3.9328,3.9563,3.9624,3.9365,3.8961,3.8585,3.8338,3.7642,3.6947,3.631,3.6203,3.6222,3.6424,3.6939,3.733,3.7542,3.8097,3.8729,3.9357,3.9634,4.0108,4.0642,4.1014,4.1112,4.1191,4.1191,4.1172,4.1113,4.111,4.1315,4.1996,4.2137,4.236,3.3411,3.3393,3.3411,3.3433,0.0,3.3531,3.3549,3.3526,3.3304,3.3188,3.3236,3.4027,3.4346,3.4274,3.3918,3.4112,3.4714,3.4251,3.4209,3.4516,3.4144,3.4119,3.4394,3.4063,3.3998,3.4229,3.4358,3.44,3.4355,3.4709,3.4947,3.5063,3.581,3.6098,3.5893,3.5341,3.4796,3.4251,3.4484,3.443,3.4099,3.3875,3.3625,3.336,3.2988,0.0,0.0,0.0,0.0,0.0,0.0,0.0,0.0,3.3597,0.0,3.3798,3.4197,3.4428,3.4441,3.4398,3.4529,3.4846,3.4862,3.47,3.4381,3.5469,3.6046,3.5704,3.5996,3.6061,3.5636,3.5654,3.5994,3.6786,3.6933,3.7793,3.9636,3.9382,3.8995,3.9352,3.9556,3.9607,3.9593,3.9223,3.9219,3.9452,3.8494,3.7689,3.764,3.7364,3.6851,3.5995,3.5856,3.5878,3.602,3.6668,3.7243,3.7309,3.792,3.8591,3.9071,3.9519,3.9975,4.046,4.0816,4.111,4.1152,4.1152,4.1132,4.1113,4.1113,4.1402,4.2171,4.2079,4.2012,3.333,3.3341,3.333,3.3315,3.334,3.3444,3.3564,3.3665,3.4029,0.0,0.0,3.5816,3.6094,3.5911,3.5967,3.5956,3.588,3.5704,3.5326,3.4838,3.4635,3.4586,3.4652,3.466,3.4961,3.5472,3.5516,3.5567,3.565,3.5684,3.5738,3.5892,3.663,3.6721,3.6142,3.5681,3.5119,3.4492,3.4394,3.4427,3.4509,3.4035,3.3847,3.4033,3.3377,3.31,3.3309,3.3304,3.3371,3.3409,3.3468,3.3487,3.3501,3.4138,3.453,3.4602,3.5248,3.5646,3.5648,3.5593,3.554,3.5483,3.5565,3.536,3.4776,3.5941,3.6512,3.6061,3.6498,3.6742,3.6601,3.6159,3.6396,3.7825,3.8249,3.8983,4.0326,4.0575,4.0069,3.9462,3.9417,3.9506,3.932,3.8733,3.8429,3.8757,3.7687,3.6758,3.6767,3.6791,3.6561,3.5955,3.5809,3.5827,3.5957,3.6397,3.701,3.7447,3.8053,3.8564,3.8974,3.9541,3.9998,4.0217,4.0693,4.1029,4.1111,4.1111,4.1112,4.1113,4.1113,4.1386,4.2085,4.1706,4.156,3.3315,3.3165,3.3319,3.3378,3.3386,3.3466,3.3895,3.4577,3.5359,3.5341,3.4822,3.6364,3.6614,3.5893,3.597,3.5944,3.5856,3.5177,3.5044,3.5341,3.4659,3.4674,3.5273,3.5339,3.5385,3.5408,3.5532,3.554,3.5541,3.6175,3.6557,3.6729,3.7508,3.7624,3.7067,3.6895,3.6491,3.5823,3.4746,3.4239,3.4257,3.4375,3.4509,3.4593,3.4628,3.4729,3.4863,3.4906,3.4988,3.5065,3.5009,3.4961,3.4909,3.4956,3.5063,3.5168,3.5357,3.5453,3.5451,3.549,3.546,3.5383,3.601,3.6401,3.6372,3.6565,3.696,3.7541,3.7171,3.6514,3.5907,3.6349,3.6776,3.7165,3.8385,3.9367,3.9669,3.9628,3.929,3.8502,3.9009,3.9076,3.8506,3.8174,3.7808,3.7336,3.6613,3.5847,3.596,3.5939,3.5939,3.5834,3.5788,3.5803,3.5937,3.5905,3.6708,3.8015,3.8396,3.9054,4.031,4.0643,4.0808,4.0912,4.0998,4.1084,4.111,4.1111,4.1111,4.1112,4.1132,4.1445,4.2224,4.1791,4.1959,3.4346,3.3992,3.4037,3.3769,3.3337,3.3293,3.379,3.4696,3.5568,3.5934,3.6048,3.7251,3.7562,3.717,3.715,3.7132,3.7074,3.664,3.6351,3.6169,3.5786,3.5787,3.6145,3.6188,3.6446,3.6877,3.6862,3.6836,3.6837,3.7119,3.7298,3.7428,3.7871,3.7997,3.7792,3.7411,3.7095,3.6828,3.5828,3.5132,3.4816,3.497,3.5097,3.5305,3.5055,3.5178,3.571,3.543,3.5242,3.5239,3.5239,3.5207,3.514,3.5079,3.5123,3.5289,3.5293,3.53,3.5344,3.5744,3.5937,3.5889,3.6649,3.7388,3.7958,3.8005,3.8005,3.8041,3.8011,3.7973,3.7607,3.7163,3.7016,3.7524,3.7865,3.8189,3.8653,3.8752,3.8405,3.7705,3.7793,3.7886,3.754,3.6999,3.6797,3.6668,3.6113,3.562,3.5639,3.5668,3.5713,3.574,3.5754,3.5982,3.6332,3.6434,3.7203,3.8827,3.9128,3.968,4.0808,4.1048,4.1078,4.1106,4.1104,4.1116,4.1105,4.1108,4.1109,4.1111,4.1112,4.1465,4.2108,4.2727,4.3514,3.5187,3.4718,3.4524,3.398,3.3245,3.3332,3.39,3.4829,3.5719,3.648,3.7199,3.7985,3.8257,3.82,3.8138,3.8119,3.8076,3.7787,3.7331,3.6806,3.6694,3.6704,3.6771,3.6907,3.7389,3.8035,3.7951,3.7898,3.795,3.7828,3.781,3.7978,3.8251,3.8379,3.8274,3.7965,3.7788,3.7698,3.7077,3.6338,3.5609,3.5637,3.5789,3.598,3.5555,3.5643,3.6338,3.575,3.5375,3.5352,3.5198,3.5079,3.5035,3.4982,3.5013,3.5164,3.516,3.5269,3.5587,3.6069,3.6431,3.6619,3.7426,3.8276,3.8986,3.9331,3.9215,3.8727,3.895,3.9119,3.8765,3.7881,3.7304,3.7731,3.7424,3.7369,3.7749,3.7881,3.7542,3.6809,3.6738,3.6839,3.6511,3.6041,3.5953,3.6286,3.5949,3.5608,3.5598,3.5625,3.5643,3.5693,3.583,3.6216,3.6871,3.7184,3.7933,3.9444,3.966,4.0066,4.0745,4.1042,4.105,4.1086,4.1108,4.1106,4.1116,4.1104,4.1109,4.1131,4.1132,4.1406,4.2263,4.3699,4.4661,3.4978,3.4721,3.4359,3.3638,3.3106,3.3844,3.463,3.5396,3.6263,3.7103,3.7864,3.8196,3.8257,3.8209,3.8182,3.8174,3.8111,3.7305,3.6862,3.6722,3.6573,3.6548,3.6717,3.7282,3.7721,3.7908,3.7801,3.781,3.7908,3.789,3.7959,3.8249,3.8916,3.8897,3.8352,3.8882,3.9002,3.8508,3.8366,3.7669,3.6486,3.6455,3.6561,3.6696,3.6696,3.684,3.7074,3.6338,3.598,3.6017,3.5325,3.4865,3.4855,3.479,3.4785,3.4874,3.4917,3.5337,3.6254,3.6352,3.673,3.7532,3.8419,3.8997,3.9176,3.9926,4.0423,4.0142,3.9634,3.9076,3.8249,3.8055,3.7758,3.733,3.7619,3.7755,3.724,3.6977,3.6611,3.5832,3.6469,3.6449,3.594,3.5994,3.6136,3.6019,3.5852,3.575,3.5852,3.5886,3.5794,3.5828,3.6231,3.677,3.708,3.7679,3.8561,3.9468,3.9701,4.0165,4.0799,4.1086,4.1096,4.1095,4.1089,4.1089,4.1112,4.1103,4.1129,4.123,4.1308,4.1543,4.2378,4.3874,4.4862,3.6212,3.5846,3.5714,3.4978,3.4088,3.4778,3.5309,3.5714,3.652,3.733,3.8059,3.8199,3.8216,3.82,3.8114,3.8088,3.8061,3.7556,3.7325,3.7282,3.7184,3.7184,3.7291,3.7631,3.7864,3.7908,3.7837,3.781,3.7801,3.7864,3.7969,3.8106,3.8501,3.8508,3.8253,3.8624,3.8727,3.8549,3.859,3.839,3.7967,3.75,3.7283,3.7342,3.7087,3.7218,3.7691,3.7118,3.6718,3.6768,3.642,3.6235,3.6273,3.5722,3.5484,3.5622,3.5656,3.5856,3.6316,3.7176,3.7927,3.8375,3.9195,3.9737,3.9864,4.0249,4.0489,4.0508,4.0275,3.9904,3.9508,3.9127,3.8717,3.8375,3.8221,3.7961,3.7656,3.7546,3.7346,3.7073,3.7204,3.7041,3.6274,3.5921,3.6147,3.6539,3.6567,3.6379,3.6856,3.7045,3.6842,3.6539,3.7078,3.7613,3.7696,3.8407,3.9287,4.0024,4.0361,4.068,4.0866,4.1024,4.105,4.1107,4.1071,4.1072,4.1108,4.1099,4.1126,4.1327,4.2284,4.2926,4.3763,4.4908,4.5641,3.7028,3.6747,3.6706,3.5945,3.4811,3.5624,3.5964,3.6073,3.6827,3.7547,3.8088,3.814,3.8149,3.8122,3.8044,3.8001,3.7975,3.7792,3.7685,3.7694,3.7631,3.7622,3.7667,3.7775,3.7837,3.7837,3.7855,3.7819,3.7766,3.7837,3.796,3.8099,3.8583,3.8743,3.8622,3.8854,3.8994,3.892,3.8802,3.881,3.8886,3.8381,3.8066,3.8104,3.7737,3.7829,3.849,3.7825,3.748,3.7487,3.731,3.7219,3.7254,3.6419,3.599,3.6181,3.6414,3.6651,3.6885,3.8031,3.8866,3.9242,3.9843,4.0201,4.0323,4.0389,4.0449,4.0488,4.0531,4.0464,4.0197,3.9742,3.9321,3.9047,3.8417,3.8099,3.8031,3.8036,3.7951,3.7953,3.774,3.7596,3.699,3.6491,3.6591,3.7493,3.7383,3.719,3.7757,3.7802,3.7475,3.7212,3.7771,3.8007,3.8002,3.8747,3.9708,4.0269,4.0548,4.0833,4.0964,4.0976,4.0998,4.1057,4.1023,4.1027,4.1067,4.1066,4.13,4.1738,4.2635,4.386,4.4602,4.5668,4.6149,3.6821,3.693,3.6658,3.597,3.5102,3.6181,3.6528,3.6397,3.7282,3.7765,3.7934,3.8003,3.8001,3.8019,3.8002,3.7992,3.7975,3.7792,3.7685,3.7694,3.7631,3.7595,3.7595,3.7685,3.7703,3.773,3.7721,3.7775,3.7864,3.789,3.7995,3.8238,3.9487,3.9965,3.9498,4.0037,4.0377,3.9693,3.9042,3.8833,3.9024,3.8909,3.8853,3.9006,3.8996,3.8945,3.9056,3.8463,3.8116,3.8263,3.767,3.7299,3.7268,3.6551,3.6154,3.6221,3.6912,3.773,3.8433,3.8691,3.9097,3.9869,4.0139,4.0262,4.0229,4.0366,4.0421,4.0338,4.04,4.0173,3.9634,3.9573,3.9166,3.8456,3.8232,3.8188,3.8157,3.8393,3.8004,3.8074,3.8126,3.8084,3.7795,3.7679,3.7659,3.7968,3.7932,3.797,3.81,3.7583,3.7491,3.778,3.8029,3.7947,3.7339,3.8633,3.9544,3.9987,4.0603,4.0895,4.0922,4.0962,4.0992,4.1009,4.1013,4.1018,4.1024,4.1232,4.1592,4.2129,4.2928,4.3978,4.511,4.577,4.627,3.695,3.7243,3.7228,3.6764,3.6236,3.7092,3.7128,3.669,3.7478,3.7864,3.7899,3.7943,3.7933,3.7933,3.7854,3.788,3.7957,3.7792,3.7685,3.7694,3.7631,3.7595,3.7595,3.7676,3.7667,3.7649,3.7685,3.7739,3.7775,3.7846,3.796,3.8216,3.9216,3.9431,3.8957,3.9574,3.969,3.903,3.8753,3.8795,3.8968,3.8939,3.9212,3.9837,3.938,3.9163,3.9333,3.9061,3.897,3.9107,3.8856,3.8765,3.8758,3.8142,3.7482,3.7076,3.7712,3.8328,3.8714,3.915,3.9578,4.0027,4.0138,4.0215,4.0276,4.0334,4.0341,4.031,4.0366,4.022,4.0042,3.9996,3.9888,3.9592,3.9515,3.9719,4.023,4.0341,4.0477,4.0752,4.0186,3.9573,3.9526,3.8762,3.8246,3.9206,3.9024,3.8973,3.9423,3.9344,3.8888,3.8362,3.854,3.8473,3.7042,3.8906,4.0284,4.0365,4.0663,4.0806,4.0904,4.0915,4.0945,4.1064,4.1064,4.1262,4.1369,4.15,4.1909,4.2968,4.3748,4.4389,4.5559,4.6141,4.6622,3.7058,3.7382,3.7485,3.7318,3.7093,3.7639,3.755,3.7075,3.7586,3.7819,3.7819,3.7819,3.7828,3.7828,3.7721,3.7774,3.788,3.773,3.7658,3.7658,3.7604,3.7604,3.764,3.7694,3.7694,3.7649,3.7685,3.773,3.7775,3.7881,3.7985,3.8134,3.8972,3.9304,3.9102,3.9428,3.9402,3.9203,3.8894,3.886,3.9183,3.9235,3.9723,4.0503,4.0161,3.9809,3.9735,3.9528,3.9444,3.9533,3.9564,3.9513,3.931,3.9166,3.8687,3.8016,3.8569,3.9018,3.9142,3.9553,3.9873,4.0045,4.0085,4.0143,4.0196,4.0205,4.0219,4.0201,4.0238,4.0237,4.0186,4.0223,4.0282,4.0317,4.0385,4.0636,4.1151,4.1176,4.138,4.1546,4.1117,4.0869,4.0845,3.9545,3.9318,4.0283,3.9868,3.9879,4.0346,4.0234,4.0026,3.9115,3.9107,3.9043,3.8546,3.9756,4.0156,4.0204,4.0645,4.0792,4.0864,4.089,4.0948,4.107,4.1302,4.1576,4.1759,4.1862,4.2672,4.3808,4.4296,4.4781,4.5716,4.6493,4.6957,3.7105,3.7287,3.7364,3.743,3.7506,3.7712,3.7757,3.7542,3.765,3.7685,3.7658,3.7685,3.7712,3.7712,3.7793,3.7775,3.782,3.7855,3.7747,3.7631,3.7604,3.764,3.7676,3.7694,3.7694,3.7712,3.7703,3.7775,3.7881,3.7968,3.8063,3.8328,3.9007,3.9684,4.0542,3.9882,3.9992,4.0176,3.9331,3.9095,3.9855,3.9823,4.0294,4.127,4.1267,4.0978,4.0471,3.9829,3.9479,3.9437,3.9539,3.9268,3.8897,3.9303,3.9453,3.8923,3.9364,3.9737,3.9827,3.9794,3.9854,3.9972,4.0064,4.0108,4.02,4.0213,4.0208,4.0143,4.0134,4.0058,3.9989,4.0012,4.0099,4.0261,4.0366,4.0445,4.05,4.0466,4.05,4.0816,4.1132,4.1094,4.0606,4.0137,4.0129,4.0273,4.0353,4.0341,4.0427,4.0057,3.9815,3.9961,3.9857,3.9486,3.9975,4.0487,4.007,3.985,4.0438,4.0812,4.0856,4.0883,4.0937,4.1092,4.1705,4.2017,4.2764,4.294,4.3471,4.4374,4.4726,4.5134,4.5894,4.6673,4.7335,3.6829,3.7076,3.6975,3.7038,3.7261,3.7428,3.7447,3.7419,3.7558,3.7622,3.7604,3.7622,3.7631,3.7792,3.8194,3.8452,3.8497,3.8906,3.8629,3.7782,3.7667,3.7694,3.7685,3.7685,3.7685,3.7712,3.7784,3.7863,3.795,3.8002,3.808,3.8337,3.9015,3.9495,3.9847,3.9675,3.9785,3.9836,3.9161,3.8874,3.9152,3.9204,3.9944,4.1244,4.0944,4.0989,4.1924,4.0828,3.9981,3.9513,3.9508,3.9458,3.9416,3.9634,3.9673,3.9467,3.9641,3.9804,3.982,3.9834,3.9869,3.9922,3.9951,4.0287,4.0715,4.0819,4.08,4.0783,4.0832,4.0688,4.0132,4.0036,4.0125,4.0099,4.0191,4.0472,4.0917,4.1557,4.2269,4.2608,4.2068,4.1452,4.1117,4.0762,4.0342,4.0445,4.0478,4.0503,4.0427,4.0254,3.9888,3.9757,3.9772,3.9942,4.0111,4.0383,4.0369,4.0153,4.0523,4.082,4.0858,4.0909,4.0976,4.1476,4.2064,4.2773,4.3496,4.4053,4.4506,4.4745,4.5,4.5546,4.619,4.6931,4.7691,3.6839,3.7116,3.6938,3.7019,3.7261,3.7326,3.7372,3.7464,3.786,3.8041,3.8103,3.8344,3.8451,3.8567,3.8995,3.9191,3.9253,3.9708,3.9416,3.8623,3.8571,3.8428,3.8087,3.7838,3.7775,3.7792,3.789,3.795,3.8001,3.8053,3.8132,3.8301,3.8726,3.9331,3.9765,3.9693,3.9712,3.9954,3.9792,3.9604,3.9706,3.9942,4.0819,4.2041,4.1816,4.1997,4.2697,4.1567,4.0591,3.9998,3.9695,3.9589,3.9693,3.975,3.9758,3.9815,4.0059,4.0193,3.9921,4.0136,4.0129,3.9959,3.9895,4.0279,4.0967,4.1207,4.1207,4.12,4.1208,4.0913,4.0192,4.0346,4.0468,4.0513,4.0298,4.0433,4.1031,4.1776,4.2178,4.2216,4.1834,4.1442,4.1035,4.0784,4.0379,4.047,4.0499,4.0495,4.0508,4.0492,4.0123,3.9923,4.0127,4.0146,3.9926,4.0191,4.0574,4.0594,4.0671,4.082,4.0883,4.0952,4.105,4.2155,4.2911,4.3812,4.4551,4.4853,4.5229,4.5311,4.5391,4.5839,4.6503,4.7538,4.8318,3.7038,3.7337,3.7175,3.7242,3.7512,3.7518,3.7598,3.779,3.8513,3.8852,3.8977,3.9405,3.9762,3.9833,3.9869,3.9993,4.0011,4.0172,4.023,4.0138,4.0122,3.9819,3.8869,3.8447,3.8195,3.7925,3.8075,3.81,3.8044,3.814,3.82,3.8237,3.8336,3.9067,4.0142,3.9955,4.0065,4.0871,4.0981,4.0938,4.0975,4.1625,4.248,4.3418,4.3406,4.322,4.2882,4.2144,4.1305,4.0568,4.0014,3.9908,3.9744,3.9722,3.9886,3.9978,4.0668,4.0613,4.0327,4.0619,4.0651,3.9989,4.0046,4.0336,4.1207,4.1567,4.1668,4.1624,4.1579,4.1162,4.0588,4.0818,4.1271,4.1258,4.0791,4.0535,4.0449,4.1094,4.1275,4.0941,4.1022,4.1179,4.0522,4.0428,4.0437,4.0482,4.0503,4.0504,4.0492,4.0492,4.0492,4.0477,4.0442,4.0369,4.0165,4.0257,4.0605,4.0661,4.0732,4.0815,4.1014,4.1141,4.1619,4.2738,4.3699,4.464,4.5349,4.5593,4.5794,4.5896,4.6054,4.625,4.6816,4.7734,4.8573,3.7038,3.7166,3.7068,3.7106,3.7321,3.79,3.8214,3.8368,3.9205,3.9565,3.9681,3.9788,3.9993,3.9958,4.0556,4.0788,4.0895,4.1359,4.1356,4.1142,4.1678,4.0785,3.9599,3.9545,3.9076,3.8273,3.8649,3.8728,3.8175,3.8192,3.8218,3.82,3.8281,3.9049,4.0315,4.0,4.0449,4.1556,4.1311,4.115,4.1168,4.1352,4.184,4.2664,4.2904,4.3177,4.3455,4.2932,4.1576,3.9977,4.087,4.0785,3.9845,4.0213,4.0506,4.0625,4.0913,4.1098,4.0922,4.1046,4.0779,4.0103,4.0487,4.1213,4.2009,4.2672,4.2962,4.3032,4.3013,4.2615,4.1958,4.1973,4.1961,4.1476,4.1389,4.1246,4.1084,4.0821,4.072,4.107,4.0878,4.057,4.0485,4.0432,4.0478,4.0499,4.0504,4.0492,4.0492,4.0492,4.0492,4.0492,4.0477,4.0496,4.0489,4.0519,4.0601,4.0638,4.0722,4.082,4.1138,4.1498,4.2302,4.3362,4.4081,4.4966,4.564,4.6099,4.628,4.6303,4.6306,4.6327,4.6797,4.7539,4.8436,3.7193,3.7334,3.7575,3.7514,3.7441,3.8214,3.858,3.8798,3.9507,4.0118,4.0404,4.0806,4.0903,4.0985,4.1395,4.1601,4.1673,4.2083,4.2111,4.1946,4.2038,4.1412,4.0438,4.0221,3.9562,3.9164,3.9271,3.9106,3.8707,3.8381,3.8218,3.8299,3.8569,3.9435,4.0656,4.0825,4.1137,4.2073,4.2069,4.1966,4.1654,4.1906,4.2314,4.2794,4.2951,4.3217,4.3344,4.3404,4.235,4.0712,4.0818,4.0871,3.9815,4.0113,4.0589,4.0871,4.1374,4.1665,4.1647,4.167,4.1473,4.1056,4.1232,4.1781,4.2691,4.3455,4.3701,4.3644,4.3701,4.3265,4.2708,4.2771,4.283,4.2595,4.256,4.2326,4.1619,4.1145,4.1097,4.1217,4.0844,4.0334,4.0447,4.0485,4.0507,4.05,4.0489,4.0492,4.0492,4.0492,4.0492,4.0492,4.0492,4.0492,4.0523,4.0554,4.0605,4.0641,4.1058,4.1092,4.1288,4.1793,4.2661,4.356,4.4399,4.5177,4.5831,4.6289,4.6295,4.63,4.6305,4.6405,4.6757,4.7656,4.8514,3.7429,3.7657,3.833,3.8224,3.779,3.8518,3.9017,3.9074,3.9959,4.0683,4.1272,4.1968,4.2058,4.2336,4.2111,4.2262,4.2264,4.2114,4.2127,4.1908,4.1702,4.1225,4.137,4.0375,4.0058,4.0175,3.9813,3.9677,3.945,3.8843,3.8489,3.8677,3.9243,3.9991,4.0851,4.1594,4.221,4.2554,4.302,4.292,4.2582,4.2861,4.3154,4.3244,4.3332,4.3246,4.3283,4.35,4.3081,4.096,4.0977,4.0826,4.0096,3.9901,4.0458,4.1127,4.1828,4.2233,4.2357,4.2268,4.2331,4.2141,4.1743,4.2047,4.3303,4.3796,4.396,4.3966,4.384,4.3617,4.3221,4.3522,4.3678,4.3598,4.3855,4.324,4.2107,4.1614,4.1565,4.1432,4.0704,4.0483,4.0449,4.0506,4.0507,4.0504,4.0492,4.0492,4.0492,4.0492,4.0492,4.0492,4.0492,4.0492,4.0527,4.0565,4.0609,4.0703,4.1367,4.1613,4.1575,4.2066,4.2843,4.3715,4.4792,4.5515,4.6037,4.628,4.6328,4.6296,4.6302,4.6305,4.6483,4.7832,4.8886,3.764,3.7739,3.846,3.8307,3.8005,3.9786,4.0303,3.9744,4.1243,4.1845,4.2174,4.2274,4.2348,4.2463,4.2356,4.2338,4.2328,4.1865,4.1318,4.0779,4.0194,4.0682,4.1379,4.1116,4.0908,4.0809,4.1062,4.0845,4.0356,4.0073,3.9808,3.9398,4.0074,4.0659,4.1064,4.1893,4.2585,4.314,4.3433,4.3361,4.3144,4.3238,4.3358,4.3313,4.3321,4.3474,4.3639,4.3855,4.3471,4.2901,4.2917,4.238,4.1089,4.1618,4.209,4.2027,4.2186,4.2421,4.242,4.2501,4.2426,4.2577,4.2861,4.3297,4.3581,4.4283,4.4548,4.4636,4.4678,4.4535,4.4406,4.4075,4.4067,4.4116,4.4109,4.3742,4.2695,4.2019,4.1512,4.0887,4.0591,4.0468,4.0432,4.0487,4.0492,4.0489,4.0492,4.0492,4.0492,4.0492,4.0492,4.0492,4.0492,4.0516,4.0589,4.0819,4.1261,4.1432,4.1996,4.2673,4.2599,4.2603,4.349,4.4387,4.534,4.5928,4.6396,4.643,4.6498,4.6409,4.6358,4.6381,4.6775,4.8085,4.8925,3.8106,3.7784,3.8608,3.8436,3.8024,3.9797,4.0412,4.0229,4.1336,4.2163,4.245,4.2447,4.2458,4.2511,4.2425,4.2435,4.2316,4.177,4.0849,4.014,3.9841,4.041,4.0999,4.156,4.156,4.1551,4.1596,4.1443,4.1198,4.0843,4.0441,4.0229,4.0988,4.1458,4.1682,4.2357,4.2766,4.2928,4.3322,4.3333,4.2978,4.3238,4.334,4.3233,4.3241,4.3409,4.3705,4.3798,4.35,4.3293,4.3659,4.3322,4.1766,4.2135,4.2577,4.2819,4.2856,4.3169,4.3338,4.3242,4.3202,4.3506,4.372,4.391,4.4175,4.4706,4.4869,4.4931,4.4949,4.4991,4.5084,4.4865,4.457,4.4593,4.4615,4.4133,4.3072,4.2441,4.1899,4.1097,4.0692,4.0528,4.0466,4.0495,4.05,4.0492,4.0492,4.0492,4.0492,4.0492,4.0492,4.0492,4.0492,4.0539,4.0631,4.1115,4.2036,4.2457,4.3018,4.3768,4.4253,4.4212,4.4256,4.4975,4.5632,4.6327,4.6738,4.6713,4.6824,4.6988,4.6977,4.673,4.697,4.8027,4.8652,3.8573,3.7828,3.8717,3.8519,3.7962,3.9395,4.0074,4.0087,4.0774,4.1685,4.2374,4.2498,4.2313,4.2452,4.2296,4.2253,4.184,4.1616,4.0564,3.9571,4.0103,4.0564,4.1017,4.166,4.2221,4.2783,4.2321,4.2023,4.1905,4.1486,4.1319,4.1215,4.1949,4.2083,4.2247,4.2949,4.3075,4.2598,4.3139,4.3269,4.2829,4.3154,4.3358,4.3304,4.3286,4.3409,4.3666,4.3747,4.3595,4.3076,4.3656,4.3316,4.2625,4.233,4.2491,4.3382,4.3372,4.3618,4.3932,4.3925,4.3905,4.4769,4.4339,4.4257,4.4724,4.4887,4.493,4.4973,4.5016,4.5003,4.5057,4.5058,4.5137,4.5183,4.5253,4.4557,4.3444,4.2958,4.2503,4.1389,4.096,4.0863,4.0589,4.0472,4.0496,4.0512,4.0512,4.0531,4.055,4.0512,4.0535,4.0492,4.0492,4.0897,4.105,4.1715,4.2598,4.3224,4.3826,4.4532,4.5307,4.5204,4.5007,4.5192,4.5766,4.6469,4.7025,4.7182,4.7348,4.7608,4.756,4.7277,4.7537,4.8027,4.8534,3.8706,3.8013,3.878,3.8546,3.8008,3.9461,4.0088,4.0085,4.0305,4.1307,4.2508,4.1903,4.2001,4.2271,4.1789,4.0951,4.05,4.0528,4.0293,3.9641,4.0229,4.0863,4.1488,4.2204,4.272,4.2856,4.2767,4.2795,4.2859,4.2895,4.2391,4.226,4.2722,4.2636,4.2122,4.258,4.289,4.2248,4.289,4.3168,4.3023,4.327,4.348,4.3418,4.3418,4.3566,4.3749,4.3865,4.3897,4.3967,4.4094,4.3986,4.3737,4.3745,4.369,4.3549,4.3578,4.38,4.392,4.3806,4.4052,4.4556,4.4669,4.4692,4.4911,4.4986,4.4979,4.5043,4.5101,4.5145,4.5235,4.5246,4.5307,4.5333,4.5246,4.493,4.4133,4.3784,4.3124,4.1801,4.1477,4.1417,4.1342,4.1102,4.0938,4.0858,4.0685,4.0723,4.0781,4.0689,4.0593,4.0554,4.0492,4.1043,4.1569,4.2414,4.3253,4.3824,4.4403,4.4878,4.5475,4.5684,4.5765,4.5938,4.6099,4.6549,4.7043,4.755,4.8048,4.8424,4.8166,4.7844,4.82,4.8613,4.908,3.9129,3.8013,3.8453,3.832,3.8088,3.9139,3.9661,3.9651,4.0111,4.1005,4.1745,4.1743,4.194,4.2427,4.2347,4.1341,4.0392,4.0381,4.0215,3.9878,4.0688,4.1397,4.1896,4.2659,4.294,4.3059,4.3151,4.3196,4.3178,4.3286,4.3182,4.3012,4.3026,4.2492,4.1948,4.2022,4.1948,4.1591,4.2264,4.2742,4.2528,4.3048,4.351,4.3538,4.3549,4.3644,4.3794,4.3843,4.3931,4.4047,4.4104,4.4153,4.4214,4.4244,4.4197,4.3982,4.399,4.4043,4.4081,4.4159,4.4436,4.4707,4.4852,4.4901,4.4931,4.4943,4.4979,4.5043,4.5148,4.5203,4.5224,4.5286,4.5317,4.5333,4.5337,4.5145,4.4945,4.5123,4.4243,4.2934,4.2684,4.2709,4.2644,4.227,4.1688,4.1277,4.1012,4.1108,4.1339,4.117,4.115,4.1532,4.1717,4.2255,4.2707,4.3158,4.3953,4.4536,4.489,4.5383,4.5703,4.5941,4.6355,4.6733,4.6872,4.6942,4.766,4.8379,4.88,4.9202,4.91,4.9013,4.896,4.9199,4.9628,3.9372,3.7969,3.8133,3.8107,3.8059,3.8662,3.9049,3.9248,3.9815,4.0708,4.1549,4.1532,4.1912,4.2589,4.2501,4.1787,4.0404,4.0473,4.0417,4.0317,4.1228,4.1967,4.2359,4.2732,4.316,4.3142,4.3269,4.334,4.3277,4.3394,4.3497,4.3391,4.2899,4.239,4.2112,4.2149,4.1099,4.1001,4.1752,4.2251,4.2308,4.2989,4.3712,4.372,4.3709,4.3767,4.3942,4.3947,4.4019,4.4093,4.4131,4.4154,4.4233,4.4248,4.4307,4.4423,4.451,4.4551,4.4568,4.4629,4.4644,4.4757,4.4815,4.4858,4.4925,4.4961,4.4979,4.5057,4.5131,4.5208,4.5235,4.5262,4.5277,4.5364,4.546,4.5607,4.579,4.6073,4.6574,4.5528,4.4562,4.4139,4.4175,4.3893,4.3412,4.332,4.307,4.2974,4.3032,4.2262,4.227,4.2853,4.3281,4.3773,4.4039,4.3963,4.4685,4.5351,4.5512,4.5745,4.6016,4.6229,4.6753,4.7285,4.7458,4.7642,4.8416,4.9132,4.9577,4.9923,5.0072,5.0144,5.0056,4.9883,4.9998,3.9007,3.8175,3.8192,3.8105,3.802,3.8155,3.857,3.9138,3.9283,4.0257,4.1442,4.1044,4.1461,4.2412,4.215,4.0731,3.9869,4.0195,4.0814,4.0876,4.1717,4.2475,4.2932,4.3087,4.3251,4.3278,4.3358,4.3394,4.3411,4.3515,4.3565,4.3542,4.3414,4.2967,4.1931,4.2385,4.2643,4.1702,4.2735,4.3528,4.3597,4.3853,4.4045,4.4147,4.4162,4.4147,4.4173,4.418,4.4222,4.431,4.4332,4.4376,4.4433,4.4466,4.4473,4.448,4.4454,4.4447,4.451,4.4592,4.4659,4.4692,4.4725,4.4808,4.4901,4.501,4.5057,4.5164,4.5243,4.5342,4.5412,4.5401,4.5335,4.566,4.6099,4.6347,4.6582,4.7125,4.7627,4.8076,4.7082,4.6278,4.5912,4.5555,4.5225,4.5186,4.5109,4.4898,4.4771,4.4083,4.3588,4.4194,4.509,4.5633,4.5624,4.549,4.572,4.6335,4.6377,4.6391,4.667,4.7011,4.7252,4.7711,4.7963,4.8578,4.9451,5.0071,5.0416,5.0547,5.0619,5.087,5.1113,5.0878,5.0505,3.8465,3.8097,3.8183,3.8183,3.8114,3.8114,3.8294,3.8592,3.8699,3.9349,4.0263,4.017,4.0939,4.2056,4.1289,4.0796,4.0716,4.094,4.136,4.1846,4.2481,4.306,4.3307,4.3409,4.3427,4.3453,4.354,4.3645,4.3654,4.36,4.3615,4.3617,4.3359,4.2879,4.1943,4.2324,4.2077,4.1927,4.2645,4.3519,4.3914,4.4128,4.4237,4.4292,4.4307,4.4318,4.4318,4.4318,4.4336,4.4376,4.4361,4.438,4.4416,4.4416,4.4409,4.4538,4.4894,4.4875,4.4576,4.4566,4.4671,4.4648,4.4677,4.4706,4.4865,4.4989,4.5055,4.5061,4.5567,4.5847,4.6072,4.6394,4.6607,4.6828,4.6959,4.7398,4.7753,4.8187,4.8704,4.9212,4.9527,4.8475,4.7381,4.6559,4.6186,4.6071,4.5782,4.5421,4.5838,4.6187,4.5793,4.5641,4.6638,4.7608,4.7402,4.7204,4.7242,4.7628,4.7645,4.7664,4.7697,4.7937,4.8181,4.8624,4.9169,4.982,5.0543,5.0561,5.0518,5.0784,5.1107,5.1222,5.1347,5.1367,5.1111,3.813,3.808,3.8157,3.82,3.82,3.82,3.8217,3.826,3.8538,3.8979,3.9547,4.0077,4.0968,4.1377,4.081,4.0953,4.2068,4.1544,4.1862,4.2553,4.3248,4.3577,4.3624,4.3624,4.3632,4.3639,4.3711,4.3763,4.3689,4.3523,4.3355,4.3541,4.3362,4.278,4.2435,4.2472,4.2432,4.2522,4.3371,4.3927,4.4136,4.4498,4.449,4.4418,4.4336,4.4314,4.4318,4.4318,4.4336,4.4303,4.434,4.438,4.443,4.4426,4.448,4.47,4.5148,4.5387,4.515,4.5094,4.5104,4.5192,4.5166,4.5406,4.4859,4.5004,4.5325,4.5526,4.6197,4.6624,4.6896,4.7356,4.743,4.763,4.7927,4.8487,4.897,4.9165,4.9406,4.9797,5.0056,5.0026,4.8894,4.764,4.7086,4.6937,4.6537,4.6095,4.6795,4.7807,4.7632,4.7291,4.7847,4.8682,4.8498,4.846,4.8664,4.8778,4.8777,4.8638,4.8472,4.8751,4.9092,4.9638,5.0161,5.058,5.1011,5.0759,5.0581,5.0962,5.1267,5.132,5.1405,5.1523,5.1716,3.82,3.8174,3.82,3.82,3.82,3.82,3.8232,3.8337,3.9035,3.9357,3.9694,4.1049,4.1052,4.0643,4.0938,4.1243,4.1574,4.1356,4.1862,4.2612,4.3305,4.3455,4.3474,4.3492,4.3648,4.3619,4.3726,4.3792,4.3617,4.309,4.2884,4.2786,4.3155,4.2719,4.2705,4.3102,4.3578,4.3896,4.4688,4.4778,4.4759,4.4905,4.5083,4.4564,4.4423,4.4373,4.4326,4.4318,4.427,4.4177,4.431,4.439,4.444,4.4496,4.4565,4.4782,4.5558,4.5822,4.5787,4.6067,4.6642,4.6964,4.6889,4.6321,4.5458,4.6481,4.6777,4.6456,4.7058,4.7498,4.7674,4.7821,4.8186,4.8394,4.8749,4.9041,4.948,4.9805,5.0053,5.0391,5.0445,5.0328,5.0225,4.8914,4.812,4.7932,4.8441,4.8041,4.8558,4.9326,4.9124,4.8968,4.9157,4.9411,4.9199,4.9227,4.9382,4.9436,4.9458,4.9187,4.8891,4.9329,4.9963,5.0172,5.0598,5.1023,5.1325,5.1111,5.103,5.1237,5.1387,5.14,5.1758,5.2108,5.2296,3.82,3.8209,3.8232,3.8251,3.82,3.82,3.8232,3.8335,3.8674,3.8907,3.9145,4.0262,4.0586,4.0397,4.096,4.1721,4.2089,4.1579,4.1983,4.2223,4.2522,4.2358,4.2448,4.2831,4.2884,4.2849,4.3291,4.3217,4.2417,4.258,4.1983,4.2006,4.2764,4.2846,4.2987,4.3792,4.4578,4.5022,4.5641,4.5859,4.5252,4.5241,4.5229,4.4519,4.4461,4.4401,4.434,4.4326,4.4229,4.4196,4.431,4.4383,4.4454,4.4544,4.4632,4.4855,4.5832,4.6417,4.6492,4.6697,4.6866,4.6973,4.7087,4.7015,4.6284,4.7157,4.7352,4.7432,4.7912,4.8423,4.8527,4.8964,4.9428,4.9438,4.9551,4.9786,4.992,5.0245,5.0329,5.0476,5.05,5.0436,5.0358,5.0144,4.9481,4.9009,4.9596,5.0071,5.0257,5.0417,5.0119,4.9974,5.0097,5.0216,5.0023,5.004,5.0105,5.0086,5.0093,4.9924,4.9731,5.024,5.0777,5.0906,5.094,5.1255,5.1442,5.1405,5.1386,5.1403,5.1395,5.1403,5.1894,5.2553,5.2877,3.8248,3.8256,3.8305,3.8264,3.8217,3.8241,3.8315,3.837,3.8485,3.8593,3.882,3.964,4.0077,4.0318,4.0766,4.1541,4.1946,4.1816,4.1919,4.206,4.2071,4.1648,4.1856,4.2213,4.2662,4.2333,4.2779,4.2938,4.2262,4.2352,4.1843,4.162,4.1999,4.2537,4.2779,4.4117,4.5057,4.5213,4.5806,4.5963,4.5181,4.5376,4.5214,4.454,4.4364,4.4274,4.4169,4.4127,4.4104,4.4097,4.4196,4.4321,4.4433,4.453,4.4627,4.5193,4.6021,4.7007,4.7063,4.7466,4.7432,4.7492,4.7973,4.786,4.7637,4.7859,4.8389,4.8126,4.8773,4.9306,4.9365,4.9778,4.9999,4.9933,5.0468,5.0678,5.0455,5.055,5.0493,5.0503,5.0503,5.0513,5.0733,5.0712,5.0543,5.0019,5.0067,5.0412,5.053,5.0675,5.0734,5.0662,5.0735,5.084,5.0905,5.0784,5.0653,5.0544,5.0599,5.0769,5.0823,5.1294,5.1316,5.1133,5.1211,5.147,5.152,5.1465,5.1414,5.1395,5.144,5.1503,5.207,5.271,5.3368,3.8409,3.839,3.8409,3.832,3.8232,3.8354,3.8423,3.8494,3.8624,3.8747,3.8973,3.9793,4.0174,4.0296,4.0681,4.1308,4.165,4.1661,4.1598,4.1601,4.1642,4.1876,4.1939,4.2032,4.2281,4.2705,4.2813,4.2701,4.2519,4.2069,4.1623,4.1768,4.224,4.2649,4.1947,4.3416,4.4153,4.4271,4.5298,4.5256,4.4961,4.5279,4.5091,4.456,4.427,4.4158,4.4067,4.4011,4.3992,4.4036,4.4147,4.4292,4.4418,4.4578,4.471,4.4949,4.6264,4.6983,4.7105,4.8525,4.8687,4.8329,4.8762,4.8886,4.8276,4.8713,4.9491,4.9044,4.9575,5.0024,5.0195,5.0239,5.0277,5.0468,5.0965,5.1117,5.0818,5.0913,5.0889,5.0774,5.0618,5.06,5.096,5.1221,5.1298,5.1082,5.0789,5.0792,5.0968,5.1258,5.1498,5.1388,5.1436,5.142,5.1451,5.1338,5.1217,5.1099,5.1253,5.1638,5.1845,5.2141,5.1986,5.1514,5.1609,5.1978,5.1765,5.1506,5.1728,5.1961,5.1677,5.1777,5.2304,5.3005,5.3819,3.8517,3.8478,3.857,3.8499,3.8344,3.8385,3.8488,3.864,3.8769,3.8866,3.9065,3.9815,4.0196,4.0485,4.1256,4.1653,4.1516,4.1523,4.1397,4.0693,4.0689,4.0537,4.0726,4.1248,4.1661,4.1921,4.2054,4.2184,4.1924,4.1813,4.1738,4.1871,4.2626,4.3099,4.3591,4.4528,4.5046,4.5177,4.5779,4.5974,4.5173,4.5301,4.5167,4.4407,4.4315,4.4199,4.4105,4.4031,4.4036,4.4109,4.424,4.4385,4.4501,4.4657,4.4922,4.541,4.6596,4.7537,4.8156,4.9115,4.915,4.9159,4.9313,4.9554,4.9275,4.9632,4.9909,4.9905,5.0018,5.0265,5.0277,5.0277,5.0334,5.0487,5.0793,5.0869,5.0837,5.1238,5.1395,5.1197,5.1029,5.1205,5.1494,5.2125,5.2304,5.2434,5.2233,5.1828,5.185,5.2273,5.256,5.2269,5.2155,5.2063,5.2006,5.2036,5.2198,5.2268,5.2539,5.2957,5.3097,5.3009,5.2747,5.2358,5.2402,5.2466,5.2288,5.2213,5.2509,5.2605,5.2495,5.2343,5.2675,5.3611,5.4699,3.868,3.8641,3.8701,3.8678,3.8572,3.8541,3.8637,3.8818,3.8914,3.8971,3.9097,3.9617,4.0043,4.0491,4.104,4.169,4.1162,4.1126,4.0637,3.9888,3.9721,4.0017,4.0357,4.0739,4.1875,4.2098,4.2236,4.2229,4.2709,4.2292,4.241,4.2808,4.3138,4.3683,4.4277,4.4726,4.4939,4.5013,4.5342,4.5638,4.5316,4.5264,4.5039,4.4762,4.4553,4.4303,4.4222,4.4207,4.4222,4.4345,4.4475,4.4584,4.4655,4.4998,4.53,4.5942,4.688,4.7934,4.8835,4.9153,4.919,4.9247,4.96,4.9816,4.9925,5.0006,5.0101,5.0156,5.0237,5.0293,5.0299,5.0305,5.0508,5.0679,5.106,5.1175,5.1544,5.1964,5.2116,5.1875,5.1949,5.2069,5.223,5.2885,5.3424,5.3574,5.3691,5.3229,5.2776,5.3104,5.3349,5.3063,5.286,5.2783,5.2796,5.2865,5.3084,5.3387,5.3635,5.3889,5.3796,5.3605,5.34,5.322,5.32,5.3117,5.2981,5.3017,5.3326,5.3553,5.3641,5.3454,5.3242,5.4022,5.517,3.891,3.8896,3.8818,3.8844,3.8862,3.8803,3.887,3.9011,3.9059,3.9101,3.9145,3.9225,3.973,4.0216,3.9788,3.9981,4.054,4.0551,3.9995,3.961,3.9695,4.0165,4.0677,4.1178,4.2317,4.3237,4.3419,4.3006,4.3957,4.3621,4.3658,4.3911,4.4011,4.4253,4.4399,4.4485,4.4535,4.4643,4.4938,4.5196,4.5159,4.4873,4.4992,4.494,4.4795,4.4656,4.4616,4.462,4.4627,4.4706,4.4826,4.4831,4.5123,4.5742,4.589,4.6389,4.7444,4.8399,4.9011,4.9211,4.9303,4.9387,4.9607,4.9823,4.9939,4.9986,5.0082,5.012,5.017,5.0252,5.0328,5.0562,5.079,5.1234,5.178,5.2092,5.2486,5.274,5.2873,5.2927,5.3125,5.3248,5.3325,5.3823,5.4309,5.4397,5.4465,5.4398,5.3985,5.374,5.3894,5.3658,5.3499,5.348,5.3556,5.3748,5.4021,5.4362,5.4246,5.4395,5.4299,5.4359,5.4327,5.4204,5.3955,5.3823,5.3775,5.3903,5.4154,5.4363,5.4549,5.4484,5.4237,5.4394,5.5232,3.8974,3.891,3.8921,3.8892,3.8859,3.8953,3.9031,3.9066,3.9101,3.9175,3.9301,3.9236,3.9754,4.0485,4.0317,4.0354,4.046,4.0446,3.9932,3.97,3.9628,4.0347,4.0844,4.1334,4.2742,4.3576,4.3755,4.3683,4.5294,4.5111,4.4355,4.4399,4.4409,4.4451,4.444,4.4451,4.4435,4.4525,4.4858,4.509,4.5041,4.48,4.5152,4.5422,4.5002,4.5042,4.5684,4.5369,4.5386,4.5608,4.6193,4.6365,4.5862,4.6511,4.6969,4.7669,4.8472,4.9157,4.9286,4.934,4.9418,4.9544,4.9692,4.975,4.9862,4.9945,5.0005,5.005,5.0114,5.0215,5.0634,5.0964,5.1453,5.21,5.2551,5.2869,5.3219,5.3384,5.3517,5.3859,5.4064,5.4227,5.4325,5.465,5.506,5.5142,5.5166,5.5128,5.5037,5.474,5.451,5.4289,5.4342,5.4375,5.4535,5.4728,5.5036,5.5271,5.5106,5.5112,5.5359,5.5424,5.5349,5.5119,5.4748,5.4665,5.4681,5.4882,5.5133,5.5226,5.5376,5.5335,5.5307,5.537,5.5508,3.9052,3.8986,3.8986,3.8961,3.8906,3.9052,3.9163,3.9209,3.9209,3.9288,3.9391,3.9353,3.9809,4.0466,4.0297,4.0253,4.0597,4.0164,3.9681,3.9446,3.9483,4.0552,4.1117,4.1723,4.3232,4.406,4.4613,4.474,4.6117,4.5963,4.5177,4.4489,4.4494,4.4501,4.4576,4.4775,4.4768,4.4852,4.507,4.5408,4.54,4.5351,4.595,4.6174,4.5566,4.5873,4.6485,4.5925,4.581,4.6095,4.6739,4.6884,4.6632,4.7309,4.8058,4.867,4.9119,4.9412,4.9491,4.9529,4.9619,4.9699,4.9743,4.9792,4.983,4.9918,4.9972,5.0024,5.0113,5.0303,5.0887,5.1516,5.2285,5.3054,5.3328,5.3576,5.3779,5.3964,5.4294,5.4649,5.4899,5.5063,5.5297,5.5585,5.5689,5.556,5.5483,5.5483,5.5464,5.5359,5.5201,5.5054,5.5212,5.5369,5.5478,5.5413,5.5519,5.5662,5.5748,5.5845,5.6268,5.6151,5.5783,5.5609,5.545,5.5359,5.5239,5.5819,5.6129,5.6107,5.5988,5.5947,5.5944,5.6071,5.6249,3.9094,3.908,3.9021,3.9019,3.9036,3.9168,3.9288,3.9405,3.9411,3.9424,3.9437,3.9469,3.9882,4.0257,3.9957,4.0001,4.0138,3.9862,3.9566,3.9266,3.9727,4.0642,4.1666,4.2581,4.3719,4.5004,4.5527,4.5191,4.6121,4.6154,4.5565,4.4639,4.4489,4.4496,4.4585,4.5005,4.4974,4.4775,4.543,4.6054,4.6434,4.6817,4.7244,4.7533,4.6784,4.6102,4.6036,4.5779,4.5464,4.6038,4.6676,4.7131,4.7698,4.8187,4.895,4.9299,4.9583,4.9603,4.9634,4.9656,4.9707,4.9764,4.98,4.9841,4.9871,4.9905,4.9945,4.9952,5.0022,5.0655,5.1308,5.1792,5.2486,5.3395,5.3982,5.4262,5.4504,5.4587,5.4677,5.5007,5.5194,5.5378,5.547,5.5662,5.5689,5.5689,5.5689,5.5689,5.5703,5.5703,5.5642,5.5556,5.5604,5.5661,5.5679,5.5633,5.5736,5.5898,5.6035,5.6137,5.6238,5.6181,5.6097,5.5962,5.5821,5.5751,5.579,5.6233,5.6464,5.6413,5.6351,5.648,5.6557,5.6553,5.6579,3.9066,3.9021,3.9,3.905,3.9156,3.9288,3.9366,3.9418,3.9502,3.9558,3.9533,3.9539,3.9621,3.9833,3.9727,3.9783,3.974,3.9877,3.9538,3.9561,3.9876,4.0945,4.1635,4.2431,4.3935,4.5334,4.5764,4.5467,4.6161,4.6356,4.6175,4.5371,4.4909,4.451,4.4558,4.496,4.4849,4.4713,4.5646,4.6168,4.6275,4.6245,4.6379,4.6866,4.6536,4.642,4.6504,4.6815,4.6809,4.7195,4.8483,4.9033,4.9317,4.9447,4.9611,4.9812,4.9816,4.9774,4.9764,4.9764,4.9792,4.98,4.9821,4.9843,4.9878,4.9898,4.9893,4.9893,5.0234,5.0999,5.1639,5.2104,5.2684,5.3665,5.4583,5.4863,5.5143,5.5108,5.5065,5.523,5.5431,5.5527,5.5607,5.5651,5.5678,5.5689,5.5689,5.5703,5.5698,5.5698,5.5714,5.5647,5.5656,5.57,5.5745,5.5752,5.5793,5.5885,5.6001,5.6118,5.6213,5.6226,5.6228,5.6228,5.6163,5.6079,5.6082,5.6308,5.6486,5.6498,5.6496,5.6527,5.6563,5.6562,5.6592,3.8799,3.908,3.914,3.9221,3.9283,3.9392,3.9444,3.9451,3.9565,3.9614,3.9608,3.9571,3.9571,3.9614,3.9614,3.9614,3.9689,4.0034,4.0102,4.0112,4.0597,4.163,4.2209,4.2646,4.4233,4.5689,4.5999,4.6103,4.6557,4.6186,4.5972,4.5611,4.4967,4.4558,4.4605,4.4626,4.4666,4.4762,4.5778,4.605,4.6137,4.6607,4.6723,4.7059,4.6682,4.6566,4.6523,4.6859,4.7093,4.7687,4.89,4.9589,4.9741,4.9784,4.9848,4.9886,4.9891,4.9891,4.985,4.9836,4.9855,4.9836,4.9855,4.9903,4.9891,4.9893,4.9893,4.995,5.0523,5.1251,5.1743,5.2233,5.3004,5.3895,5.4564,5.4992,5.5142,5.5178,5.5192,5.5319,5.545,5.5504,5.5568,5.5607,5.5624,5.5602,5.5613,5.5646,5.5646,5.5665,5.5692,5.5698,5.5651,5.5673,5.5705,5.5721,5.5742,5.5856,5.5986,5.6129,5.6249,5.6326,5.635,5.6331,5.6325,5.6332,5.6393,5.6443,5.6489,5.6482,5.6499,5.6532,5.6552,5.6567,5.66,3.8503,3.92,3.9321,3.9398,3.9424,3.9476,3.9495,3.9508,3.9558,3.9614,3.9614,3.9608,3.9614,3.9614,3.9614,3.9614,3.9714,3.999,4.0308,4.0763,4.1778,4.2064,4.2688,4.3671,4.4721,4.5807,4.6542,4.7086,4.7604,4.6868,4.612,4.5651,4.511,4.4619,4.4651,4.4679,4.4738,4.4826,4.5354,4.5755,4.6631,4.7699,4.7568,4.7146,4.6744,4.6357,4.6294,4.6523,4.6941,4.7788,4.9026,4.9608,4.9893,4.9893,4.9893,4.9893,4.9893,4.9905,4.9898,4.9891,4.9898,4.9905,4.9943,5.0038,5.0075,5.0227,5.0227,5.053,5.1092,5.149,5.2002,5.2577,5.3386,5.4067,5.4627,5.5057,5.5121,5.5196,5.5281,5.5371,5.5426,5.548,5.551,5.5551,5.5556,5.5527,5.5533,5.5562,5.5585,5.5585,5.5615,5.559,5.5568,5.5602,5.5651,5.5678,5.5689,5.5798,5.5926,5.6125,5.6288,5.6306,5.6344,5.6361,5.6378,5.6372,5.6371,5.6403,5.6435,5.6465,5.6501,5.6517,5.6517,5.6554,5.6565,3.8568,3.9425,3.9289,3.9316,3.9451,3.9489,3.9495,3.9508,3.9577,3.9614,3.9614,3.9614,3.9614,3.9614,3.9614,3.9602,3.9608,3.9921,3.9783,3.9944,4.1342,4.1785,4.2561,4.394,4.4564,4.5813,4.7093,4.7618,4.7662,4.7057,4.6429,4.5777,4.5041,4.4723,4.4736,4.4788,4.484,4.501,4.5294,4.5741,4.569,4.6631,4.7648,4.7771,4.8051,4.7583,4.7409,4.7802,4.8137,4.8649,4.9246,4.9746,4.9893,4.9893,4.9893,4.9893,4.9893,4.9893,4.9893,4.9893,4.9893,4.9962,5.0189,5.077,5.0997,5.1452,5.1528,5.1698,5.2089,5.2203,5.2646,5.3215,5.3907,5.4396,5.4937,5.5035,5.512,5.5162,5.5229,5.5307,5.5371,5.5402,5.5426,5.5468,5.5504,5.5492,5.5492,5.5516,5.5502,5.5522,5.5541,5.5504,5.5486,5.5492,5.5527,5.5602,5.564,5.5733,5.5865,5.6052,5.6206,5.6269,5.6307,5.6332,5.6344,5.6336,5.6336,5.6363,5.6395,5.6427,5.6465,5.6503,5.6524,5.6616,5.6726]}]]